[[{"header":{"parameterUnit":"m.s-1","parameterCategory":1,"la1":31.0,"la2":29.5877,"lo1":-88.7671,"lo2":-86.6584,"dx":0.0162,"dy":0.0185,"nx":115,"ny":88,"refTime":"2022-11-03T18:00:00:Z","depth":0,"parameterNumber":2,"parameterNumberName":"U-component_of_WINDS"},"data":[0.0,0.0,0.0,0.0,0.0,0.0,0.0,0.0,0.0,0.0,0.0,0.0,0.0,0.0,0.0,0.0,0.0,0.0,0.0,0.0,0.0,0.0,0.0,0.0,0.0,0.0,0.0,0.0,0.0,0.0,0.0,0.0,0.0,0.0,0.0,0.0,0.0,0.0,0.0,0.0,0.0,0.0,0.0,0.0,0.0,0.0,0.0,0.0,0.0,0.0,0.0,0.0,0.0,0.0,0.0,0.0,0.0,0.0,0.0,0.0,0.0,0.0,0.0,0.0,0.0,0.0,0.0,0.0,0.0,0.0,0.0,0.0,0.0,0.0,0.0,0.0,0.0,0.0,0.0,0.0,0.0,0.0,0.0,0.0,0.0,0.0,0.0,0.0,0.0,0.0,0.0,0.0,0.0,0.0,0.0,0.0,0.0,0.0,0.0,0.0,0.0,0.0,0.0,0.0,0.0,0.0,0.0,0.0,0.0,0.0,0.0,0.0,0.0,0.0,0.0,0.0,0.0,0.0,0.0,0.0,0.0,0.0,0.0,0.0,0.0,0.0,0.0,0.0,0.0,0.0,0.0,0.0,0.0,0.0,0.0,0.0,0.0,0.0,0.0,0.0,0.0,0.0,0.0,0.0,0.0,0.0,0.0,0.0,0.0,0.0,0.0,0.0,0.0,0.0,0.0,0.0,0.0,0.0,0.0,0.0,0.0,0.0,0.0,0.0,0.0,0.0,0.0,0.0,0.0,0.0,0.0,0.0,0.0,0.0,0.0,0.0,0.0,0.0,0.0,0.0,0.0,0.0,0.0,0.0,0.0,0.0,0.0,0.0,0.0,0.0,0.0,0.0,0.0,0.0,0.0,0.0,0.0,0.0,0.0,0.0,0.0,0.0,0.0,0.0,0.0,0.0,0.0,0.0,0.0,0.0,0.0,0.0,0.0,0.0,0.0,0.0,0.0,0.0,0.0,0.0,0.0,0.0,0.0,0.0,0.0,0.0,0.0,0.0,0.0,0.0,0.0,0.0,0.0,0.0,0.0,0.0,0.0,0.0,0.0,0.0,0.0,0.0,0.0,0.0,0.0,0.0,0.0,0.0,0.0,0.0,0.0,0.0,0.0,0.0,0.0,0.0,0.0,0.0,0.0,0.0,0.0,0.0,0.0,0.0,0.0,0.0,0.0,0.0,0.0,0.0,0.0,0.0,0.0,0.0,0.0,0.0,0.0,0.0,0.0,0.0,0.0,0.0,0.0,0.0,0.0,0.0,0.0,0.0,0.0,0.0,0.0,0.0,0.0,0.0,0.0,0.0,0.0,0.0,0.0,0.0,0.0,0.0,0.0,0.0,0.0,0.0,0.0,0.0,0.0,0.0,0.0,0.0,0.0,0.0,0.0,0.0,0.0,0.0,0.0,0.0,0.0,0.0,0.0,0.0,0.0,0.0,0.0,0.0,0.0,0.0,0.0,0.0,0.0,0.0,0.0,0.0,0.0,0.0,0.0,0.0,0.0,0.0,0.0,0.0,0.0,0.0,0.0,0.0,0.0,0.0,0.0,0.0,0.0,0.0,0.0,0.0,0.0,0.0,0.0,0.0,0.0,0.0,0.0,0.0,0.0,0.0,0.0,0.0,0.0,0.0,0.0,0.0,0.0,0.0,0.0,0.0,0.0,0.0,0.0,0.0,0.0,0.0,0.0,0.0,0.0,0.0,0.0,0.0,0.0,0.0,0.0,0.0,0.0,0.0,0.0,0.0,0.0,0.0,0.0,0.0,0.0,0.0,0.0,0.0,0.0,0.0,0.0,0.0,0.0,0.0,0.0,0.0,0.0,0.0,0.0,0.0,0.0,0.0,0.0,0.0,0.0,0.0,0.0,0.0,0.0,0.0,0.0,0.0,0.0,0.0,0.0,0.0,0.0,0.0,0.0,0.0,0.0,0.0,0.0,0.0,0.0,0.0,0.0,0.0,0.0,0.0,0.0,0.0,0.0,0.0,0.0,0.0,0.0,0.0,0.0,0.0,0.0,0.0,0.0,0.0,0.0,0.0,0.0,0.0,0.0,0.0,0.0,0.0,0.0,0.0,0.0,0.0,0.0,0.0,0.0,0.0,0.0,0.0,0.0,0.0,0.0,0.0,0.0,0.0,0.0,0.0,0.0,0.0,0.0,0.0,0.0,0.0,0.0,0.0,0.0,0.0,0.0,0.0,0.0,0.0,0.0,0.0,0.0,0.0,0.0,0.0,0.0,0.0,0.0,0.0,0.0,0.0,0.0,0.0,0.0,0.0,0.0,0.0,0.0,0.0,0.0,0.0,0.0,0.0,0.0,0.0,0.0,0.0,0.0,0.0,0.0,0.0,0.0,0.0,0.0,0.0,0.0,0.0,0.0,0.0,0.0,0.0,0.0,0.0,0.0,0.0,0.0,0.0,0.0,0.0,0.0,0.0,0.0,0.0,0.0,0.0,0.0,0.0,0.0,0.0,0.0,0.0,0.0,0.0,0.0,0.0,0.0,0.0,0.0,0.0,0.0,0.0,0.0,0.0,0.0,0.0,0.0,0.0,0.0,0.0,0.0,0.0,0.0,0.0,0.0,0.0,0.0,0.0,0.0,0.0,0.0,0.0,0.0,0.0,0.0,0.0,0.0,0.0,0.0,0.0,0.0,0.0,0.0,0.0,0.0,0.0,0.0,0.0,0.0,0.0,0.0,0.0,0.0,0.0,0.0,0.0,0.0,0.0,0.0,0.0,0.0,0.0,0.0,0.0,0.0,0.0,0.0,0.0,0.0,0.0,0.0,0.0,0.0,0.0,0.0,0.0,0.0,0.0,0.0,0.0,0.0,0.0,0.0,0.0,0.0,0.0,0.0,0.0,0.0,0.0,0.0,0.0,0.0,0.0,0.0,0.0,0.0,0.0,0.0,0.0,0.0,0.0,0.0,0.0,0.0,0.0,0.0,0.0,0.0,0.0,0.0,0.0,0.0,0.0,0.0,0.0,0.0,0.0,0.0,0.0,0.0,0.0,0.0,0.0,0.0,0.0,0.0,0.0,0.0,0.0,0.0,0.0,0.0,0.0,0.0,0.0,0.0,0.0,0.0,0.0,0.0,0.0,0.0,0.0,0.0,0.0,0.0,0.0,0.0,0.0,0.0,0.0,0.0,0.0,0.0,0.0,0.0,0.0,0.0,0.0,0.0,0.0,0.0,0.0,0.0,0.0,0.0,0.0,0.0,0.0,0.0,0.0,0.0,0.0,0.0,0.0,0.0,0.0,0.0,0.0,0.0,0.0,0.0,0.0,0.0,0.0,0.0,0.0,0.0,0.0,0.0,0.0,0.0,0.0,0.0,0.0,0.0,0.0,0.0,0.0,0.0,0.0,0.0,0.0,0.0,0.0,0.0,0.0,0.0,0.0,0.0,0.0,0.0,0.0,0.0,0.0,0.0,0.0,0.0,0.0,0.0,0.0,0.0,0.0,0.0,0.0,0.0,0.0,0.0,0.0,0.0,0.0,0.0,0.0,0.0,0.0,0.0,0.0,0.0,0.0,0.0,0.0,0.0,0.0,0.0,0.0,0.0,0.0,0.0,0.0,0.0,0.0,0.0,0.0,0.0,0.0,0.0,0.0,0.0,0.0,0.0,0.0,0.0,0.0,0.0,0.0,0.0,0.0,0.0,0.0,0.0,0.0,0.0,0.0,0.0,0.0,0.0,0.0,0.0,0.0,0.0,0.0,0.0,0.0,0.0,0.0,0.0,0.0,0.0,0.0,0.0,0.0,0.0,0.0,0.0,0.0,0.0,0.0,0.0,0.0,0.0,0.0,0.0,0.0,0.0,0.0,0.0,0.0,0.0,0.0,0.0,0.0,0.0,0.0,0.0,0.0,0.0,0.0,0.0,0.0,0.0,0.0,0.0,0.0,0.0,0.0,0.0,0.0,0.0,0.0,0.0,0.0,0.0,0.0,0.0,0.0,0.0,0.0,0.0,0.0,0.0,0.0,0.0,0.0,0.0,0.0,0.0,0.0,0.0,0.0,0.0,0.0,0.0,0.0,0.0,0.0,0.0,0.0,0.0,0.0,0.0,0.0,0.0,0.0,0.0,0.0,0.0,0.0,0.0,0.0,0.0,0.0,0.0,0.0,0.0,0.0,0.0,0.0,0.0,0.0,0.0,0.0,0.0,0.0,0.0,0.0,0.0,0.0,0.0,0.0,0.0,0.0,0.0,0.0,0.0,0.0,0.0,0.0,0.0,0.0,0.0,0.0,-1.8453,0.0,0.0,0.0,-1.7289,0.0,0.0,0.0,0.0,0.0,0.0,0.0,0.0,0.0,0.0,0.0,0.0,0.0,0.0,0.0,0.0,0.0,0.0,0.0,0.0,0.0,0.0,0.0,0.0,0.0,0.0,0.0,0.0,0.0,0.0,0.0,0.0,0.0,0.0,0.0,0.0,0.0,0.0,0.0,0.0,0.0,0.0,0.0,0.0,0.0,0.0,0.0,0.0,0.0,0.0,0.0,0.0,0.0,0.0,0.0,0.0,0.0,0.0,0.0,0.0,0.0,0.0,0.0,0.0,0.0,0.0,0.0,0.0,0.0,0.0,0.0,0.0,0.0,0.0,0.0,0.0,0.0,0.0,0.0,0.0,0.0,0.0,0.0,0.0,0.0,0.0,0.0,0.0,0.0,0.0,0.0,0.0,0.0,0.0,0.0,0.0,0.0,0.0,0.0,0.0,0.0,0.0,0.0,0.0,0.0,0.0,0.0,0.0,0.0,0.0,-1.8679,-1.7359,-1.8468,-1.8642,-1.7683,0.0,0.0,0.0,0.0,0.0,0.0,0.0,0.0,0.0,0.0,0.0,0.0,0.0,0.0,0.0,0.0,0.0,0.0,0.0,0.0,0.0,0.0,0.0,0.0,0.0,0.0,0.0,0.0,0.0,0.0,0.0,0.0,0.0,0.0,0.0,0.0,0.0,0.0,0.0,0.0,0.0,0.0,0.0,0.0,0.0,0.0,0.0,0.0,0.0,0.0,0.0,0.0,0.0,0.0,0.0,0.0,0.0,0.0,0.0,0.0,0.0,0.0,0.0,0.0,0.0,0.0,0.0,0.0,0.0,0.0,0.0,0.0,0.0,0.0,0.0,0.0,0.0,0.0,0.0,0.0,0.0,0.0,0.0,0.0,0.0,0.0,0.0,0.0,0.0,0.0,0.0,0.0,0.0,0.0,0.0,0.0,0.0,0.0,0.0,0.0,0.0,0.0,0.0,0.0,0.0,0.0,0.0,0.0,0.0,0.0,0.0,0.0,-1.893,-1.9157,-1.8179,0.0,0.0,0.0,0.0,0.0,0.0,0.0,0.0,0.0,0.0,0.0,0.0,0.0,0.0,0.0,0.0,0.0,0.0,0.0,0.0,0.0,0.0,0.0,0.0,0.0,0.0,0.0,0.0,0.0,0.0,0.0,0.0,0.0,0.0,0.0,0.0,0.0,0.0,0.0,0.0,0.0,0.0,0.0,0.0,0.0,0.0,0.0,0.0,0.0,0.0,0.0,0.0,0.0,0.0,0.0,0.0,0.0,0.0,0.0,0.0,0.0,0.0,0.0,0.0,0.0,0.0,0.0,0.0,0.0,0.0,0.0,0.0,0.0,0.0,0.0,0.0,0.0,0.0,0.0,0.0,0.0,0.0,0.0,0.0,0.0,0.0,0.0,0.0,0.0,0.0,0.0,0.0,0.0,0.0,0.0,0.0,0.0,0.0,0.0,0.0,0.0,0.0,0.0,0.0,0.0,0.0,0.0,0.0,0.0,0.0,-1.793,-1.8828,-1.9005,0.0,-1.8264,0.0,0.0,0.0,0.0,0.0,0.0,0.0,0.0,0.0,0.0,0.0,0.0,0.0,0.0,0.0,0.0,0.0,0.0,0.0,0.0,0.0,0.0,0.0,0.0,0.0,0.0,0.0,0.0,0.0,0.0,0.0,0.0,0.0,0.0,0.0,0.0,0.0,0.0,0.0,0.0,0.0,0.0,0.0,0.0,0.0,0.0,0.0,0.0,0.0,0.0,0.0,0.0,0.0,0.0,0.0,0.0,0.0,0.0,0.0,0.0,0.0,0.0,0.0,0.0,0.0,0.0,0.0,0.0,0.0,0.0,0.0,0.0,0.0,0.0,0.0,0.0,0.0,0.0,0.0,0.0,0.0,0.0,0.0,0.0,0.0,0.0,0.0,0.0,0.0,0.0,0.0,0.0,0.0,0.0,0.0,0.0,0.0,0.0,0.0,0.0,0.0,0.0,0.0,0.0,0.0,0.0,0.0,0.0,0.0,0.0,-1.8864,-1.9012,-1.9302,-1.9216,0.0,0.0,0.0,0.0,0.0,0.0,0.0,0.0,0.0,0.0,0.0,0.0,0.0,0.0,0.0,0.0,0.0,0.0,0.0,0.0,0.0,0.0,0.0,0.0,0.0,0.0,0.0,0.0,0.0,0.0,0.0,0.0,0.0,0.0,0.0,0.0,0.0,0.0,0.0,0.0,0.0,0.0,0.0,0.0,0.0,0.0,0.0,0.0,0.0,0.0,0.0,0.0,0.0,0.0,0.0,0.0,0.0,0.0,0.0,0.0,0.0,0.0,0.0,0.0,0.0,0.0,0.0,0.0,0.0,0.0,0.0,0.0,0.0,0.0,0.0,0.0,0.0,0.0,0.0,0.0,0.0,0.0,0.0,0.0,0.0,0.0,0.0,0.0,0.0,0.0,0.0,0.0,0.0,0.0,0.0,0.0,0.0,0.0,0.0,0.0,0.0,0.0,0.0,0.0,0.0,0.0,0.0,0.0,0.0,0.0,-1.8768,-1.953,-1.9459,-1.9668,-1.9478,-1.8824,0.0,0.0,0.0,0.0,0.0,0.0,0.0,0.0,0.0,0.0,0.0,0.0,0.0,0.0,0.0,0.0,0.0,0.0,0.0,0.0,0.0,0.0,0.0,0.0,0.0,0.0,0.0,0.0,0.0,0.0,0.0,0.0,0.0,0.0,0.0,0.0,0.0,0.0,0.0,0.0,0.0,0.0,0.0,0.0,0.0,0.0,0.0,0.0,0.0,0.0,0.0,0.0,0.0,0.0,0.0,0.0,0.0,0.0,0.0,0.0,0.0,0.0,0.0,0.0,0.0,0.0,0.0,0.0,0.0,0.0,0.0,0.0,0.0,0.0,0.0,0.0,0.0,0.0,0.0,0.0,0.0,0.0,0.0,0.0,0.0,0.0,0.0,0.0,0.0,0.0,0.0,0.0,0.0,0.0,0.0,0.0,0.0,0.0,0.0,0.0,0.0,0.0,0.0,0.0,0.0,0.0,0.0,0.0,-1.9211,-1.9114,-1.9514,-2.0492,-2.0067,-1.9326,0.0,0.0,0.0,0.0,0.0,0.0,0.0,0.0,0.0,0.0,0.0,0.0,0.0,0.0,0.0,0.0,0.0,0.0,0.0,0.0,0.0,0.0,0.0,0.0,0.0,0.0,0.0,0.0,0.0,0.0,0.0,0.0,0.0,0.0,0.0,0.0,0.0,0.0,0.0,0.0,0.0,0.0,0.0,0.0,0.0,0.0,0.0,0.0,0.0,0.0,0.0,0.0,0.0,0.0,0.0,0.0,0.0,0.0,0.0,0.0,0.0,0.0,0.0,0.0,0.0,0.0,0.0,0.0,0.0,0.0,0.0,0.0,0.0,0.0,0.0,0.0,0.0,0.0,0.0,0.0,0.0,0.0,0.0,0.0,0.0,0.0,0.0,0.0,0.0,0.0,0.0,0.0,0.0,0.0,0.0,0.0,0.0,0.0,0.0,0.0,0.0,0.0,0.0,0.0,0.0,0.0,0.0,0.0,0.0,-1.7332,-1.8074,-1.9596,-2.1694,-2.0109,-1.939,0.0,0.0,0.0,0.0,0.0,0.0,0.0,0.0,0.0,0.0,0.0,0.0,0.0,0.0,0.0,0.0,0.0,0.0,0.0,0.0,0.0,0.0,0.0,0.0,0.0,0.0,0.0,0.0,0.0,0.0,0.0,0.0,0.0,0.0,0.0,0.0,0.0,0.0,0.0,0.0,0.0,0.0,0.0,0.0,0.0,0.0,0.0,0.0,0.0,0.0,0.0,0.0,0.0,0.0,0.0,0.0,0.0,0.0,0.0,0.0,0.0,0.0,0.0,0.0,0.0,0.0,0.0,0.0,0.0,0.0,0.0,0.0,0.0,0.0,0.0,0.0,0.0,0.0,0.0,0.0,0.0,0.0,0.0,0.0,0.0,0.0,0.0,0.0,0.0,0.0,0.0,0.0,0.0,0.0,0.0,0.0,0.0,0.0,0.0,0.0,0.0,0.0,0.0,0.0,0.0,0.0,0.0,0.0,0.0,-1.8126,-1.9496,-2.0965,-2.2324,-2.0448,-1.9423,0.0,0.0,0.0,0.0,0.0,0.0,0.0,0.0,0.0,0.0,0.0,0.0,0.0,0.0,0.0,0.0,0.0,0.0,0.0,0.0,0.0,0.0,0.0,0.0,0.0,0.0,0.0,0.0,0.0,0.0,0.0,0.0,0.0,0.0,0.0,0.0,0.0,0.0,0.0,0.0,0.0,0.0,0.0,0.0,0.0,0.0,0.0,0.0,0.0,0.0,0.0,0.0,0.0,0.0,0.0,0.0,0.0,0.0,0.0,0.0,0.0,0.0,0.0,0.0,0.0,0.0,0.0,0.0,0.0,0.0,0.0,0.0,0.0,0.0,0.0,0.0,0.0,0.0,0.0,0.0,0.0,0.0,0.0,0.0,0.0,0.0,0.0,0.0,0.0,0.0,0.0,0.0,0.0,0.0,0.0,0.0,0.0,0.0,0.0,0.0,0.0,0.0,0.0,0.0,0.0,0.0,0.0,0.0,-1.9922,-2.2106,-2.3499,-2.3606,-2.2385,-2.1134,-1.9454,0.0,0.0,0.0,0.0,0.0,0.0,0.0,0.0,0.0,0.0,0.0,0.0,0.0,0.0,0.0,0.0,0.0,0.0,0.0,0.0,0.0,0.0,0.0,0.0,0.0,0.0,0.0,0.0,0.0,0.0,0.0,0.0,0.0,0.0,0.0,0.0,0.0,0.0,0.0,0.0,0.0,0.0,0.0,0.0,0.0,0.0,0.0,0.0,0.0,0.0,0.0,0.0,0.0,0.0,0.0,0.0,0.0,0.0,0.0,0.0,0.0,0.0,0.0,0.0,0.0,0.0,0.0,0.0,0.0,0.0,0.0,0.0,0.0,0.0,0.0,0.0,0.0,0.0,0.0,0.0,0.0,0.0,0.0,0.0,0.0,0.0,0.0,0.0,0.0,0.0,0.0,0.0,0.0,0.0,0.0,0.0,0.0,0.0,0.0,0.0,0.0,0.0,0.0,0.0,0.0,0.0,0.0,0.0,0.0,-2.0722,-2.3178,-2.4365,-2.3892,-2.1656,-2.0816,0.0,0.0,0.0,0.0,0.0,0.0,0.0,0.0,0.0,0.0,0.0,0.0,0.0,0.0,0.0,0.0,0.0,0.0,0.0,0.0,0.0,0.0,0.0,0.0,0.0,0.0,0.0,0.0,0.0,0.0,0.0,0.0,0.0,0.0,0.0,0.0,0.0,0.0,0.0,0.0,0.0,0.0,0.0,0.0,0.0,0.0,0.0,0.0,0.0,0.0,0.0,0.0,0.0,0.0,0.0,0.0,0.0,0.0,0.0,0.0,0.0,0.0,0.0,0.0,0.0,0.0,0.0,0.0,0.0,0.0,0.0,0.0,0.0,0.0,0.0,0.0,0.0,0.0,0.0,0.0,0.0,0.0,0.0,0.0,0.0,0.0,0.0,0.0,0.0,0.0,0.0,0.0,0.0,0.0,0.0,0.0,0.0,0.0,0.0,0.0,0.0,0.0,0.0,0.0,0.0,0.0,0.0,0.0,0.0,-2.4016,-2.6327,-2.7264,-2.63,-2.3587,-2.21,-2.2026,0.0,0.0,0.0,0.0,0.0,0.0,0.0,0.0,0.0,0.0,0.0,0.0,0.0,0.0,0.0,0.0,0.0,0.0,0.0,0.0,0.0,0.0,0.0,0.0,0.0,0.0,0.0,0.0,0.0,0.0,0.0,0.0,0.0,0.0,0.0,0.0,0.0,0.0,0.0,0.0,0.0,0.0,0.0,0.0,0.0,0.0,0.0,0.0,0.0,0.0,0.0,0.0,0.0,0.0,0.0,0.0,0.0,0.0,0.0,0.0,0.0,0.0,0.0,0.0,0.0,0.0,0.0,0.0,0.0,0.0,0.0,0.0,0.0,0.0,0.0,0.0,0.0,0.0,0.0,0.0,0.0,0.0,0.0,0.0,0.0,0.0,0.0,0.0,0.0,0.0,0.0,0.0,0.0,0.0,0.0,0.0,0.0,0.0,0.0,0.0,0.0,0.0,0.0,0.0,0.0,0.0,0.0,0.0,-3.0741,-3.2371,-3.1976,-2.9351,-2.661,-2.3532,0.0,0.0,0.0,0.0,0.0,0.0,0.0,0.0,0.0,0.0,0.0,0.0,0.0,0.0,0.0,0.0,0.0,0.0,0.0,0.0,0.0,0.0,0.0,0.0,0.0,0.0,0.0,0.0,0.0,0.0,0.0,0.0,0.0,0.0,0.0,0.0,0.0,0.0,0.0,0.0,0.0,0.0,0.0,0.0,0.0,0.0,0.0,0.0,0.0,0.0,0.0,0.0,0.0,0.0,0.0,0.0,0.0,0.0,0.0,0.0,0.0,0.0,0.0,0.0,0.0,0.0,0.0,0.0,0.0,0.0,0.0,0.0,0.0,0.0,0.0,0.0,0.0,0.0,0.0,0.0,0.0,0.0,0.0,0.0,0.0,0.0,0.0,0.0,0.0,0.0,0.0,0.0,0.0,0.0,0.0,0.0,0.0,0.0,0.0,0.0,0.0,0.0,0.0,0.0,0.0,0.0,0.0,0.0,0.0,-3.4812,-3.6428,-3.5904,-3.3025,-2.9133,-2.6406,0.0,0.0,0.0,0.0,0.0,0.0,0.0,0.0,0.0,0.0,0.0,0.0,0.0,0.0,0.0,0.0,0.0,0.0,0.0,0.0,0.0,0.0,0.0,0.0,0.0,0.0,0.0,0.0,0.0,0.0,0.0,0.0,0.0,0.0,0.0,0.0,0.0,0.0,0.0,0.0,0.0,0.0,0.0,0.0,0.0,0.0,0.0,0.0,0.0,0.0,0.0,0.0,0.0,0.0,0.0,0.0,0.0,0.0,0.0,0.0,0.0,0.0,0.0,0.0,0.0,0.0,0.0,0.0,0.0,0.0,0.0,0.0,0.0,0.0,0.0,0.0,0.0,0.0,0.0,0.0,0.0,0.0,0.0,0.0,0.0,0.0,0.0,0.0,0.0,0.0,0.0,0.0,0.0,0.0,0.0,0.0,0.0,0.0,0.0,0.0,0.0,0.0,0.0,0.0,0.0,0.0,0.0,0.0,-3.394,-3.7644,-3.9284,-3.9185,-3.7269,-3.2127,-2.8244,0.0,0.0,0.0,0.0,0.0,0.0,0.0,0.0,0.0,0.0,0.0,0.0,0.0,0.0,0.0,0.0,0.0,0.0,0.0,0.0,0.0,0.0,0.0,0.0,0.0,0.0,0.0,0.0,0.0,0.0,0.0,0.0,0.0,0.0,0.0,0.0,0.0,0.0,0.0,0.0,0.0,0.0,0.0,0.0,0.0,0.0,0.0,0.0,0.0,0.0,0.0,0.0,0.0,0.0,0.0,0.0,0.0,0.0,0.0,0.0,0.0,0.0,0.0,0.0,0.0,0.0,0.0,0.0,0.0,0.0,0.0,0.0,0.0,0.0,0.0,0.0,0.0,0.0,0.0,0.0,0.0,0.0,0.0,0.0,0.0,0.0,0.0,0.0,0.0,0.0,0.0,0.0,0.0,0.0,0.0,0.0,0.0,0.0,0.0,0.0,0.0,0.0,0.0,0.0,0.0,0.0,0.0,0.0,-3.7025,-3.9673,-4.1237,-4.173,-4.0893,-3.4905,-2.947,0.0,0.0,0.0,0.0,0.0,0.0,0.0,0.0,0.0,0.0,0.0,0.0,0.0,0.0,0.0,0.0,0.0,0.0,0.0,0.0,0.0,0.0,0.0,0.0,0.0,0.0,0.0,0.0,0.0,0.0,0.0,0.0,0.0,0.0,0.0,0.0,0.0,0.0,0.0,0.0,0.0,0.0,0.0,0.0,0.0,0.0,0.0,0.0,0.0,0.0,0.0,0.0,0.0,0.0,0.0,0.0,0.0,0.0,0.0,0.0,0.0,0.0,0.0,0.0,0.0,0.0,0.0,0.0,0.0,0.0,0.0,0.0,0.0,0.0,0.0,0.0,0.0,0.0,0.0,0.0,0.0,0.0,0.0,0.0,0.0,0.0,0.0,0.0,0.0,0.0,0.0,0.0,0.0,0.0,0.0,0.0,0.0,0.0,0.0,0.0,0.0,0.0,0.0,0.0,0.0,0.0,0.0,0.0,-3.8205,-4.1745,-4.2524,-4.2289,-4.0888,-3.5273,-3.0797,0.0,0.0,0.0,0.0,0.0,0.0,0.0,0.0,0.0,0.0,0.0,0.0,0.0,0.0,0.0,0.0,0.0,0.0,0.0,0.0,0.0,0.0,0.0,0.0,0.0,0.0,0.0,0.0,0.0,0.0,0.0,0.0,0.0,0.0,0.0,0.0,0.0,0.0,0.0,0.0,0.0,0.0,0.0,0.0,0.0,0.0,0.0,0.0,-1.0862,0.0,0.0,0.0,0.0,0.0,0.0,0.0,0.0,0.0,0.0,0.0,0.0,0.0,0.0,0.0,0.0,0.0,0.0,0.0,0.0,0.0,0.0,0.0,0.0,0.0,0.0,0.0,0.0,0.0,0.0,0.0,0.0,0.0,0.0,0.0,0.0,0.0,0.0,0.0,0.0,0.0,0.0,0.0,0.0,0.0,0.0,0.0,0.0,0.0,0.0,0.0,0.0,0.0,0.0,0.0,0.0,0.0,0.0,0.0,-3.9597,-4.2431,-4.334,-4.3045,-4.1385,-3.7121,-3.276,0.0,0.0,0.0,0.0,0.0,0.0,0.0,0.0,0.0,0.0,0.0,0.0,0.0,0.0,0.0,0.0,0.0,0.0,0.0,0.0,0.0,0.0,0.0,0.0,0.0,0.0,0.0,0.0,0.0,0.0,0.0,0.0,0.0,0.0,0.0,0.0,0.0,0.0,0.0,0.0,0.0,0.0,0.0,0.0,0.0,0.0,0.0,0.0,0.0,0.0,0.0,0.0,0.0,0.0,0.0,0.0,0.0,0.0,0.0,0.0,0.0,0.0,0.0,0.0,0.0,0.0,0.0,0.0,0.0,0.0,0.0,0.0,0.0,0.0,0.0,0.0,0.0,0.0,0.0,0.0,0.0,0.0,0.0,0.0,0.0,0.0,0.0,0.0,0.0,0.0,0.0,0.0,0.0,0.0,0.0,0.0,0.0,0.0,0.0,0.0,0.0,0.0,0.0,0.0,0.0,0.0,0.0,-3.7285,-4.1061,-4.3178,-4.4267,-4.3982,-4.2345,-3.9404,-3.4882,-2.8786,0.0,0.0,0.0,0.0,0.0,0.0,0.0,0.0,0.0,0.0,0.0,0.0,0.0,0.0,0.0,0.0,0.0,0.0,0.0,0.0,0.0,0.0,0.0,0.0,0.0,0.0,0.0,0.0,0.0,0.0,0.0,0.0,0.0,0.0,0.0,0.0,0.0,0.0,-1.4075,-1.4914,0.0,0.0,0.0,0.0,0.0,0.0,0.0,0.0,-1.1709,0.0,0.0,0.0,0.0,0.0,0.0,0.0,0.0,0.0,0.0,0.0,0.0,0.0,0.0,0.0,0.0,0.0,0.0,0.0,0.0,0.0,0.0,0.0,0.0,0.0,0.0,0.0,0.0,0.0,0.0,0.0,0.0,0.0,0.0,0.0,0.0,0.0,0.0,0.0,0.0,0.0,0.0,0.0,0.0,0.0,0.0,0.0,0.0,0.0,0.0,0.0,0.0,0.0,0.0,0.0,0.0,-3.9105,-4.0081,-4.233,-4.6072,-4.6339,-4.5297,-4.3,-4.0795,-3.6576,-3.0289,0.0,0.0,0.0,0.0,0.0,0.0,0.0,0.0,0.0,0.0,0.0,0.0,0.0,0.0,0.0,0.0,0.0,0.0,0.0,0.0,0.0,0.0,0.0,0.0,0.0,0.0,0.0,0.0,0.0,0.0,0.0,0.0,0.0,0.0,0.0,0.0,0.0,0.0,0.0,-1.8638,-1.9021,0.0,0.0,0.0,0.0,0.0,0.0,0.0,0.0,-1.2512,0.0,0.0,0.0,0.0,0.0,0.0,0.0,0.0,0.0,0.0,0.0,0.0,0.0,0.0,0.0,0.0,0.0,0.0,0.0,0.0,0.0,0.0,0.0,0.0,0.0,0.0,0.0,0.0,0.0,0.0,0.0,0.0,0.0,0.0,0.0,0.0,0.0,0.0,0.0,0.0,0.0,0.0,0.0,0.0,0.0,0.0,0.0,0.0,0.0,0.0,0.0,0.0,0.0,0.0,0.0,-3.7993,-4.2052,-4.5046,-4.6901,-4.7161,-4.6171,-4.3879,-4.1743,-3.7388,0.0,0.0,0.0,0.0,0.0,0.0,0.0,0.0,0.0,0.0,0.0,0.0,0.0,0.0,0.0,0.0,0.0,0.0,0.0,0.0,0.0,0.0,0.0,0.0,0.0,0.0,0.0,0.0,0.0,0.0,0.0,0.0,0.0,0.0,0.0,0.0,0.0,0.0,0.0,0.0,-2.1121,-2.162,-2.3001,0.0,0.0,0.0,0.0,0.0,0.0,-1.5104,-1.3571,0.0,0.0,0.0,0.0,0.0,0.0,0.0,0.0,0.0,0.0,0.0,0.0,0.0,0.0,0.0,0.0,0.0,0.0,0.0,0.0,0.0,0.0,0.0,0.0,0.0,0.0,0.0,0.0,0.0,0.0,0.0,0.0,0.0,0.0,0.0,0.0,0.0,0.0,0.0,0.0,0.0,0.0,0.0,0.0,0.0,0.0,0.0,0.0,0.0,0.0,0.0,0.0,0.0,0.0,0.0,-3.6283,-4.3311,-4.7072,-4.7253,-4.7722,-4.6861,-4.4527,-4.2174,-3.7766,0.0,0.0,0.0,0.0,0.0,0.0,0.0,0.0,0.0,0.0,0.0,0.0,0.0,0.0,0.0,0.0,0.0,0.0,0.0,0.0,0.0,0.0,0.0,0.0,0.0,0.0,0.0,0.0,0.0,0.0,0.0,0.0,0.0,0.0,0.0,0.0,0.0,0.0,0.0,0.0,0.0,-2.43,-2.6131,-2.413,0.0,0.0,0.0,0.0,-1.8881,-1.7356,0.0,0.0,0.0,0.0,0.0,0.0,0.0,0.0,0.0,0.0,0.0,0.0,0.0,0.0,0.0,0.0,0.0,0.0,0.0,0.0,0.0,0.0,0.0,0.0,0.0,0.0,0.0,0.0,0.0,0.0,0.0,0.0,0.0,0.0,0.0,0.0,0.0,0.0,0.0,0.0,0.0,0.0,0.0,0.0,0.0,0.0,0.0,0.0,0.0,0.0,0.0,0.0,0.0,0.0,0.0,0.0,-3.8507,-4.321,-4.6445,-4.8083,-4.8679,-4.7473,-4.4399,-4.1841,-3.7635,0.0,0.0,0.0,0.0,0.0,0.0,0.0,0.0,0.0,0.0,0.0,0.0,0.0,0.0,0.0,0.0,0.0,0.0,0.0,0.0,0.0,0.0,0.0,0.0,0.0,0.0,0.0,0.0,0.0,0.0,0.0,0.0,0.0,0.0,0.0,0.0,0.0,0.0,0.0,0.0,0.0,-2.7618,-2.7442,-2.613,-2.4731,0.0,0.0,-2.3708,-2.3038,-2.2755,0.0,0.0,0.0,0.0,0.0,0.0,0.0,0.0,0.0,0.0,0.0,0.0,0.0,0.0,0.0,0.0,0.0,0.0,0.0,0.0,0.0,0.0,0.0,0.0,0.0,0.0,0.0,0.0,0.0,0.0,0.0,0.0,0.0,0.0,0.0,0.0,0.0,0.0,0.0,0.0,0.0,0.0,0.0,0.0,0.0,0.0,0.0,0.0,0.0,0.0,0.0,0.0,0.0,0.0,0.0,-3.5814,-3.9681,-4.5934,-4.9094,-4.8904,-4.903,-4.7747,-4.4926,-4.1983,-3.7614,0.0,0.0,0.0,0.0,0.0,0.0,0.0,0.0,0.0,0.0,0.0,0.0,0.0,0.0,0.0,0.0,0.0,0.0,0.0,0.0,0.0,0.0,0.0,0.0,0.0,0.0,0.0,0.0,0.0,0.0,0.0,0.0,0.0,0.0,0.0,0.0,0.0,0.0,0.0,0.0,0.0,0.0,-3.1182,-2.9139,0.0,0.0,0.0,-2.5473,-2.4203,0.0,0.0,0.0,0.0,0.0,0.0,0.0,0.0,0.0,0.0,0.0,0.0,0.0,0.0,0.0,0.0,0.0,0.0,0.0,0.0,0.0,0.0,0.0,0.0,0.0,0.0,0.0,0.0,0.0,0.0,0.0,0.0,0.0,0.0,0.0,0.0,0.0,0.0,0.0,0.0,0.0,0.0,0.0,0.0,0.0,0.0,0.0,0.0,0.0,0.0,0.0,0.0,0.0,0.0,0.0,0.0,0.0,-4.0426,-4.8152,-5.1251,-4.9416,-4.9387,-4.8098,-4.5357,-4.2581,0.0,0.0,0.0,0.0,0.0,0.0,0.0,0.0,0.0,0.0,0.0,0.0,0.0,0.0,0.0,0.0,0.0,0.0,0.0,0.0,0.0,0.0,0.0,0.0,0.0,0.0,0.0,-1.5779,0.0,0.0,0.0,0.0,0.0,0.0,0.0,0.0,0.0,0.0,0.0,0.0,0.0,0.0,-3.0779,-3.3841,-3.1665,-2.9966,0.0,0.0,-2.7657,-2.6248,-2.6394,-2.5588,0.0,0.0,0.0,0.0,0.0,0.0,0.0,0.0,0.0,0.0,0.0,0.0,0.0,0.0,0.0,0.0,0.0,0.0,0.0,0.0,0.0,0.0,0.0,0.0,0.0,0.0,0.0,0.0,0.0,0.0,0.0,0.0,0.0,0.0,0.0,0.0,0.0,0.0,0.0,0.0,0.0,0.0,0.0,0.0,0.0,0.0,0.0,0.0,0.0,0.0,0.0,0.0,0.0,0.0,-3.8227,-4.1271,-4.848,-5.1389,-4.9491,-4.9981,-4.8726,-4.5387,-4.3868,-3.9732,0.0,0.0,0.0,0.0,0.0,0.0,0.0,0.0,0.0,0.0,0.0,0.0,0.0,0.0,0.0,0.0,0.0,0.0,0.0,0.0,0.0,0.0,0.0,0.0,0.0,0.0,0.0,0.0,0.0,0.0,0.0,0.0,0.0,0.0,0.0,0.0,0.0,0.0,0.0,0.0,0.0,-3.1811,-3.3868,-3.288,-3.2365,0.0,-3.2624,-3.1564,-3.0829,-3.1174,-2.9612,-2.3775,0.0,0.0,0.0,0.0,0.0,0.0,0.0,0.0,0.0,0.0,0.0,0.0,0.0,0.0,0.0,0.0,0.0,0.0,0.0,0.0,0.0,0.0,0.0,0.0,0.0,0.0,0.0,0.0,0.0,0.0,0.0,0.0,0.0,0.0,0.0,0.0,0.0,0.0,0.0,0.0,0.0,0.0,0.0,0.0,0.0,0.0,0.0,0.0,0.0,0.0,0.0,0.0,0.0,-3.9614,-4.2591,-5.0405,-5.3385,-5.1385,-5.0762,-4.9205,-4.6574,-4.4466,-4.0905,0.0,0.0,0.0,0.0,0.0,0.0,0.0,0.0,0.0,0.0,0.0,0.0,0.0,0.0,0.0,0.0,0.0,0.0,0.0,0.0,0.0,0.0,0.0,0.0,0.0,0.0,0.0,0.0,-2.3424,-2.3638,-2.2333,0.0,0.0,0.0,0.0,0.0,0.0,0.0,0.0,0.0,0.0,-3.3923,-3.5777,-3.4716,0.0,0.0,-3.4096,-3.3052,-3.1869,-3.1605,-3.0529,-2.7441,-2.6235,0.0,0.0,0.0,0.0,0.0,0.0,0.0,0.0,0.0,0.0,0.0,0.0,0.0,0.0,0.0,0.0,0.0,0.0,0.0,0.0,0.0,0.0,0.0,0.0,0.0,0.0,0.0,0.0,0.0,0.0,0.0,0.0,0.0,0.0,0.0,0.0,0.0,0.0,0.0,0.0,0.0,0.0,0.0,0.0,0.0,0.0,0.0,0.0,0.0,0.0,0.0,0.0,-4.0798,-4.3775,-5.1394,-5.4427,-5.2637,-5.1359,-4.9872,-4.7992,-4.5765,-4.2671,0.0,0.0,0.0,0.0,0.0,0.0,0.0,0.0,0.0,0.0,0.0,0.0,0.0,0.0,0.0,0.0,0.0,0.0,0.0,0.0,0.0,0.0,0.0,0.0,0.0,0.0,0.0,0.0,-2.5388,-2.5133,-2.3563,0.0,0.0,0.0,0.0,0.0,0.0,0.0,0.0,0.0,0.0,-3.5678,-3.7933,-3.6635,-3.5626,-3.5997,-3.5123,-3.3893,-3.2357,-3.2059,-3.1333,-2.941,0.0,0.0,0.0,0.0,0.0,0.0,0.0,0.0,0.0,0.0,0.0,0.0,0.0,0.0,0.0,0.0,0.0,0.0,0.0,0.0,0.0,0.0,0.0,0.0,0.0,0.0,0.0,-2.341,0.0,0.0,-2.2448,0.0,0.0,0.0,0.0,0.0,0.0,0.0,0.0,0.0,0.0,0.0,0.0,0.0,0.0,0.0,0.0,0.0,0.0,0.0,0.0,0.0,0.0,-4.1576,-4.4587,-5.116,-5.394,-5.286,-5.1777,-5.0672,-4.9567,-4.8039,-4.5334,-4.1324,0.0,0.0,0.0,0.0,0.0,0.0,0.0,0.0,0.0,0.0,0.0,0.0,0.0,0.0,0.0,0.0,0.0,0.0,0.0,0.0,0.0,0.0,0.0,0.0,0.0,0.0,-2.3097,-2.3103,-2.3174,0.0,0.0,0.0,0.0,0.0,0.0,0.0,0.0,0.0,-3.4656,-3.5593,-3.6937,-3.9968,-3.8727,-3.7458,-3.736,-3.5891,-3.4185,-3.2689,-3.3207,-3.2528,0.0,0.0,0.0,0.0,0.0,0.0,0.0,0.0,0.0,0.0,0.0,0.0,0.0,0.0,0.0,0.0,0.0,0.0,0.0,0.0,0.0,0.0,0.0,0.0,0.0,0.0,0.0,-3.0446,-2.9314,0.0,0.0,0.0,0.0,0.0,0.0,0.0,0.0,0.0,0.0,0.0,-4.2209,-4.3348,0.0,0.0,0.0,0.0,0.0,0.0,0.0,0.0,0.0,0.0,0.0,0.0,-4.232,-4.5505,-5.2292,-5.5312,-5.4212,-5.2922,-5.1587,-5.0291,-4.9343,-4.6491,-4.1572,0.0,0.0,0.0,0.0,0.0,0.0,0.0,0.0,0.0,0.0,0.0,0.0,0.0,0.0,0.0,0.0,0.0,0.0,0.0,0.0,0.0,0.0,0.0,0.0,0.0,-2.5394,0.0,0.0,0.0,0.0,0.0,0.0,0.0,0.0,0.0,0.0,0.0,-3.3848,-3.6675,-3.8326,-3.9758,-4.1225,-4.0765,-4.0292,0.0,0.0,0.0,0.0,0.0,0.0,0.0,0.0,0.0,0.0,0.0,0.0,0.0,0.0,-2.7556,-2.4282,-2.308,-2.2652,-2.2797,0.0,0.0,0.0,0.0,0.0,0.0,0.0,0.0,0.0,0.0,0.0,0.0,0.0,0.0,-3.6389,-3.5035,-3.4742,0.0,0.0,0.0,0.0,0.0,0.0,0.0,0.0,-4.4314,-4.6158,-4.7108,-4.7955,-4.7461,-4.5798,-4.5275,-4.2514,0.0,0.0,0.0,0.0,0.0,0.0,0.0,0.0,-4.367,-4.7239,-5.306,-5.5676,-5.4589,-5.3267,-5.2079,-5.1122,-5.0351,-4.8183,-4.4388,-4.2055,-3.9252,0.0,0.0,0.0,0.0,0.0,0.0,0.0,0.0,0.0,0.0,0.0,0.0,0.0,0.0,0.0,0.0,0.0,0.0,0.0,0.0,0.0,0.0,0.0,-2.7231,0.0,0.0,0.0,0.0,0.0,0.0,0.0,0.0,0.0,-3.1366,-3.4008,-3.6779,-3.8927,-4.0393,-4.1625,-4.2596,0.0,0.0,0.0,0.0,0.0,0.0,0.0,-3.4965,-3.5464,-3.4306,-3.3242,-3.3112,-3.3957,-3.4411,-3.3472,0.0,0.0,-2.8517,-2.7036,-2.6463,-2.6625,-2.686,-2.6992,-2.7008,-2.7182,-2.7282,0.0,0.0,0.0,0.0,-3.7134,0.0,0.0,0.0,-4.2625,-4.1839,0.0,-4.1102,0.0,0.0,0.0,0.0,-3.7371,-4.2178,0.0,0.0,-5.2089,-5.3513,-5.2203,-5.1978,-5.1613,-5.0934,-5.0845,-4.9859,-4.7671,-4.2864,0.0,0.0,0.0,0.0,0.0,0.0,-4.5664,-4.9853,-5.3459,-5.4902,-5.4019,-5.2874,-5.2215,-5.1972,-5.1107,-5.0276,-4.9492,-4.5576,-4.3008,-4.2108,-3.3913,0.0,0.0,0.0,0.0,0.0,0.0,0.0,0.0,0.0,0.0,0.0,0.0,0.0,0.0,0.0,0.0,0.0,0.0,0.0,0.0,-2.9295,0.0,0.0,0.0,0.0,0.0,0.0,0.0,0.0,0.0,0.0,-3.5353,-3.6692,-3.8669,-4.141,0.0,0.0,0.0,0.0,-4.2747,-4.1245,-3.9968,-3.8465,-3.6257,-3.7088,-3.7892,-3.7387,0.0,0.0,-3.4684,-3.5991,-3.6929,-3.525,-3.5817,-3.5907,-3.4062,-3.142,-2.9937,-3.0579,-3.0458,-3.0213,-3.0338,-3.0903,-3.1425,-4.6941,0.0,0.0,0.0,0.0,-4.4147,-4.621,-4.9424,-4.9424,-4.8612,-4.7192,-4.6887,0.0,0.0,0.0,0.0,0.0,0.0,-4.7936,-5.0985,-5.1655,-5.2779,-5.4333,-5.3081,-5.2688,-5.3123,-5.3111,-5.3423,-5.3952,-5.2567,-4.6766,-3.7121,0.0,0.0,0.0,0.0,-4.8478,-5.0711,-5.3753,-5.4902,-5.4019,-5.3113,-5.2382,-5.2002,-5.1744,-5.1182,-5.0336,-4.9404,-4.7436,-4.4223,-4.0823,0.0,0.0,0.0,0.0,0.0,0.0,0.0,0.0,0.0,0.0,0.0,0.0,0.0,0.0,0.0,0.0,0.0,0.0,0.0,-2.8397,-3.1749,-3.2826,0.0,0.0,0.0,0.0,0.0,0.0,0.0,0.0,0.0,-4.0097,-4.0884,-4.1933,0.0,0.0,-4.4307,-4.4306,-4.4996,-4.5127,-4.4001,-4.3687,0.0,-4.1622,-4.0526,-4.0145,-4.1121,-4.1353,-4.0999,-3.979,-4.0019,-3.9825,-3.8404,-3.813,-3.7724,-3.6645,-3.5414,-3.4606,-3.4814,-3.4818,-3.482,-3.4862,-3.4546,-3.4203,-5.3914,-5.1247,-4.7962,-4.7708,-4.9424,-4.9458,-5.1386,-5.4499,-5.4532,-5.3856,-5.2739,-5.2604,-5.0304,-4.6447,-4.5094,0.0,0.0,0.0,-5.1285,-5.4498,-5.3581,-5.4098,-5.5554,-5.4645,-5.4403,-5.4842,-5.5229,-5.6081,-5.7475,-5.7177,-5.2826,-4.4761,0.0,-4.4254,-4.3978,-4.7868,-5.066,-5.229,-5.454,-5.5111,-5.3897,-5.3248,-5.2826,-5.2551,-5.2261,-5.185,-5.1319,-5.1406,-5.0273,-4.7698,-4.5241,-4.2808,0.0,0.0,0.0,0.0,0.0,0.0,0.0,0.0,0.0,0.0,0.0,-2.4956,-2.2084,0.0,0.0,0.0,-3.0193,-3.148,-3.3844,-3.5878,0.0,0.0,0.0,0.0,0.0,0.0,0.0,-4.0311,-4.1454,-4.2323,-4.3184,-4.3607,-4.3808,-4.3908,-4.4481,-4.4828,-4.4618,0.0,-4.5679,-4.4602,-4.464,-4.4387,-4.3316,-4.2409,-4.2218,-4.3301,-4.3417,-4.2951,-4.2181,-4.187,-4.1491,-4.071,-3.9897,-3.9172,-3.8655,-3.7929,-3.7232,-3.6791,-3.6725,-3.6784,-3.6676,-3.6095,-3.5641,-5.9013,-5.8393,-5.2582,-5.1611,-5.3856,-5.3856,-5.5378,-5.7848,-5.7848,-5.7543,-5.7036,-5.7679,-5.5716,-5.1793,-4.9796,0.0,-5.2976,-5.3754,-5.5547,-5.8014,-5.723,-5.6704,-5.6413,-5.6455,-5.6391,-5.6239,-5.7162,-5.8043,-5.8814,-5.8223,-5.6838,-5.4871,-5.2773,-5.1589,-5.1319,-5.1489,-5.2491,-5.4236,-5.5563,-5.542,-5.3852,-5.3546,-5.3407,-5.3376,-5.2795,-5.2474,-5.2503,-5.2086,-5.188,-5.1783,-4.7938,-4.5391,-4.4617,0.0,0.0,0.0,0.0,0.0,0.0,0.0,0.0,0.0,0.0,0.0,0.0,0.0,0.0,-3.4683,-3.8093,0.0,-4.2261,-4.0876,0.0,0.0,0.0,-3.6372,-3.6872,-3.8906,-4.0641,-4.1485,0.0,0.0,-4.5105,-4.5188,-4.4754,-4.3728,-4.4161,-4.4616,-4.4988,-4.5293,-4.5034,-4.406,-4.3855,-4.3546,-4.2844,-4.3294,-4.397,-4.4402,-4.4436,-4.4055,-4.295,-4.266,-4.258,-4.2368,-4.1396,-4.043,-4.0257,-3.9431,-3.8495,-3.733,-3.7035,-3.6864,-3.6647,-3.6517,-3.6343,-5.9805,-5.9492,-5.8015,-5.726,-5.708,-5.6938,-5.7239,-5.7848,-5.7881,-5.8118,-5.849,-5.866,-5.8457,-5.7949,-5.7442,-5.7577,-5.8287,-5.9099,-5.9505,-5.9569,-5.9303,-5.8576,-5.7483,-5.7284,-5.7297,-5.7417,-5.8125,-5.8927,-5.9775,-5.9645,-5.871,-5.7171,-5.6562,-5.4871,-5.2232,-5.4329,-5.5292,-5.4972,-5.5287,-5.5155,-5.4499,-5.439,-5.4297,-5.4157,-5.4144,-5.4098,-5.4082,-5.3554,-5.329,-5.3369,-5.1324,-5.0102,-4.9864,-4.2408,0.0,0.0,0.0,0.0,0.0,0.0,0.0,0.0,0.0,-3.1779,-2.6986,0.0,-3.3814,0.0,-4.3359,-4.5155,-4.265,-4.3309,0.0,0.0,-4.0533,-4.044,-4.2653,-4.2507,-4.3211,-4.5774,-4.6357,-4.6546,-4.6567,-4.6518,-4.6017,-4.4626,-4.5095,-4.5477,-4.5092,-4.5605,-4.5679,-4.4833,-4.4858,-4.4841,-4.4071,-4.454,-4.5254,-4.5729,-4.5817,-4.5732,-4.5367,-4.5367,-4.5037,-4.4065,-4.3568,-4.269,-4.1013,-4.0344,-3.9931,-3.9006,-3.8552,-3.8214,-3.8148,-3.7687,-3.7376,-6.1149,-6.1043,-6.0557,-5.9965,-5.93,-5.9152,-5.897,-5.8863,-5.8863,-5.9133,-5.9505,-5.9505,-5.9708,-6.008,-6.008,-6.008,-6.0148,-6.0926,-6.1061,-6.0617,-6.06,-6.0063,-5.9234,-5.9226,-5.935,-5.9769,-6.0503,-6.1339,-6.2037,-6.1772,-6.1197,-6.0385,-6.0047,-5.8524,-5.5919,-5.6156,-5.6014,-5.5378,-5.5592,-5.5796,-5.5906,-5.5549,-5.4854,-5.3858,-5.4165,-5.3941,-5.3057,-5.3302,-5.3018,-5.214,-5.1281,-5.0821,-5.0787,-4.5792,-4.3265,0.0,0.0,0.0,0.0,0.0,0.0,0.0,0.0,0.0,0.0,0.0,-3.7883,-4.0217,-4.5185,-4.713,-4.4377,-4.5633,-4.6294,-4.5386,-4.4689,-4.4805,-4.6195,-4.5629,-4.5881,-4.7555,-4.7709,-4.7609,-4.7459,-4.7007,-4.6432,-4.5555,-4.544,-4.5312,-4.4966,-4.5284,-4.5316,-4.4731,-4.5148,-4.5598,-4.5522,-4.5917,-4.6401,-4.6878,-4.7029,-4.7029,-4.7029,-4.7029,-4.6759,-4.6032,-4.541,-4.4634,-4.3298,-4.2613,-4.2206,-4.1706,-4.0911,-4.0027,-3.9223,-3.8771,-3.8568,-6.267,-6.2601,-6.1664,-6.1137,-6.1018,-6.1006,-6.0646,-6.008,-6.008,-6.0182,-6.025,-6.0351,-6.0385,-6.0385,-6.0385,-6.0385,-6.0452,-6.1231,-6.1569,-6.1603,-6.1569,-6.1474,-6.1335,-6.148,-6.181,-6.2306,-6.3194,-6.3971,-6.458,-6.3971,-6.3565,-6.3362,-6.2719,-6.1637,-6.0047,-5.7543,-5.6063,-5.5633,-5.6143,-5.6694,-5.7293,-5.6528,-5.527,-5.3608,-5.4041,-5.3519,-5.1874,-5.2773,-5.2482,-5.0574,-5.0236,-5.0123,-5.0113,-4.9192,-4.7735,0.0,-4.4667,0.0,0.0,0.0,0.0,0.0,0.0,0.0,0.0,-4.2611,-4.2701,-4.1294,-4.5633,-4.8117,-4.6997,-4.7997,-4.8668,-4.869,-4.874,-4.8537,-4.806,-4.8016,-4.8066,-4.8167,-4.8217,-4.8195,-4.833,-4.7494,-4.6953,-4.6698,-4.6036,-4.5473,-4.5094,-4.5068,-4.4959,-4.4603,-4.5232,-4.6039,-4.6626,-4.6964,-4.723,-4.7657,-4.7782,-4.7908,-4.792,-4.7857,-4.7883,-4.782,-4.6907,-4.6109,-4.603,-4.5171,-4.4635,-4.4291,-4.328,-4.1992,-4.0414,-3.9571,-3.9537,-6.3612,-6.3579,-6.2889,-6.2673,-6.285,-6.3429,-6.2305,-6.0114,-6.008,-6.0452,-6.1095,-6.1704,-6.1941,-6.1941,-6.1975,-6.1975,-6.2009,-6.2753,-6.3051,-6.3091,-6.3091,-6.3101,-6.3124,-6.3107,-6.3168,-6.3357,-6.405,-6.4478,-6.4613,-6.4444,-6.3768,-6.2618,-6.2448,-6.1637,-6.0148,0.0,0.0,0.0,-5.6328,-5.6385,-5.6518,-5.6303,-5.6007,-5.5661,-5.6304,0.0,-5.6323,-5.5368,-5.471,-5.4387,-5.3154,0.0,0.0,0.0,0.0,0.0,0.0,0.0,0.0,0.0,0.0,0.0,-4.4074,-4.321,-4.241,-4.5765,-4.7189,-4.5484,-4.8013,-4.9956,-5.0272,-5.0511,-5.033,-4.9553,-4.9436,-4.9026,-4.8167,-4.8044,-4.8318,-4.919,-4.9317,-4.9519,-4.9981,-4.9918,-4.941,-4.8425,-4.8055,-4.7649,-4.6965,-4.6293,-4.5996,-4.6359,-4.6482,-4.6515,-4.6524,-4.6939,-4.7291,-4.7305,-4.7657,-4.8057,-4.8382,-4.817,-4.8057,-4.8294,-4.7908,-4.7219,-4.6524,-4.6118,-4.5861,-4.515,-4.4758,-4.3956,-4.2036,-4.0524,-3.9606,-6.5648,-6.5855,-6.486,-6.4358,0.0,-6.4658,-6.3835,-6.2313,-6.2313,-6.255,-6.2956,-6.3328,-6.3463,-6.3497,-6.3463,-6.3463,-6.3531,-6.4647,-6.4952,-6.4613,-6.4986,-6.4956,-6.4631,-6.4214,-6.4248,-6.4631,-6.4956,-6.5324,-6.5662,-6.5324,-6.4749,-6.4038,-6.3666,-6.3091,-6.2308,-6.1521,-6.0142,-5.8222,-5.798,-5.7878,-5.7917,-5.8255,-5.7935,-5.6964,-5.7958,0.0,0.0,0.0,0.0,0.0,0.0,0.0,0.0,-5.0672,0.0,-5.0696,-4.8962,-4.7882,-4.7946,-4.7536,-4.7999,-4.9722,-4.9478,-4.8356,-4.6381,-4.8716,-4.9942,-4.9344,-5.0405,-5.1468,-5.2097,-5.2187,-5.1995,-5.1482,-5.1385,-5.116,-5.0688,-5.0589,-5.0787,-5.1209,-5.1385,-5.1503,-5.1827,-5.1382,-5.0897,-5.0157,-4.9294,-4.8681,-4.8353,-4.7453,-4.6986,-4.7581,-4.746,-4.7418,-4.7606,-4.7809,-4.7966,-4.8032,-4.8636,-4.9191,-4.9267,-4.9367,-4.943,-4.933,-4.9141,-4.8736,-4.8164,-4.7972,-4.7853,-4.7361,-4.6753,-4.5997,-4.4854,-4.3015,-4.1619,-6.7541,-6.7812,-6.6543,-6.5727,-6.5299,-6.5397,-6.5255,-6.4952,-6.4715,0.0,0.0,-6.4613,-6.4613,-6.4613,-6.4613,-6.4613,-6.4681,-6.5865,-6.617,-6.573,-6.6203,-6.6237,-6.5865,-6.5121,-6.5155,-6.5865,-6.5899,-6.6203,-6.6779,-6.6203,-6.5899,-6.5831,-6.529,-6.5019,-6.4904,-6.332,-6.1813,-6.0585,-5.9708,-5.9302,-5.9311,-6.0089,-5.9729,-5.8014,-5.949,-5.9516,-5.7879,-5.7974,-5.6932,-5.439,-5.3878,-5.34,-5.2766,-5.2602,-5.3399,-5.5293,-5.5246,-5.4878,-5.438,-5.4216,-5.3914,-5.3241,-5.3174,-5.2486,-5.0823,-5.1259,-5.1815,-5.248,-5.2414,-5.2624,-5.326,-5.3223,-5.3174,-5.3174,-5.3174,-5.3144,-5.3144,-5.3174,-5.3066,-5.3174,-5.3066,-5.3234,-5.3275,-5.2634,-5.2063,-5.1846,-5.0824,-4.9579,-4.9611,-4.8704,-4.8089,-4.8665,-4.8493,-4.8353,-4.8747,-4.9142,-4.9117,-4.8999,-4.9989,-5.0742,-5.064,-5.0972,-5.1049,-5.0601,-5.0473,-5.0215,-4.9956,-4.9826,-4.9891,-4.9891,-4.8928,-4.8112,-4.7913,-4.6256,-4.457,-6.7904,-6.7354,-6.6639,-6.6107,-6.5761,-6.6186,-6.6438,-6.6373,-6.5155,-6.4613,-6.4613,-6.4613,-6.4613,-6.4613,-6.4613,-6.4613,-6.4613,-6.4816,-6.5189,-6.5662,-6.5155,-6.5527,-6.6576,-6.5899,-6.5933,-6.6609,-6.6677,-6.6711,-6.6779,-6.6711,-6.6677,-6.6643,-6.6542,-6.6474,-6.6382,-6.4772,-6.3812,-6.3505,-6.022,-5.8462,-5.8464,-5.9426,-5.9819,-5.9581,-6.1173,-6.1959,-6.1637,-5.9918,-5.8725,-5.8235,-5.6494,-5.5417,-5.5217,-5.5122,-5.5271,-5.5498,-5.5246,-5.5082,-5.4946,-5.4389,-5.3758,-5.3271,-5.3174,-5.3054,-5.2815,-5.2845,-5.3128,-5.3633,-5.3345,-5.3278,-5.3784,-5.3525,-5.3313,-5.3234,-5.3204,-5.3174,-5.3234,-5.3264,-5.3264,-5.3264,-5.3174,-5.3473,-5.4012,-5.3953,-5.376,-5.3583,-5.3129,-5.2607,-5.1208,-5.0017,-4.9481,-4.9697,-4.9676,-4.9435,-4.9276,-4.9921,-5.0158,-4.9811,-5.0924,-5.1831,-5.1895,-5.2065,-5.209,-5.1958,-5.1685,-5.1383,-5.1103,-5.1046,-5.0946,-5.0921,-5.0539,-5.0498,-5.0431,-4.9377,-4.7848,-6.8921,-6.8621,-6.7971,-6.7472,-6.72,-6.7559,-6.7584,-6.7387,-6.7151,-6.6576,-6.5831,-6.5797,-6.5797,-6.5797,-6.5797,-6.5797,-6.5831,-6.6203,-6.6339,-6.6305,-6.6373,-6.6542,-6.6812,-6.6846,-6.7083,-6.7421,-6.7861,-6.8064,-6.803,-6.8064,-6.8064,-6.803,-6.7624,-6.7218,-6.6762,-6.5459,-6.4617,-6.4124,-6.1376,-5.9906,-5.9875,-6.1244,-6.1949,-6.1949,-6.34,-6.4174,-6.4174,-6.2845,-6.1599,-6.0529,-5.9366,-5.8292,-5.7281,-5.6874,-5.6721,-5.6791,-5.6762,-5.6696,-5.6584,-5.6195,-5.5862,-5.5631,-5.51,-5.479,-5.482,-5.3852,-5.3451,-5.4055,-5.4134,-5.4285,-5.4647,-5.4647,-5.4548,-5.4301,-5.4251,-5.4281,-5.4281,-5.4281,-5.4281,-5.4281,-5.4281,-5.4521,-5.5209,-5.5269,-5.5406,-5.556,-5.5312,-5.4327,-5.2631,-5.1902,-5.1115,-5.0284,-5.0098,-4.9992,-4.9685,-5.0333,-5.0743,-5.0429,-5.1606,-5.2418,-5.2575,-5.2763,-5.2945,-5.2633,-5.2305,-5.1976,-5.1671,-5.1405,-5.1339,-5.1272,-5.1272,-5.1272,-5.1206,-5.0846,-4.9388,-6.9628,-6.954,-6.8948,-6.8656,-6.8591,-6.8747,-6.8693,-6.8556,-6.9122,-6.8774,-6.7861,-6.732,-6.7151,-6.732,-6.7151,-6.7151,-6.7387,-6.7929,-6.7861,-6.7421,-6.7895,-6.7861,-6.7455,-6.7929,-6.8166,-6.8233,-6.8808,-6.9079,-6.9079,-6.9079,-6.9079,-6.9011,-6.8301,-6.7624,-6.7007,-6.5955,-6.5114,-6.4479,-6.281,-6.1683,-6.1359,-6.302,-6.3891,-6.3998,-6.52,-6.5967,-6.5899,-6.5099,-6.3951,-6.246,-6.1573,-6.0508,-5.9207,-5.8435,-5.8153,-5.8358,-5.8414,-5.8257,-5.7974,-5.7831,-5.7725,-5.7592,-5.6934,-5.6479,-5.6308,-5.4999,-5.4241,-5.478,-5.5318,-5.569,-5.5913,-5.6104,-5.6154,-5.578,-5.5679,-5.5628,-5.5628,-5.5628,-5.5598,-5.5628,-5.5628,-5.5837,-5.6226,-5.6428,-5.6526,-5.678,-5.6409,-5.5304,-5.409,-5.367,-5.2714,-5.1395,-5.0766,-5.0658,-5.0479,-5.1076,-5.1448,-5.125,-5.2394,-5.3044,-5.3144,-5.3629,-5.3817,-5.336,-5.3071,-5.2726,-5.2317,-5.2009,-5.1859,-5.1842,-5.18,-5.1724,-5.1749,-5.1749,-5.0598,-6.9505,-6.8844,-6.8809,-6.8856,-6.9153,-6.9529,-6.9876,-7.0231,-7.0148,-7.0432,-7.0635,-6.8741,-6.8267,-6.8741,-6.8166,-6.8233,-6.8842,-6.8977,-6.8944,-6.8876,-6.8944,-6.8944,-6.8842,-6.8944,-6.9011,-6.8977,-6.9113,-6.9248,-6.9214,-6.918,-6.9113,-6.9011,-6.8301,-6.7895,-6.764,-6.643,-6.5658,-6.5537,-6.4479,-6.3148,-6.1784,-6.326,-6.4156,-6.4203,-6.5821,-6.6711,-6.6669,-6.542,-6.4634,-6.4231,-6.2243,-6.1078,-6.1017,-6.0202,-5.9676,-5.9676,-5.9527,-5.9148,-5.8449,-5.8359,-5.8166,-5.7643,-5.7592,-5.7346,-5.7109,-5.6825,-5.6672,-5.6779,-5.7111,-5.7404,-5.7943,-5.7658,-5.7342,-5.7127,-5.6951,-5.6915,-5.6855,-5.6915,-5.6915,-5.6915,-5.6765,-5.6944,-5.6974,-5.7064,-5.7094,-5.7274,-5.6752,-5.6109,-5.5645,-5.5041,-5.4205,-5.3048,-5.23,-5.1747,-5.1652,-5.2144,-5.2425,-5.2527,-5.3396,-5.391,-5.4092,-5.4419,-5.4823,-5.4244,-5.42,-5.3839,-5.3445,-5.3326,-5.3113,-5.2596,-5.2578,-5.2703,-5.2754,-5.2678,-5.155,-7.0175,-6.9589,-6.9927,-7.0,-7.0049,-7.098,-7.1405,-7.1445,-7.21,-7.2553,-7.261,-7.1232,-7.05,-7.0398,-7.006,-6.9891,-6.9755,-7.0195,-7.0161,-6.9789,-6.9755,-6.9755,-6.9722,-6.9755,-6.9755,-6.9789,-7.0195,-7.0398,-7.0398,-7.0398,-7.0195,-6.9755,-6.9417,-6.9045,-6.8639,-6.7998,-6.7523,-6.7045,-6.6651,-6.5914,-6.4948,-6.5223,-6.5745,-6.6311,-6.749,-6.7929,-6.7446,-6.6862,-6.6105,-6.5072,-6.3412,-6.2326,-6.1816,-6.0757,-6.0153,-6.0137,-6.0321,-6.0384,-6.0338,-6.0166,-5.9963,-5.9737,-5.8927,-5.8477,-5.8632,-5.8113,-5.794,-5.8502,-5.8298,-5.7922,-5.7716,-5.7819,-5.7849,-5.7437,-5.7146,-5.7124,-5.7094,-5.7124,-5.7094,-5.7094,-5.7094,-5.7274,-5.7663,-5.8052,-5.8261,-5.8291,-5.794,-5.7557,-5.7042,-5.6657,-5.582,-5.4566,-5.3896,-5.3261,-5.2625,-5.268,-5.2977,-5.3275,-5.3823,-5.4293,-5.4352,-5.4747,-5.5006,-5.4872,-5.4712,-5.4376,-5.3878,-5.3614,-5.341,-5.3067,-5.2861,-5.2861,-5.2861,-5.2861,-5.2379,-7.0802,-7.0535,-7.1041,-7.1255,-7.1283,-7.2437,-7.2932,-7.3098,-7.3969,-7.4412,-7.4456,-7.3729,-7.3083,-7.2496,-7.1921,-7.1312,-7.0939,-7.1582,-7.1515,-7.0872,-7.0973,-7.1007,-7.0804,-7.0804,-7.0703,-7.0601,-7.1041,-7.1278,-7.1312,-7.1312,-7.1007,-7.0534,-7.0297,-6.9925,-6.9451,-6.9214,-6.8816,-6.8339,-6.8294,-6.8135,-6.7824,-6.7542,-6.75,-6.7787,-6.8606,-6.8808,-6.8267,-6.7996,-6.7324,-6.6068,-6.4572,-6.3453,-6.2805,-6.1504,-6.0769,-6.0752,-6.0998,-6.1377,-6.173,-6.1452,-6.135,-6.1268,-6.0248,-5.9725,-5.988,-5.9331,-5.9227,-5.987,-5.9491,-5.8807,-5.8209,-5.8365,-5.8313,-5.7843,-5.7685,-5.7633,-5.7663,-5.7633,-5.7693,-5.7633,-5.7782,-5.7812,-5.8321,-5.877,-5.9009,-5.9009,-5.9039,-5.8936,-5.8305,-5.8026,-5.7555,-5.6191,-5.5902,-5.4951,-5.3407,-5.3058,-5.3322,-5.3619,-5.4011,-5.432,-5.4427,-5.493,-5.5232,-5.5206,-5.4913,-5.4645,-5.4241,-5.3861,-5.3478,-5.3067,-5.2861,-5.2861,-5.2861,-5.2861,-5.2861,-7.0967,-7.1106,-7.1837,-7.2528,-7.3183,-7.3599,-7.4437,-7.5307,-7.5401,-7.5571,-7.5931,-7.5837,-7.5743,-7.5202,-7.3308,-7.236,-7.2394,-7.3071,-7.3003,-7.2394,-7.2935,-7.2935,-7.2326,-7.2293,-7.1921,-7.121,-7.1244,-7.1312,-7.1312,-7.1312,-7.1312,-7.121,-7.0567,-7.0195,-7.006,-6.9553,-6.9103,-6.9117,-6.9117,-6.9353,-6.9893,-7.0005,-6.9323,-6.8326,-6.8762,-6.9147,-6.8977,-6.8335,-6.7852,-6.7775,-6.549,-6.4309,-6.4262,-6.2843,-6.1878,-6.1891,-6.1721,-6.1761,-6.2084,-6.1897,-6.1701,-6.172,-6.135,-6.1021,-6.0866,-6.0659,-6.0576,-6.0784,-6.0846,-6.0609,-6.0193,-5.9705,-5.9418,-5.9258,-5.9081,-5.8943,-5.8949,-5.88,-5.9009,-5.8919,-5.889,-5.889,-5.9009,-5.9069,-5.9189,-5.9189,-5.9129,-5.9135,-5.92,-5.9056,-5.8855,-5.8451,-5.7797,-5.668,-5.4286,-5.3734,-5.3734,-5.3788,-5.4119,-5.4453,-5.4837,-5.5199,-5.5458,-5.5564,-5.5405,-5.5139,-5.4645,-5.4106,-5.3657,-5.3247,-5.2998,-5.2929,-5.2861,-5.2861,-5.2861,-7.2046,-7.2528,-7.3135,-7.358,-7.392,-7.487,-7.5558,-7.5987,-7.621,-7.6371,-7.6473,-7.6262,-7.6075,-7.5913,-7.4945,-7.4255,-7.3916,-7.4559,-7.4525,-7.3883,-7.4086,-7.3815,-7.3105,-7.2631,-7.2022,-7.1413,-7.1312,-7.1312,-7.1312,-7.1312,-7.1312,-7.1278,-7.1041,-7.0906,-7.0838,-7.0669,-7.05,-7.05,-7.05,-7.0635,-7.0838,-7.0906,-7.0602,-7.0142,-7.0366,-7.0297,-6.9823,-6.9519,-6.8944,-6.7963,-6.6557,-6.5474,-6.4577,-6.3084,-6.2386,-6.2613,-6.2543,-6.2652,-6.3007,-6.2945,-6.2882,-6.2891,-6.2505,-6.2207,-6.2105,-6.1618,-6.136,-6.1648,-6.1485,-6.1357,-6.1421,-6.0936,-6.0377,-5.9872,-5.966,-5.9506,-5.9207,-5.9099,-5.9099,-5.9159,-5.9428,-5.9578,-5.9368,-5.9458,-5.9727,-5.9727,-5.9727,-5.9907,-6.0266,-6.0386,-6.0083,-5.9587,-5.9448,-5.89,-5.7036,-5.5391,-5.4616,-5.4329,-5.4396,-5.4922,-5.5415,-5.5693,-5.5935,-5.5972,-5.5867,-5.5642,-5.5065,-5.4525,-5.4065,-5.3742,-5.3468,-5.3181,-5.2861,-5.308,-5.303,-7.3021,-7.3676,-7.4073,-7.4468,-7.4937,-7.5811,-7.6267,-7.6455,-7.6802,-7.7056,-7.7011,-7.6505,-7.6407,-7.6734,-7.6374,-7.6028,-7.5676,-7.5743,-7.5303,-7.4661,-7.483,-7.4424,-7.3544,-7.2969,-7.2259,-7.1515,-7.1582,-7.1751,-7.1954,-7.1785,-7.165,-7.1684,-7.1447,-7.1312,-7.1312,-7.1312,-7.1312,-7.1312,-7.1312,-7.1312,-7.1312,-7.1312,-7.1312,-7.1312,-7.1312,-7.1109,-7.0567,-7.0331,-6.9755,-6.8688,-6.7713,-6.6407,-6.4691,-6.3338,-6.2701,-6.299,-6.3087,-6.3339,-6.3692,-6.3713,-6.3651,-6.3795,-6.3397,-6.3109,-6.3089,-6.2538,-6.2447,-6.2641,-6.2488,-6.2328,-6.2602,-6.2395,-6.1701,-6.0723,-6.0402,-6.024,-5.9812,-5.9787,-5.9787,-5.9877,-6.0176,-6.0176,-5.9907,-6.0176,-6.0386,-6.0416,-6.0416,-6.057,-6.0562,-6.088,-6.0975,-6.0499,-6.082,-6.0706,-5.9707,-5.8554,-5.6748,-5.6115,-5.579,-5.6084,-5.5961,-5.6279,-5.6359,-5.634,-5.6164,-5.5954,-5.5486,-5.4944,-5.4646,-5.4415,-5.4068,-5.3783,-5.3557,-5.3331,-5.3306,-7.3752,-7.4413,-7.4552,-7.5288,-7.6262,-7.66,-7.6814,-7.7258,-7.7316,-7.7674,-7.7904,-7.7078,-7.7324,-7.7986,-7.7428,-7.7372,-7.7363,-7.6299,-7.552,-7.5033,-7.5473,-7.4965,-7.3713,-7.3578,-7.28,-7.1616,-7.209,-7.2766,-7.324,-7.2699,-7.2394,-7.2225,-7.1684,-7.1413,-7.1312,-7.1312,-7.1312,-7.1312,-7.1312,-7.1312,-7.1312,-7.1312,-7.1312,-7.1312,-7.1312,-7.1278,-7.1244,-7.0601,-7.0195,-6.9948,-6.8797,-6.6971,-6.5012,-6.3776,-6.3084,-6.317,-6.3433,-6.3795,-6.4142,-6.3929,-6.396,-6.4142,-6.3845,-6.3671,-6.3651,-6.3536,-6.3631,-6.3817,-6.3756,-6.3693,-6.3985,-6.3985,-6.3316,-6.1813,-6.1467,-6.1333,-6.1091,-6.1044,-6.1074,-6.0984,-6.1044,-6.1104,-6.1074,-6.1074,-6.1104,-6.1104,-6.1104,-6.0827,-6.0406,-6.0894,-6.1337,-6.1585,-6.2027,-6.2321,-6.2145,-6.1723,-5.9753,-5.8181,-5.788,-5.7798,-5.7024,-5.6994,-5.7059,-5.6957,-5.6852,-5.6641,-5.6317,-5.5796,-5.546,-5.5209,-5.4828,-5.4356,-5.4084,-5.3858,-5.3632,-7.399,-7.4793,-7.5673,-7.6434,-7.7257,-7.8162,-7.8648,-7.8775,-7.881,-7.8902,-7.8948,-7.851,-7.8541,-7.8584,-7.7883,-7.7523,-7.7386,-7.6422,-7.6293,-7.6806,-7.6657,-7.5946,-7.5033,-7.4492,-7.3781,-7.2969,-7.3037,-7.324,-7.3443,-7.3274,-7.2935,-7.2428,-7.2191,-7.1785,-7.1379,-7.1312,-7.1312,-7.1312,-7.1312,-7.1312,-7.1312,-7.1312,-7.1312,-7.1312,-7.1312,-7.1312,-7.1278,-7.1075,-7.0737,-7.0229,-6.9782,-6.839,-6.619,-6.504,-6.4425,-6.3963,-6.4022,-6.4243,-6.4645,-6.4583,-6.4545,-6.4621,-6.4552,-6.4429,-6.4346,-6.4337,-6.4382,-6.4464,-6.4549,-6.4675,-6.479,-6.5092,-6.4426,-6.2833,-6.2526,-6.2238,-6.175,-6.1387,-6.1104,-6.1164,-6.1493,-6.1583,-6.1343,-6.1433,-6.1792,-6.1792,-6.1792,-6.1541,-6.1174,-6.1639,-6.2316,-6.2351,-6.3179,-6.3949,-6.3921,-6.3705,-6.255,-6.0448,-5.9552,-5.8693,-5.8011,-5.7557,-5.762,-5.7604,-5.7472,-5.7325,-5.6997,-5.6721,-5.6313,-5.5886,-5.5389,-5.4986,-5.4653,-5.4356,-5.4124,-7.4764,-7.5847,-7.6694,-7.7484,-7.8266,-7.9201,-7.95,-7.95,-7.95,-7.9672,-7.9798,-7.9337,-7.9437,-7.9677,-7.9021,-7.849,-7.8279,-7.793,-7.8095,-7.8337,-7.7009,-7.6048,-7.527,-7.4525,-7.4187,-7.395,-7.3916,-7.4052,-7.4289,-7.4018,-7.368,-7.3274,-7.2969,-7.2597,-7.2157,-7.2124,-7.2124,-7.2124,-7.2124,-7.2124,-7.2056,-7.1853,-7.1718,-7.1684,-7.1447,-7.1312,-7.1312,-7.1312,-7.1109,-7.0591,-7.0108,-6.8777,-6.6953,-6.6076,-6.5294,-6.4661,-6.4683,-6.4971,-6.5211,-6.518,-6.5187,-6.5187,-6.5187,-6.5196,-6.5062,-6.5076,-6.507,-6.5167,-6.525,-6.5396,-6.5543,-6.5687,-6.5263,-6.4173,-6.3595,-6.3128,-6.2521,-6.2104,-6.1938,-6.2002,-6.2241,-6.2211,-6.2091,-6.2121,-6.245,-6.248,-6.248,-6.1934,-6.1733,-6.2145,-6.2529,-6.3,-6.3771,-6.4606,-6.5622,-6.5464,-6.5081,-6.3099,-6.1109,-5.9737,-5.8573,-5.82,-5.8044,-5.8053,-5.8001,-5.7974,-5.7739,-5.745,-5.7099,-5.6515,-5.6034,-5.5685,-5.5303,-5.4935,-5.4676,-7.5854,-7.7371,-7.7544,-7.8321,-7.9408,-7.9672,-7.981,-7.9707,-7.9741,-8.0086,-8.0315,-7.9865,-8.008,-8.0926,-8.0252,-7.9861,-8.0102,-7.9693,-7.9381,-7.8716,-7.721,-7.5737,-7.51,-7.439,-7.4289,-7.4593,-7.4661,-7.4999,-7.5371,-7.4931,-7.4627,-7.439,-7.3815,-7.3477,-7.3274,-7.3409,-7.3308,-7.324,-7.3341,-7.3308,-7.3308,-7.28,-7.2394,-7.2326,-7.1785,-7.1413,-7.1312,-7.1312,-7.1312,-7.112,-7.0062,-6.8958,-6.7671,-6.6835,-6.6007,-6.4964,-6.5388,-6.5575,-6.57,-6.5754,-6.5754,-6.5646,-6.5862,-6.5754,-6.5714,-6.5759,-6.5919,-6.6048,-6.5929,-6.5853,-6.6098,-6.6108,-6.5777,-6.5266,-6.447,-6.3832,-6.3249,-6.3017,-6.2897,-6.2957,-6.3049,-6.3019,-6.2869,-6.2959,-6.2989,-6.2989,-6.2989,-6.2204,-6.1436,-6.1879,-6.2467,-6.3236,-6.3948,-6.4993,-6.5892,-6.6219,-6.5657,-6.3544,-6.1751,-6.0484,-5.905,-5.8561,-5.835,-5.8358,-5.834,-5.8392,-5.8366,-5.7971,-5.7662,-5.7255,-5.6775,-5.6349,-5.5947,-5.5533,-5.5261,-7.5825,-7.7076,-7.8154,-7.9019,-7.9833,-8.0766,-8.119,-8.119,-8.1155,-8.1007,-8.0962,-8.1052,-8.0983,-8.1019,-8.0294,-7.9868,-7.9603,-7.8843,-7.8176,-7.7858,-7.7498,-7.6788,-7.6197,-7.5473,-7.5168,-7.5337,-7.5337,-7.5506,-7.5676,-7.5473,-7.5134,-7.4627,-7.4458,-7.4052,-7.3578,-7.3578,-7.3477,-7.3477,-7.351,-7.3544,-7.351,-7.3341,-7.2902,-7.2394,-7.2225,-7.1853,-7.1413,-7.1312,-7.1312,-7.1312,-7.0963,-6.9936,-6.8422,-6.7979,-6.7125,-6.5816,-6.5598,-6.57,-6.5862,-6.6258,-6.6311,-6.5884,-6.6701,-6.7066,-6.6161,-6.6575,-6.668,-6.6586,-6.6374,-6.6374,-6.6406,-6.6108,-6.5592,-6.4961,-6.4463,-6.3876,-6.3337,-6.3137,-6.3137,-6.3137,-6.3137,-6.3137,-6.3137,-6.3137,-6.3137,-6.3137,-6.3021,-6.2643,-6.1732,-6.1998,-6.2883,-6.3149,-6.383,-6.5053,-6.5981,-6.649,-6.5804,-6.3635,-6.2103,-6.1069,-5.9627,-5.856,-5.8489,-5.847,-5.8444,-5.847,-5.847,-5.8347,-5.807,-5.781,-5.74,-5.6912,-5.6569,-5.6162,-5.5816,-7.658,-7.7789,-7.8659,-7.949,-8.0351,-8.1135,-8.1594,-8.1741,-8.1776,-8.1503,-8.1159,-8.132,-8.1285,-8.0974,-8.0303,-7.9911,-7.9647,-7.8761,-7.8143,-7.773,-7.7616,-7.7271,-7.6753,-7.6082,-7.5676,-7.5676,-7.5676,-7.5676,-7.5676,-7.5676,-7.5439,-7.5168,-7.5067,-7.483,-7.4525,-7.4424,-7.4424,-7.4458,-7.4424,-7.4424,-7.4424,-7.4086,-7.3781,-7.3308,-7.3071,-7.2597,-7.2259,-7.1954,-7.165,-7.1413,-7.1222,-7.0608,-6.9187,-6.8798,-6.7953,-6.6491,-6.6205,-6.6108,-6.6161,-6.6554,-6.6554,-6.6396,-6.7324,-6.7304,-6.6796,-6.7046,-6.7304,-6.6691,-6.6586,-6.6586,-6.6512,-6.6054,-6.5452,-6.4906,-6.4463,-6.4127,-6.3819,-6.3876,-6.3649,-6.3565,-6.3451,-6.3337,-6.3137,-6.3137,-6.3137,-6.3137,-6.3137,-6.2526,-6.191,-6.2615,-6.3084,-6.318,-6.3861,-6.5084,-6.5951,-6.649,-6.5647,-6.3562,-6.1328,-6.0441,-5.9777,-5.8523,-5.8523,-5.8523,-5.8523,-5.8523,-5.8523,-5.8452,-5.8239,-5.7953,-5.7739,-5.7395,-5.6903,-5.6806,-5.6482,-7.7658,-7.8903,-7.906,-7.9798,-8.073,-8.1031,-8.1344,-8.1616,-8.1741,-8.1493,-8.1146,-8.102,-8.0962,-8.0914,-8.0235,-8.0096,-8.0026,-7.9295,-7.8944,-7.8349,-7.7961,-7.7486,-7.7222,-7.634,-7.5838,-7.5757,-7.5676,-7.5676,-7.5676,-7.5676,-7.5676,-7.5574,-7.5608,-7.5676,-7.5439,-7.554,-7.5642,-7.5506,-7.5439,-7.5405,-7.5337,-7.4965,-7.4593,-7.4289,-7.3646,-7.3375,-7.3172,-7.2834,-7.2259,-7.1616,-7.1413,-7.0745,-6.9794,-6.922,-6.8354,-6.7427,-6.6817,-6.648,-6.6617,-6.6691,-6.6796,-6.6901,-6.7593,-6.7593,-6.7213,-6.7491,-6.7644,-6.6638,-6.6586,-6.6533,-6.6374,-6.5969,-6.5538,-6.507,-6.4906,-6.4906,-6.4961,-6.4906,-6.4574,-6.4045,-6.3876,-6.3649,-6.3279,-6.3137,-6.3137,-6.3137,-6.3079,-6.2759,-6.241,-6.2731,-6.291,-6.2913,-6.3862,-6.5144,-6.5862,-6.649,-6.5119,-6.3366,-6.0578,-5.9175,-5.9175,-5.8523,-5.8523,-5.8523,-5.8523,-5.8523,-5.8523,-5.8452,-5.831,-5.8167,-5.7927,-5.7455,-5.6984,-5.7255,-5.7184,-7.7727,-7.8551,-7.9585,-7.9916,-7.9967,-8.1103,-8.1499,-8.1194,-8.1629,-8.1435,-8.1103,-8.0981,-8.0742,-8.0394,-7.9861,-7.9548,-7.9513,-7.9091,-7.8859,-7.9074,-7.8192,-7.8121,-7.7896,-7.7004,-7.6156,-7.5852,-7.5676,-7.5676,-7.5709,-7.5676,-7.5676,-7.5676,-7.5676,-7.5676,-7.5676,-7.5676,-7.5676,-7.5676,-7.5676,-7.5676,-7.5676,-7.554,-7.5168,-7.4695,-7.395,-7.3578,-7.3477,-7.3341,-7.3172,-7.28,-7.1977,-7.1084,-7.0209,-6.9397,-6.8584,-6.7816,-6.7026,-6.667,-6.6691,-6.7109,-6.7523,-6.7491,-6.8369,-6.901,-6.7746,-6.8119,-6.7866,-6.6974,-6.6586,-6.6427,-6.6023,-6.5808,-6.5646,-6.5483,-6.5483,-6.57,-6.5915,-6.5429,-6.4685,-6.4158,-6.3932,-6.3706,-6.3194,-6.3137,-6.3137,-6.3137,-6.3079,-6.2963,-6.2933,-6.2933,-6.2938,-6.2883,-6.3773,-6.4875,-6.5412,-6.5856,-6.4896,-6.3366,-6.0715,-5.8594,-5.8594,-5.8523,-5.8523,-5.8523,-5.8523,-5.8523,-5.8523,-5.8523,-5.8381,-5.8284,-5.8141,-5.7843,-5.7643,-5.7785,-5.7874,-7.8056,-7.8518,-7.9204,-7.9598,-7.993,-8.0489,-8.0833,-8.0996,-8.1008,-8.0782,-8.036,-8.0254,-8.0124,-7.9866,-7.9339,-7.9134,-7.9181,-7.8621,-7.8694,-7.9029,-7.8499,-7.8359,-7.8466,-7.7777,-7.6929,-7.6203,-7.6088,-7.5947,-7.5805,-7.5676,-7.5676,-7.5676,-7.5676,-7.5676,-7.5676,-7.5676,-7.5676,-7.5676,-7.5676,-7.5676,-7.5676,-7.5676,-7.5574,-7.5168,-7.4728,-7.4525,-7.4559,-7.4187,-7.4052,-7.3747,-7.2935,-7.1987,-7.1077,-7.0121,-6.9107,-6.8369,-6.7593,-6.6953,-6.6901,-6.6953,-6.7213,-6.7349,-6.8401,-6.8119,-6.7746,-6.7917,-6.7765,-6.6953,-6.6533,-6.6374,-6.5808,-6.6054,-6.5969,-6.5808,-6.5969,-6.6268,-6.6374,-6.5969,-6.5266,-6.466,-6.4351,-6.3876,-6.3451,-6.3194,-6.3137,-6.3137,-6.3137,-6.3021,-6.3079,-6.3021,-6.3079,-6.3262,-6.3889,-6.4576,-6.5024,-6.5101,-6.4735,-6.3235,-6.1233,-5.9498,-5.8638,-5.8567,-5.8523,-5.8523,-5.8523,-5.8523,-5.8523,-5.8523,-5.8523,-5.8452,-5.8284,-5.8212,-5.8186,-5.8179,-5.8198,-7.8441,-7.8651,-7.8699,-7.9258,-7.9911,-7.974,-8.0076,-8.0653,-8.0421,-8.0124,-7.9581,-7.9433,-7.9546,-7.9332,-7.8848,-7.8904,-7.8952,-7.8605,-7.8632,-7.9095,-7.8632,-7.8524,-7.8608,-7.8311,-7.7627,-7.6713,-7.6495,-7.6182,-7.5805,-7.5676,-7.5676,-7.5676,-7.5676,-7.5676,-7.5676,-7.5676,-7.5676,-7.5676,-7.5676,-7.5676,-7.5676,-7.5676,-7.5642,-7.5574,-7.554,-7.5473,-7.5371,-7.5067,-7.4762,-7.4728,-7.4052,-7.3409,-7.2502,-7.1064,-6.9934,-6.9174,-6.828,-6.7493,-6.708,-6.6985,-6.7028,-6.706,-6.7636,-6.7882,-6.7644,-6.7715,-6.7445,-6.6985,-6.6533,-6.6427,-6.5969,-6.6214,-6.6268,-6.6076,-6.6321,-6.6533,-6.6586,-6.6586,-6.5915,-6.5016,-6.4407,-6.3876,-6.3451,-6.3137,-6.3137,-6.3137,-6.3137,-6.3137,-6.3137,-6.3137,-6.3137,-6.3286,-6.3827,-6.4755,-6.5263,-6.4742,-6.4312,-6.3235,-6.1436,-6.007,-5.8894,-5.8567,-5.8523,-5.8523,-5.8523,-5.8523,-5.8523,-5.8523,-5.8523,-5.8523,-5.8452,-5.8381,-5.8381,-5.8523,-5.847,-7.8574,-7.8616,-7.9155,-7.9186,-7.9064,-7.9758,-7.9944,-7.9756,-8.0019,-8.0185,-8.0069,-7.9613,-7.9396,-7.927,-7.8846,-7.8679,-7.8701,-7.8539,-7.8726,-7.9086,-7.8825,-7.8825,-7.8859,-7.8685,-7.7997,-7.7213,-7.6725,-7.6182,-7.5771,-7.5676,-7.5676,-7.5676,-7.5676,-7.5676,-7.5676,-7.5676,-7.5676,-7.5676,-7.5676,-7.5676,-7.5676,-7.5676,-7.5676,-7.5676,-7.5676,-7.5676,-7.5676,-7.5574,-7.5506,-7.5439,-7.483,-7.4424,-7.377,-7.195,-7.0697,-6.9946,-6.8892,-6.8039,-6.7559,-6.7543,-6.8445,-6.9294,-6.9029,-6.8981,-6.8949,-6.8538,-6.7608,-6.6923,-6.6586,-6.6533,-6.648,-6.6533,-6.6565,-6.6512,-6.6522,-6.6628,-6.6575,-6.6415,-6.5978,-6.485,-6.4326,-6.3876,-6.3451,-6.3137,-6.3137,-6.3137,-6.3137,-6.3137,-6.3137,-6.3137,-6.3137,-6.3318,-6.3647,-6.4695,-6.5652,-6.4767,-6.3988,-6.3093,-6.1611,-6.0291,-5.9236,-5.8709,-5.8523,-5.8437,-5.8489,-5.8523,-5.8523,-5.8523,-5.8523,-5.8523,-5.8523,-5.8523,-5.8523,-5.8523,-5.8523,-7.8574,-7.8616,-7.8947,-7.9074,-7.9104,-7.9299,-7.9434,-7.9428,-7.9395,-7.9402,-7.9332,-7.9101,-7.9002,-7.8941,-7.8782,-7.8574,-7.8644,-7.8939,-7.9084,-7.9191,-7.9469,-7.9417,-7.9216,-7.8972,-7.8168,-7.734,-7.6691,-7.6182,-7.5757,-7.5676,-7.5676,-7.5676,-7.5676,-7.5676,-7.5676,-7.5676,-7.5676,-7.5676,-7.5676,-7.5676,-7.5676,-7.5676,-7.5676,-7.5676,-7.5676,-7.5676,-7.5676,-7.5676,-7.5676,-7.5608,-7.5337,-7.5202,-7.4618,-7.3491,-7.1778,-7.0796,-6.9837,-6.8857,-6.8068,-6.7902,-6.839,-6.8847,-6.864,-6.8536,-6.8638,-6.8076,-6.7419,-6.686,-6.6617,-6.6586,-6.6533,-6.6617,-6.6722,-6.69,-6.691,-6.6749,-6.6448,-6.6176,-6.5466,-6.4666,-6.4463,-6.4045,-6.3279,-6.3137,-6.3137,-6.3137,-6.3137,-6.3137,-6.3137,-6.3137,-6.3137,-6.3258,-6.3558,-6.4306,-6.5293,-6.4987,-6.4043,-6.3062,-6.2081,-6.0675,-5.9365,-5.8815,-5.842,-5.8377,-5.8368,-5.8497,-5.8523,-5.8523,-5.8523,-5.8523,-5.8523,-5.8523,-5.8523,-5.8523,-5.8523,-7.8673,-7.8574,-7.8574,-7.887,-7.9196,-7.8823,-7.8864,-7.9155,-7.8817,-7.8644,-7.8574,-7.8609,-7.8609,-7.8574,-7.8616,-7.8574,-7.8644,-7.9072,-7.9231,-7.9478,-7.9858,-7.9883,-7.9485,-7.9024,-7.8339,-7.7247,-7.6691,-7.6228,-7.5771,-7.5676,-7.5676,-7.5676,-7.5676,-7.5676,-7.5676,-7.5676,-7.5676,-7.5676,-7.5676,-7.5676,-7.5676,-7.5676,-7.5676,-7.5676,-7.5676,-7.5676,-7.5676,-7.5676,-7.5676,-7.5676,-7.5642,-7.5642,-7.5532,-7.4835,-7.3375,-7.1713,-7.1262,-6.9958,-6.8863,-6.8457,-6.875,-6.9107,-6.8426,-6.8277,-6.8155,-6.8012,-6.722,-6.6805,-6.6732,-6.6764,-6.6742,-6.6732,-6.6919,-6.7197,-6.7277,-6.705,-6.6423,-6.5936,-6.5238,-6.4769,-6.461,-6.4132,-6.3339,-6.3137,-6.3137,-6.3137,-6.3137,-6.3137,-6.3137,-6.3137,-6.3166,-6.3199,-6.3468,-6.3977,-6.4695,-6.5353,-6.437,-6.3443,-6.2615,-6.1556,-6.0073,-5.8754,-5.8499,-5.835,-5.8446,-5.8523,-5.8523,-5.8523,-5.8523,-5.8523,-5.8523,-5.8523,-5.8523,-5.8523,-5.8523,-7.9037,-7.8574,-7.8574,-7.8657,-7.8699,-7.8616,-7.8616,-7.8699,-7.8616,-7.8574,-7.8574,-7.8574,-7.8574,-7.8574,-7.8574,-7.8574,-7.8644,-7.8771,-7.9134,-7.9478,-7.9661,-7.9696,-7.933,-7.8935,-7.821,-7.7202,-7.6691,-7.6228,-7.5805,-7.5676,-7.5676,-7.5676,-7.5676,-7.5676,-7.5676,-7.5676,-7.5676,-7.5676,-7.5676,-7.5676,-7.5676,-7.5676,-7.5676,-7.5676,-7.5676,-7.5676,-7.5676,-7.5676,-7.5676,-7.5676,-7.5676,-7.5676,-7.5628,-7.5628,-7.4884,-7.3503,-7.212,-7.0577,-6.9558,-6.9489,-6.9684,-6.9822,-6.9521,-6.9446,-6.9018,-6.8311,-6.7551,-6.7134,-6.7094,-6.7085,-6.7054,-6.7063,-6.7308,-6.7495,-6.761,-6.7131,-6.6517,-6.6226,-6.546,-6.4688,-6.4566,-6.4008,-6.3314,-6.3196,-6.3137,-6.3137,-6.3137,-6.3137,-6.3137,-6.3137,-6.3137,-6.3139,-6.3318,-6.3767,-6.4485,-6.5084,-6.4803,-6.3867,-6.296,-6.2131,-6.0444,-5.9019,-5.8543,-5.8402,-5.8489,-5.8497,-5.8523,-5.8523,-5.8523,-5.8523,-5.8523,-5.8523,-5.8523,-5.8523,-5.8523,-7.9355,-7.8574,-7.8574,-7.8574,-7.8574,-7.8574,-7.8574,-7.8574,-7.8574,-7.8574,-7.8574,-7.8574,-7.8574,-7.8574,-7.8574,-7.8574,-7.8679,-7.8869,-7.9363,-7.9714,-7.981,-7.9801,-7.9599,-7.8805,-7.7857,-7.7181,-7.6461,-7.5994,-7.5757,-7.5676,-7.5676,-7.5676,-7.5676,-7.5676,-7.5676,-7.5676,-7.5676,-7.5676,-7.5676,-7.5676,-7.5676,-7.5676,-7.5676,-7.5676,-7.5676,-7.5676,-7.5676,-7.5676,-7.5676,-7.5676,-7.5676,-7.5676,-7.5676,-7.558,-7.5161,-7.4056,-7.3496,-7.2207,-7.0711,-7.0662,-7.055,-7.0073,-6.9641,-6.9272,-6.902,-6.8477,-6.7828,-6.726,-6.7197,-6.7229,-6.726,-6.7197,-6.7503,-6.7666,-6.7843,-6.7258,-6.6782,-6.6467,-6.5938,-6.519,-6.4475,-6.409,-6.3616,-6.3346,-6.3256,-6.3137,-6.3137,-6.3137,-6.3137,-6.3137,-6.3137,-6.3137,-6.3258,-6.3528,-6.4336,-6.4994,-6.5046,-6.4212,-6.3269,-6.2152,-6.056,-5.9385,-5.8752,-5.8394,-5.8368,-5.8402,-5.8444,-5.8523,-5.8523,-5.8523,-5.8523,-5.8523,-5.8523,-5.8523,-5.8523,-7.9417,-7.8609,-7.8574,-7.8574,-7.8574,-7.8574,-7.8574,-7.8574,-7.8574,-7.8574,-7.8574,-7.8574,-7.8574,-7.8574,-7.8574,-7.8574,-7.8609,-7.9037,-7.9487,-7.9836,-7.9991,-7.9842,-7.9376,-7.8465,-7.7675,-7.7009,-7.6182,-7.5805,-7.5709,-7.5676,-7.5676,-7.5676,-7.5676,-7.5676,-7.5676,-7.5676,-7.5676,-7.5676,-7.5676,-7.5676,-7.5676,-7.5676,-7.5676,-7.5676,-7.5676,-7.5676,-7.5676,-7.5676,-7.5676,-7.5676,-7.5676,-7.5676,-7.5676,-7.5628,-7.5388,-7.472,-7.4489,-7.3683,-7.224,-7.1516,-7.083,-6.9959,-6.9298,-6.9054,-6.8683,-6.8436,-6.821,-6.762,-6.7582,-6.7519,-6.748,-6.7464,-6.7697,-6.7981,-6.8034,-6.7415,-6.6939,-6.6668,-6.6216,-6.5436,-6.484,-6.4663,-6.4186,-6.3647,-6.3348,-6.3196,-6.3137,-6.3137,-6.3137,-6.3137,-6.3137,-6.3137,-6.3169,-6.3348,-6.3887,-6.4517,-6.4687,-6.4527,-6.3565,-6.2492,-6.1065,-5.9616,-5.8569,-5.8289,-5.8298,-5.8376,-5.8523,-5.8523,-5.8523,-5.8523,-5.8523,-5.8523,-5.8523,-5.8523,-5.8523,-7.9134,-7.8574,-7.8574,-7.8574,-7.8574,-7.8574,-7.8574,-7.8574,-7.8574,-7.8574,-7.8574,-7.8574,-7.8574,-7.8574,-7.8574,-7.8574,-7.8574,-7.8644,-7.9072,-7.9355,-7.9452,-7.926,-7.8836,-7.8247,-7.7457,-7.6644,-7.5994,-7.5723,-7.5676,-7.5676,-7.5676,-7.5676,-7.5676,-7.5676,-7.5676,-7.5676,-7.5676,-7.5676,-7.5676,-7.5676,-7.5628,-7.5628,-7.558,-7.558,-7.5628,-7.5676,-7.5676,-7.5628,-7.5676,-7.5676,-7.5676,-7.5676,-7.5676,-7.5676,-7.5484,-7.5388,-7.534,-7.4439,-7.3168,-7.2165,-7.1218,-7.013,-6.9325,-6.8945,-6.8791,-6.8825,-6.8598,-6.8174,-6.8033,-6.8101,-6.8081,-6.81,-6.8219,-6.8215,-6.8168,-6.781,-6.7302,-6.6853,-6.643,-6.5649,-6.5321,-6.5293,-6.4874,-6.4336,-6.3707,-6.3468,-6.3166,-6.3137,-6.3137,-6.3137,-6.3137,-6.3137,-6.3137,-6.3199,-6.3348,-6.3832,-6.4632,-6.4389,-6.3522,-6.279,-6.1893,-6.0361,-5.8377,-5.8271,-5.8236,-5.842,-5.847,-5.8437,-5.8481,-5.847,-5.8523,-5.8523,-5.8523,-5.8523,-5.8452,-7.9099,-7.8609,-7.8574,-7.8574,-7.8574,-7.8574,-7.8574,-7.8574,-7.8574,-7.8574,-7.8574,-7.8574,-7.8574,-7.8574,-7.8574,-7.8574,-7.8574,-7.8574,-7.8939,-7.9099,-7.9084,-7.8868,-7.8464,-7.7879,-7.7148,-7.6483,-7.5947,-7.5676,-7.5676,-7.5676,-7.5676,-7.5676,-7.5676,-7.5676,-7.5676,-7.5676,-7.5676,-7.5676,-7.5676,-7.5676,-7.558,-7.5194,-7.5,-7.4966,-7.4966,-7.4966,-7.5048,-7.5484,-7.558,-7.5676,-7.5676,-7.5676,-7.5676,-7.5676,-7.5676,-7.5676,-7.5628,-7.477,-7.3529,-7.2697,-7.1842,-7.013,-6.9298,-6.8889,-6.8889,-6.8889,-6.8726,-6.8467,-6.851,-6.8515,-6.8307,-6.8365,-6.8551,-6.8495,-6.8325,-6.8025,-6.7755,-6.7334,-6.7034,-6.6492,-6.6312,-6.6161,-6.5652,-6.5054,-6.4395,-6.3797,-6.3408,-6.3137,-6.3137,-6.3137,-6.3137,-6.3137,-6.3137,-6.3258,-6.3438,-6.4098,-6.4785,-6.4158,-6.3421,-6.2527,-6.1566,-5.9833,-5.8253,-5.8243,-5.819,-5.8289,-5.8307,-5.8333,-5.8394,-5.8489,-5.8497,-5.8523,-5.8523,-5.8523,-5.8381,-7.8939,-7.8609,-7.8574,-7.8574,-7.8574,-7.8574,-7.8574,-7.8574,-7.8574,-7.8574,-7.8574,-7.8574,-7.8574,-7.8574,-7.8574,-7.8574,-7.8574,-7.8609,-7.8841,-7.8869,-7.8791,-7.8493,-7.8083,-7.7568,-7.6896,-7.6322,-7.5947,-7.5676,-7.5676,-7.5676,-7.5676,-7.5676,-7.5676,-7.5676,-7.5676,-7.5676,-7.5676,-7.5676,-7.5676,-7.5676,-7.558,-7.5,-7.4522,-7.4572,-7.4572,-7.4572,-7.477,-7.5243,-7.5628,-7.5676,-7.5676,-7.5676,-7.5676,-7.5676,-7.5676,-7.5628,-7.534,-7.4671,-7.3581,-7.2379,-7.1657,-7.0016,-6.9414,-6.9065,-6.8948,-6.8889,-6.876,-6.8598,-6.8705,-6.8758,-6.8528,-6.8652,-6.8803,-6.88,-6.8358,-6.8028,-6.8147,-6.7877,-6.7698,-6.7397,-6.7215,-6.6822,-6.6161,-6.5473,-6.4395,-6.3767,-6.3318,-6.3137,-6.3137,-6.3137,-6.3137,-6.3137,-6.3137,-6.3318,-6.3617,-6.4038,-6.4338,-6.356,-6.2829,-6.1884,-6.0666,-5.9139,-5.8196,-5.8054,-5.8011,-5.8127,-5.8217,-5.821,-5.8385,-5.8489,-5.847,-5.8523,-5.8523,-5.8452,-5.8284,-7.8609,-7.8574,-7.8574,-7.8574,-7.8574,-7.8574,-7.8574,-7.8574,-7.8574,-7.8574,-7.8574,-7.8574,-7.8574,-7.8574,-7.8574,-7.8574,-7.8574,-7.8574,-7.8679,-7.8679,-7.8637,-7.8135,-7.7657,-7.7223,-7.6828,-7.5994,-7.5676,-7.5676,-7.5676,-7.5676,-7.5676,-7.5676,-7.5676,-7.5676,-7.5676,-7.5676,-7.5676,-7.5676,-7.5676,-7.5676,-7.5388,-7.472,-7.4373,-7.4273,-7.4122,-7.4021,-7.4622,-7.5097,-7.5484,-7.5676,-7.5676,-7.5676,-7.5676,-7.5676,-7.5628,-7.5532,-7.4917,-7.4172,-7.3168,-7.1438,-7.0501,-6.999,-6.953,-6.924,-6.9006,-6.8917,-6.8858,-6.8729,-6.888,-6.9058,-6.9003,-6.8945,-6.9003,-6.8858,-6.8417,-6.8388,-6.8417,-6.8417,-6.8179,-6.8119,-6.7729,-6.7245,-6.6582,-6.5802,-6.4515,-6.3737,-6.3258,-6.3137,-6.3137,-6.3137,-6.3137,-6.3137,-6.3137,-6.3226,-6.3438,-6.3797,-6.3803,-6.3058,-6.226,-6.1333,-6.0306,-5.9024,-5.8318,-5.7978,-5.7887,-5.7952,-5.808,-5.8164,-5.8262,-5.8359,-5.8489,-5.8523,-5.8523,-5.8381,-5.8141,-7.8574,-7.8574,-7.8574,-7.8574,-7.8574,-7.8574,-7.8574,-7.8574,-7.8574,-7.8574,-7.8574,-7.8574,-7.8574,-7.8574,-7.8574,-7.8574,-7.8574,-7.8574,-7.8574,-7.8574,-7.8574,-7.8237,-7.7763,-7.7278,-7.6828,-7.6275,-7.5947,-7.5676,-7.5676,-7.5676,-7.5676,-7.5676,-7.5676,-7.5676,-7.5676,-7.5676,-7.5676,-7.5676,-7.5662,-7.5436,-7.4868,-7.4172,-7.3683,-7.3683,-7.3356,-7.3562,-7.4423,-7.4917,-7.5291,-7.5628,-7.5676,-7.5676,-7.5676,-7.5676,-7.5484,-7.5146,-7.4473,-7.3818,-7.2676,-7.1282,-7.0589,-7.0104,-6.9703,-6.9356,-6.924,-6.9006,-6.8948,-6.8948,-6.9065,-6.9123,-6.9006,-6.9151,-6.9182,-6.9006,-6.8713,-6.8889,-6.8948,-6.8772,-6.8654,-6.8595,-6.8417,-6.7336,-6.6462,-6.6012,-6.4874,-6.3917,-6.3438,-6.3139,-6.3079,-6.3137,-6.3137,-6.3137,-6.3137,-6.3137,-6.3228,-6.3558,-6.2941,-6.1906,-6.1421,-6.0938,-5.9914,-5.8838,-5.8461,-5.8064,-5.7914,-5.7771,-5.7861,-5.8016,-5.8117,-5.8174,-5.8254,-5.8455,-5.8463,-5.8205,-5.7927,-7.8574,-7.8574,-7.8574,-7.8574,-7.8574,-7.8574,-7.8574,-7.8574,-7.8574,-7.8574,-7.8574,-7.8574,-7.8574,-7.8574,-7.8574,-7.8574,-7.8574,-7.8574,-7.8574,-7.8574,-7.8574,-7.8279,-7.785,-7.7456,-7.6918,-7.6495,-7.5994,-7.5676,-7.5676,-7.5676,-7.5676,-7.5676,-7.5676,-7.5676,-7.5676,-7.5676,-7.5676,-7.5676,-7.5628,-7.5484,-7.4819,-7.4122,-7.3426,-7.3459,-7.3252,-7.3149,-7.4172,-7.477,-7.5146,-7.5532,-7.5676,-7.5676,-7.5676,-7.558,-7.5436,-7.5048,-7.4172,-7.3304,-7.1852,-7.1203,-7.0645,-7.0476,-6.9875,-6.953,-6.9356,-6.9065,-6.8948,-6.8948,-6.9123,-6.924,-6.924,-6.9414,-6.9356,-6.9123,-6.924,-6.9414,-6.9356,-6.924,-6.9123,-6.9123,-6.8769,-6.7634,-6.6463,-6.5922,-6.5292,-6.4483,-6.3677,-6.3378,-6.3109,-6.3079,-6.3137,-6.3137,-6.3137,-6.3137,-6.3196,-6.3318,-6.2406,-6.0841,-6.0597,-6.064,-5.9517,-5.8491,-5.8368,-5.8164,-5.7952,-5.7757,-5.7744,-5.7795,-5.7937,-5.808,-5.8075,-5.821,-5.8368,-5.8016,-5.7468,-7.8574,-7.8574,-7.8574,-7.8574,-7.8574,-7.8574,-7.8574,-7.8574,-7.8574,-7.8574,-7.8574,-7.8574,-7.8574,-7.8574,-7.8574,-7.8574,-7.8574,-7.8574,-7.8574,-7.8574,-7.8574,-7.8279,-7.798,-7.7544,-7.7189,-7.6599,-7.6135,-7.5899,-7.5757,-7.5709,-7.5709,-7.5676,-7.5676,-7.5676,-7.5676,-7.5676,-7.5676,-7.5676,-7.5676,-7.5484,-7.4917,-7.397,-7.3734,-7.3716,-7.3459,-7.3581,-7.4423,-7.5097,-7.5388,-7.5628,-7.5676,-7.5676,-7.5676,-7.5676,-7.5709,-7.5146,-7.392,-7.2464,-7.1282,-7.0845,-7.0845,-7.0645,-7.0192,-6.9761,-6.9472,-6.9182,-6.9006,-6.8948,-6.9006,-6.9356,-6.9588,-6.9588,-6.9588,-6.9646,-6.9761,-6.9818,-6.9818,-6.9761,-6.9646,-6.953,-6.9182,-6.8201,-6.7004,-6.6252,-6.5741,-6.4724,-6.3977,-6.3498,-6.3258,-6.3137,-6.3137,-6.3137,-6.3137,-6.3137,-6.3169,-6.3228,-6.2203,-6.0722,-6.0638,-6.0494,-5.9302,-5.8429,-5.8359,-5.8174,-5.7978,-5.7757,-5.7611,-5.7665,-5.7861,-5.7899,-5.7875,-5.7937,-5.8117,-5.732,-5.6876,-7.8574,-7.8574,-7.8574,-7.8574,-7.8574,-7.8574,-7.8574,-7.8574,-7.8574,-7.8574,-7.8574,-7.8574,-7.8574,-7.8574,-7.8574,-7.8574,-7.8574,-7.8574,-7.8574,-7.8574,-7.8574,-7.849,-7.8237,-7.7893,-7.7632,-7.7189,-7.6736,-7.6169,-7.6169,-7.5947,-7.5709,-7.5676,-7.5676,-7.5676,-7.5676,-7.5676,-7.5676,-7.5676,-7.5676,-7.5436,-7.4868,-7.3836,-7.3937,-7.4021,-7.3252,-7.3581,-7.4868,-7.5,-7.5243,-7.558,-7.5676,-7.5676,-7.5676,-7.5662,-7.5436,-7.3937,-7.2854,-7.1852,-7.1037,-7.0789,-7.0789,-7.0733,-7.0363,-7.0047,-6.9703,-6.9414,-6.9182,-6.9065,-6.8948,-6.924,-6.953,-6.9588,-6.9761,-6.9933,-7.0047,-7.0047,-7.0104,-7.0161,-7.0047,-6.9875,-6.953,-6.8651,-6.7424,-6.6793,-6.6161,-6.5083,-6.4306,-6.3797,-6.3378,-6.3199,-6.3137,-6.3137,-6.3137,-6.3137,-6.3137,-6.3139,-6.1967,-6.0872,-6.0702,-6.0207,-5.8912,-5.8262,-5.835,-5.82,-5.7978,-5.7598,-5.732,-5.7461,-5.7718,-5.7584,-5.749,-5.7638,-5.7636,-5.6946,-5.6409,-7.8574,-7.8574,-7.8574,-7.8574,-7.8574,-7.8574,-7.8574,-7.8574,-7.8574,-7.8574,-7.8574,-7.8574,-7.8574,-7.8574,-7.8574,-7.8574,-7.8574,-7.8574,-7.849,-7.8322,-7.849,-7.8406,-7.8237,-7.8023,-7.7763,-7.7411,-7.6918,-7.6309,-7.6216,-7.5947,-7.5676,-7.5676,-7.5676,-7.5676,-7.5676,-7.5676,-7.5676,-7.5676,-7.5628,-7.5388,-7.472,-7.3887,-7.4072,-7.4373,-7.3272,-7.3937,-7.5291,-7.5015,-7.5291,-7.5628,-7.5676,-7.5676,-7.5676,-7.5662,-7.4917,-7.3632,-7.294,-7.196,-7.1092,-7.0845,-7.0789,-7.0789,-7.0589,-7.0363,-6.9933,-6.9646,-6.9356,-6.9213,-6.9065,-6.9034,-6.9356,-6.9588,-6.9875,-7.0192,-7.0249,-7.0275,-7.0419,-7.0476,-7.0419,-7.0249,-6.9646,-6.883,-6.8056,-6.7424,-6.6703,-6.5682,-6.4874,-6.4246,-6.3707,-6.3288,-6.3139,-6.3137,-6.3137,-6.3137,-6.3137,-6.2965,-6.1995,-6.1102,-6.0815,-6.0076,-5.8615,-5.8121,-5.8324,-5.819,-5.7925,-5.7638,-5.7358,-5.7347,-5.7447,-5.727,-5.7162,-5.7246,-5.713,-5.6637,-5.619,-7.8574,-7.8574,-7.8574,-7.8574,-7.8574,-7.8574,-7.8574,-7.8574,-7.8574,-7.8574,-7.8574,-7.8574,-7.8574,-7.8574,-7.8574,-7.8574,-7.8574,-7.8574,-7.8483,-7.8015,-7.8279,-7.8322,-7.8151,-7.785,-7.7676,-7.7233,-7.6771,-7.6309,-7.5852,-7.5676,-7.5676,-7.5676,-7.5676,-7.5676,-7.5676,-7.5676,-7.5676,-7.5676,-7.5676,-7.5532,-7.5243,-7.4522,-7.4021,-7.5064,-7.4522,-7.4072,-7.5243,-7.5628,-7.5676,-7.5676,-7.5676,-7.5676,-7.5676,-7.5628,-7.472,-7.3734,-7.3064,-7.2122,-7.1171,-7.0733,-7.0789,-7.0789,-7.0789,-7.0589,-7.0249,-6.9875,-6.9677,-6.9414,-6.9356,-6.9472,-6.9703,-6.9875,-7.0104,-7.0363,-7.0532,-7.0589,-7.0589,-7.0589,-7.0419,-7.0249,-6.9818,-6.9006,-6.8179,-6.7546,-6.7034,-6.6132,-6.5503,-6.4844,-6.4216,-6.3647,-6.3288,-6.3196,-6.3137,-6.3137,-6.3137,-6.285,-6.214,-6.148,-6.0956,-5.9879,-5.8479,-5.819,-5.8307,-5.8154,-5.794,-5.7678,-5.7486,-5.7432,-5.727,-5.6935,-5.6827,-5.6812,-5.6605,-5.6384,-5.6213,-7.8574,-7.8574,-7.8574,-7.8574,-7.8574,-7.8574,-7.8574,-7.8574,-7.8574,-7.8574,-7.8574,-7.8574,-7.8574,-7.8574,-7.8574,-7.8574,-7.8574,-7.8574,-7.8532,-7.8279,-7.8279,-7.8279,-7.8237,-7.785,-7.7588,-7.7411,-7.6964,-7.6216,-7.5805,-7.5676,-7.5676,-7.5676,-7.5676,-7.5676,-7.5676,-7.5676,-7.5676,-7.5676,-7.5532,-7.5532,-7.534,-7.5,-7.4671,-7.5097,-7.472,-7.4572,-7.5388,-7.5676,-7.5676,-7.5676,-7.5676,-7.5676,-7.5676,-7.5676,-7.4819,-7.3529,-7.3012,-7.2144,-7.1227,-7.0676,-7.0645,-7.0789,-7.0789,-7.0789,-7.062,-7.0249,-6.999,-6.9818,-6.9703,-6.9875,-7.0047,-7.0161,-7.0306,-7.0589,-7.0789,-7.0789,-7.0789,-7.0645,-7.0476,-7.0104,-6.9818,-6.9123,-6.8298,-6.7698,-6.7185,-6.6673,-6.6102,-6.5503,-6.4814,-6.4216,-6.3558,-6.3348,-6.3166,-6.3137,-6.3137,-6.2967,-6.235,-6.1516,-6.0942,-5.9676,-5.8274,-5.8322,-5.8394,-5.8154,-5.7861,-5.7705,-5.7569,-5.7447,-5.7231,-5.6816,-5.6785,-5.6915,-5.685,-5.667,-5.6435,-7.8574,-7.8574,-7.8574,-7.8574,-7.8574,-7.8574,-7.8574,-7.8574,-7.8574,-7.8574,-7.8574,-7.8574,-7.8574,-7.8574,-7.8574,-7.8574,-7.8574,-7.8574,-7.8406,-7.8237,-7.8279,-7.8237,-7.8066,-7.7893,-7.7676,-7.75,-7.6645,-7.5947,-7.5723,-7.5676,-7.5676,-7.5676,-7.5676,-7.5676,-7.5676,-7.5676,-7.5676,-7.5676,-7.5436,-7.5194,-7.5097,-7.4522,-7.4423,-7.4671,-7.4622,-7.4671,-7.534,-7.5676,-7.5676,-7.5676,-7.5676,-7.5676,-7.5676,-7.5676,-7.4819,-7.3716,-7.294,-7.2358,-7.1227,-7.0645,-7.0589,-7.0733,-7.0789,-7.0789,-7.0789,-7.0476,-7.0363,-7.0104,-6.9818,-6.9875,-7.0104,-7.0306,-7.0419,-7.0645,-7.0789,-7.0789,-7.0733,-7.0589,-7.0275,-6.999,-6.9588,-6.9065,-6.8358,-6.7939,-6.7427,-6.6883,-6.637,-6.6071,-6.5413,-6.4784,-6.4126,-6.3558,-6.3378,-6.3196,-6.3137,-6.2996,-6.2736,-6.1887,-6.0983,-5.9792,-5.87,-5.8526,-5.8402,-5.8101,-5.7928,-5.7785,-5.7611,-5.7488,-5.7007,-5.6501,-5.6747,-5.7044,-5.6979,-5.685,-5.6616,-7.8574,-7.8574,-7.8574,-7.8574,-7.8574,-7.8574,-7.8574,-7.8574,-7.8574,-7.8574,-7.8574,-7.8574,-7.8574,-7.8574,-7.8574,-7.8574,-7.8574,-7.8574,-7.8322,-7.8237,-7.8322,-7.8279,-7.8237,-7.8151,-7.7676,-7.6975,-7.6228,-7.5899,-7.5676,-7.5676,-7.5676,-7.5676,-7.5676,-7.5676,-7.5676,-7.5676,-7.5676,-7.5484,-7.5146,-7.4572,-7.4122,-7.3683,-7.3937,-7.3937,-7.397,-7.424,-7.5194,-7.5676,-7.5676,-7.5676,-7.5676,-7.5676,-7.5532,-7.5436,-7.4522,-7.3529,-7.2802,-7.1982,-7.1116,-7.0701,-7.0701,-7.0789,-7.0789,-7.0789,-7.0789,-7.0733,-7.0589,-7.0419,-7.0104,-7.0047,-7.0306,-7.0419,-7.0589,-7.0733,-7.0789,-7.0789,-7.0645,-7.0532,-7.0161,-6.9818,-6.9414,-6.8948,-6.8417,-6.809,-6.7608,-6.7063,-6.667,-6.637,-6.5981,-6.5383,-6.4755,-6.4156,-6.3767,-6.3498,-6.3169,-6.2995,-6.2882,-6.2278,-6.1342,-6.0093,-5.9073,-5.8736,-5.8342,-5.8027,-5.7837,-5.7824,-5.7665,-5.7474,-5.6927,-5.6542,-5.6774,-5.7109,-5.685,-5.672,-5.659,-7.8574,-7.8574,-7.8574,-7.8574,-7.8574,-7.8574,-7.8574,-7.8574,-7.8574,-7.8574,-7.8574,-7.8574,-7.8574,-7.8574,-7.8574,-7.8574,-7.8574,-7.8574,-7.8574,-7.8532,-7.8279,-7.8279,-7.8194,-7.7893,-7.7189,-7.6645,-7.6135,-7.5771,-7.5676,-7.5676,-7.5676,-7.5676,-7.5676,-7.5676,-7.5676,-7.5676,-7.5628,-7.5436,-7.4819,-7.4172,-7.3581,-7.3426,-7.3785,-7.4038,-7.4373,-7.4902,-7.5436,-7.5628,-7.5676,-7.5676,-7.5676,-7.5628,-7.5436,-7.5064,-7.4189,-7.322,-7.2485,-7.1743,-7.1005,-7.0645,-7.0645,-7.0789,-7.0789,-7.0789,-7.0789,-7.0789,-7.0701,-7.0701,-7.0532,-7.0532,-7.0645,-7.0645,-7.0789,-7.0789,-7.0789,-7.0757,-7.0645,-7.0476,-7.0161,-6.9818,-6.9472,-6.8889,-6.8209,-6.791,-6.7729,-6.7214,-6.6909,-6.664,-6.655,-6.5981,-6.5323,-6.4725,-6.4126,-6.3617,-6.3199,-6.3109,-6.2911,-6.2339,-6.1576,-6.0137,-5.9142,-5.8648,-5.8307,-5.8054,-5.7978,-5.7952,-5.7758,-5.7515,-5.7315,-5.6995,-5.7039,-5.7136,-5.6785,-5.6432,-5.6236]},{"header":{"parameterUnit":"m.s-1","parameterCategory":1,"la1":31.0,"la2":29.5877,"lo1":-88.7671,"lo2":-86.6584,"dx":0.0162,"dy":0.0185,"nx":115,"ny":88,"refTime":"2022-11-03T18:00:00:Z","depth":0,"parameterNumber":3,"parameterNumberName":"V-component_of_WINDS"},"data":[0.0,0.0,0.0,0.0,0.0,0.0,0.0,0.0,0.0,0.0,0.0,0.0,0.0,0.0,0.0,0.0,0.0,0.0,0.0,0.0,0.0,0.0,0.0,0.0,0.0,0.0,0.0,0.0,0.0,0.0,0.0,0.0,0.0,0.0,0.0,0.0,0.0,0.0,0.0,0.0,0.0,0.0,0.0,0.0,0.0,0.0,0.0,0.0,0.0,0.0,0.0,0.0,0.0,0.0,0.0,0.0,0.0,0.0,0.0,0.0,0.0,0.0,0.0,0.0,0.0,0.0,0.0,0.0,0.0,0.0,0.0,0.0,0.0,0.0,0.0,0.0,0.0,0.0,0.0,0.0,0.0,0.0,0.0,0.0,0.0,0.0,0.0,0.0,0.0,0.0,0.0,0.0,0.0,0.0,0.0,0.0,0.0,0.0,0.0,0.0,0.0,0.0,0.0,0.0,0.0,0.0,0.0,0.0,0.0,0.0,0.0,0.0,0.0,0.0,0.0,0.0,0.0,0.0,0.0,0.0,0.0,0.0,0.0,0.0,0.0,0.0,0.0,0.0,0.0,0.0,0.0,0.0,0.0,0.0,0.0,0.0,0.0,0.0,0.0,0.0,0.0,0.0,0.0,0.0,0.0,0.0,0.0,0.0,0.0,0.0,0.0,0.0,0.0,0.0,0.0,0.0,0.0,0.0,0.0,0.0,0.0,0.0,0.0,0.0,0.0,0.0,0.0,0.0,0.0,0.0,0.0,0.0,0.0,0.0,0.0,0.0,0.0,0.0,0.0,0.0,0.0,0.0,0.0,0.0,0.0,0.0,0.0,0.0,0.0,0.0,0.0,0.0,0.0,0.0,0.0,0.0,0.0,0.0,0.0,0.0,0.0,0.0,0.0,0.0,0.0,0.0,0.0,0.0,0.0,0.0,0.0,0.0,0.0,0.0,0.0,0.0,0.0,0.0,0.0,0.0,0.0,0.0,0.0,0.0,0.0,0.0,0.0,0.0,0.0,0.0,0.0,0.0,0.0,0.0,0.0,0.0,0.0,0.0,0.0,0.0,0.0,0.0,0.0,0.0,0.0,0.0,0.0,0.0,0.0,0.0,0.0,0.0,0.0,0.0,0.0,0.0,0.0,0.0,0.0,0.0,0.0,0.0,0.0,0.0,0.0,0.0,0.0,0.0,0.0,0.0,0.0,0.0,0.0,0.0,0.0,0.0,0.0,0.0,0.0,0.0,0.0,0.0,0.0,0.0,0.0,0.0,0.0,0.0,0.0,0.0,0.0,0.0,0.0,0.0,0.0,0.0,0.0,0.0,0.0,0.0,0.0,0.0,0.0,0.0,0.0,0.0,0.0,0.0,0.0,0.0,0.0,0.0,0.0,0.0,0.0,0.0,0.0,0.0,0.0,0.0,0.0,0.0,0.0,0.0,0.0,0.0,0.0,0.0,0.0,0.0,0.0,0.0,0.0,0.0,0.0,0.0,0.0,0.0,0.0,0.0,0.0,0.0,0.0,0.0,0.0,0.0,0.0,0.0,0.0,0.0,0.0,0.0,0.0,0.0,0.0,0.0,0.0,0.0,0.0,0.0,0.0,0.0,0.0,0.0,0.0,0.0,0.0,0.0,0.0,0.0,0.0,0.0,0.0,0.0,0.0,0.0,0.0,0.0,0.0,0.0,0.0,0.0,0.0,0.0,0.0,0.0,0.0,0.0,0.0,0.0,0.0,0.0,0.0,0.0,0.0,0.0,0.0,0.0,0.0,0.0,0.0,0.0,0.0,0.0,0.0,0.0,0.0,0.0,0.0,0.0,0.0,0.0,0.0,0.0,0.0,0.0,0.0,0.0,0.0,0.0,0.0,0.0,0.0,0.0,0.0,0.0,0.0,0.0,0.0,0.0,0.0,0.0,0.0,0.0,0.0,0.0,0.0,0.0,0.0,0.0,0.0,0.0,0.0,0.0,0.0,0.0,0.0,0.0,0.0,0.0,0.0,0.0,0.0,0.0,0.0,0.0,0.0,0.0,0.0,0.0,0.0,0.0,0.0,0.0,0.0,0.0,0.0,0.0,0.0,0.0,0.0,0.0,0.0,0.0,0.0,0.0,0.0,0.0,0.0,0.0,0.0,0.0,0.0,0.0,0.0,0.0,0.0,0.0,0.0,0.0,0.0,0.0,0.0,0.0,0.0,0.0,0.0,0.0,0.0,0.0,0.0,0.0,0.0,0.0,0.0,0.0,0.0,0.0,0.0,0.0,0.0,0.0,0.0,0.0,0.0,0.0,0.0,0.0,0.0,0.0,0.0,0.0,0.0,0.0,0.0,0.0,0.0,0.0,0.0,0.0,0.0,0.0,0.0,0.0,0.0,0.0,0.0,0.0,0.0,0.0,0.0,0.0,0.0,0.0,0.0,0.0,0.0,0.0,0.0,0.0,0.0,0.0,0.0,0.0,0.0,0.0,0.0,0.0,0.0,0.0,0.0,0.0,0.0,0.0,0.0,0.0,0.0,0.0,0.0,0.0,0.0,0.0,0.0,0.0,0.0,0.0,0.0,0.0,0.0,0.0,0.0,0.0,0.0,0.0,0.0,0.0,0.0,0.0,0.0,0.0,0.0,0.0,0.0,0.0,0.0,0.0,0.0,0.0,0.0,0.0,0.0,0.0,0.0,0.0,0.0,0.0,0.0,0.0,0.0,0.0,0.0,0.0,0.0,0.0,0.0,0.0,0.0,0.0,0.0,0.0,0.0,0.0,0.0,0.0,0.0,0.0,0.0,0.0,0.0,0.0,0.0,0.0,0.0,0.0,0.0,0.0,0.0,0.0,0.0,0.0,0.0,0.0,0.0,0.0,0.0,0.0,0.0,0.0,0.0,0.0,0.0,0.0,0.0,0.0,0.0,0.0,0.0,0.0,0.0,0.0,0.0,0.0,0.0,0.0,0.0,0.0,0.0,0.0,0.0,0.0,0.0,0.0,0.0,0.0,0.0,0.0,0.0,0.0,0.0,0.0,0.0,0.0,0.0,0.0,0.0,0.0,0.0,0.0,0.0,0.0,0.0,0.0,0.0,0.0,0.0,0.0,0.0,0.0,0.0,0.0,0.0,0.0,0.0,0.0,0.0,0.0,0.0,0.0,0.0,0.0,0.0,0.0,0.0,0.0,0.0,0.0,0.0,0.0,0.0,0.0,0.0,0.0,0.0,0.0,0.0,0.0,0.0,0.0,0.0,0.0,0.0,0.0,0.0,0.0,0.0,0.0,0.0,0.0,0.0,0.0,0.0,0.0,0.0,0.0,0.0,0.0,0.0,0.0,0.0,0.0,0.0,0.0,0.0,0.0,0.0,0.0,0.0,0.0,0.0,0.0,0.0,0.0,0.0,0.0,0.0,0.0,0.0,0.0,0.0,0.0,0.0,0.0,0.0,0.0,0.0,0.0,0.0,0.0,0.0,0.0,0.0,0.0,0.0,0.0,0.0,0.0,0.0,0.0,0.0,0.0,0.0,0.0,0.0,0.0,0.0,0.0,0.0,0.0,0.0,0.0,0.0,0.0,0.0,0.0,0.0,0.0,0.0,0.0,0.0,0.0,0.0,0.0,0.0,0.0,0.0,0.0,0.0,0.0,0.0,0.0,0.0,0.0,0.0,0.0,0.0,0.0,0.0,0.0,0.0,0.0,0.0,0.0,0.0,0.0,0.0,0.0,0.0,0.0,0.0,0.0,0.0,0.0,0.0,0.0,0.0,0.0,0.0,0.0,0.0,0.0,0.0,0.0,0.0,0.0,0.0,0.0,0.0,0.0,0.0,0.0,0.0,0.0,0.0,0.0,0.0,0.0,0.0,0.0,0.0,0.0,0.0,0.0,0.0,0.0,0.0,0.0,0.0,0.0,0.0,0.0,0.0,0.0,0.0,0.0,0.0,0.0,0.0,0.0,0.0,0.0,0.0,0.0,0.0,0.0,0.0,0.0,0.0,0.0,0.0,0.0,0.0,0.0,0.0,0.0,0.0,0.0,0.0,0.0,0.0,0.0,0.0,0.0,0.0,0.0,0.0,0.0,0.0,0.0,0.0,0.0,0.0,0.0,0.0,0.0,0.0,0.0,0.0,0.0,0.0,0.0,0.0,0.0,0.0,0.0,0.0,0.0,0.0,0.0,0.0,0.0,0.0,0.0,0.0,0.0,0.0,0.0,0.0,0.0,0.0,0.0,0.0,0.0,0.0,0.0,0.0,0.0,0.0,0.0,0.0,0.0,0.0,0.0,1.8943,0.0,0.0,0.0,1.7786,0.0,0.0,0.0,0.0,0.0,0.0,0.0,0.0,0.0,0.0,0.0,0.0,0.0,0.0,0.0,0.0,0.0,0.0,0.0,0.0,0.0,0.0,0.0,0.0,0.0,0.0,0.0,0.0,0.0,0.0,0.0,0.0,0.0,0.0,0.0,0.0,0.0,0.0,0.0,0.0,0.0,0.0,0.0,0.0,0.0,0.0,0.0,0.0,0.0,0.0,0.0,0.0,0.0,0.0,0.0,0.0,0.0,0.0,0.0,0.0,0.0,0.0,0.0,0.0,0.0,0.0,0.0,0.0,0.0,0.0,0.0,0.0,0.0,0.0,0.0,0.0,0.0,0.0,0.0,0.0,0.0,0.0,0.0,0.0,0.0,0.0,0.0,0.0,0.0,0.0,0.0,0.0,0.0,0.0,0.0,0.0,0.0,0.0,0.0,0.0,0.0,0.0,0.0,0.0,0.0,0.0,0.0,0.0,0.0,0.0,1.872,1.8903,1.9632,1.9304,1.7838,0.0,0.0,0.0,0.0,0.0,0.0,0.0,0.0,0.0,0.0,0.0,0.0,0.0,0.0,0.0,0.0,0.0,0.0,0.0,0.0,0.0,0.0,0.0,0.0,0.0,0.0,0.0,0.0,0.0,0.0,0.0,0.0,0.0,0.0,0.0,0.0,0.0,0.0,0.0,0.0,0.0,0.0,0.0,0.0,0.0,0.0,0.0,0.0,0.0,0.0,0.0,0.0,0.0,0.0,0.0,0.0,0.0,0.0,0.0,0.0,0.0,0.0,0.0,0.0,0.0,0.0,0.0,0.0,0.0,0.0,0.0,0.0,0.0,0.0,0.0,0.0,0.0,0.0,0.0,0.0,0.0,0.0,0.0,0.0,0.0,0.0,0.0,0.0,0.0,0.0,0.0,0.0,0.0,0.0,0.0,0.0,0.0,0.0,0.0,0.0,0.0,0.0,0.0,0.0,0.0,0.0,0.0,0.0,0.0,0.0,0.0,0.0,1.9948,1.9838,1.899,0.0,0.0,0.0,0.0,0.0,0.0,0.0,0.0,0.0,0.0,0.0,0.0,0.0,0.0,0.0,0.0,0.0,0.0,0.0,0.0,0.0,0.0,0.0,0.0,0.0,0.0,0.0,0.0,0.0,0.0,0.0,0.0,0.0,0.0,0.0,0.0,0.0,0.0,0.0,0.0,0.0,0.0,0.0,0.0,0.0,0.0,0.0,0.0,0.0,0.0,0.0,0.0,0.0,0.0,0.0,0.0,0.0,0.0,0.0,0.0,0.0,0.0,0.0,0.0,0.0,0.0,0.0,0.0,0.0,0.0,0.0,0.0,0.0,0.0,0.0,0.0,0.0,0.0,0.0,0.0,0.0,0.0,0.0,0.0,0.0,0.0,0.0,0.0,0.0,0.0,0.0,0.0,0.0,0.0,0.0,0.0,0.0,0.0,0.0,0.0,0.0,0.0,0.0,0.0,0.0,0.0,0.0,0.0,0.0,0.0,1.9439,2.0682,2.0785,0.0,2.1337,0.0,0.0,0.0,0.0,0.0,0.0,0.0,0.0,0.0,0.0,0.0,0.0,0.0,0.0,0.0,0.0,0.0,0.0,0.0,0.0,0.0,0.0,0.0,0.0,0.0,0.0,0.0,0.0,0.0,0.0,0.0,0.0,0.0,0.0,0.0,0.0,0.0,0.0,0.0,0.0,0.0,0.0,0.0,0.0,0.0,0.0,0.0,0.0,0.0,0.0,0.0,0.0,0.0,0.0,0.0,0.0,0.0,0.0,0.0,0.0,0.0,0.0,0.0,0.0,0.0,0.0,0.0,0.0,0.0,0.0,0.0,0.0,0.0,0.0,0.0,0.0,0.0,0.0,0.0,0.0,0.0,0.0,0.0,0.0,0.0,0.0,0.0,0.0,0.0,0.0,0.0,0.0,0.0,0.0,0.0,0.0,0.0,0.0,0.0,0.0,0.0,0.0,0.0,0.0,0.0,0.0,0.0,0.0,0.0,0.0,2.001,2.0885,2.0563,2.0697,0.0,0.0,0.0,0.0,0.0,0.0,0.0,0.0,0.0,0.0,0.0,0.0,0.0,0.0,0.0,0.0,0.0,0.0,0.0,0.0,0.0,0.0,0.0,0.0,0.0,0.0,0.0,0.0,0.0,0.0,0.0,0.0,0.0,0.0,0.0,0.0,0.0,0.0,0.0,0.0,0.0,0.0,0.0,0.0,0.0,0.0,0.0,0.0,0.0,0.0,0.0,0.0,0.0,0.0,0.0,0.0,0.0,0.0,0.0,0.0,0.0,0.0,0.0,0.0,0.0,0.0,0.0,0.0,0.0,0.0,0.0,0.0,0.0,0.0,0.0,0.0,0.0,0.0,0.0,0.0,0.0,0.0,0.0,0.0,0.0,0.0,0.0,0.0,0.0,0.0,0.0,0.0,0.0,0.0,0.0,0.0,0.0,0.0,0.0,0.0,0.0,0.0,0.0,0.0,0.0,0.0,0.0,0.0,0.0,0.0,1.9778,2.067,2.1376,2.1184,2.0933,2.0633,0.0,0.0,0.0,0.0,0.0,0.0,0.0,0.0,0.0,0.0,0.0,0.0,0.0,0.0,0.0,0.0,0.0,0.0,0.0,0.0,0.0,0.0,0.0,0.0,0.0,0.0,0.0,0.0,0.0,0.0,0.0,0.0,0.0,0.0,0.0,0.0,0.0,0.0,0.0,0.0,0.0,0.0,0.0,0.0,0.0,0.0,0.0,0.0,0.0,0.0,0.0,0.0,0.0,0.0,0.0,0.0,0.0,0.0,0.0,0.0,0.0,0.0,0.0,0.0,0.0,0.0,0.0,0.0,0.0,0.0,0.0,0.0,0.0,0.0,0.0,0.0,0.0,0.0,0.0,0.0,0.0,0.0,0.0,0.0,0.0,0.0,0.0,0.0,0.0,0.0,0.0,0.0,0.0,0.0,0.0,0.0,0.0,0.0,0.0,0.0,0.0,0.0,0.0,0.0,0.0,0.0,0.0,0.0,2.0112,2.0632,2.1484,2.2759,2.3238,2.233,0.0,0.0,0.0,0.0,0.0,0.0,0.0,0.0,0.0,0.0,0.0,0.0,0.0,0.0,0.0,0.0,0.0,0.0,0.0,0.0,0.0,0.0,0.0,0.0,0.0,0.0,0.0,0.0,0.0,0.0,0.0,0.0,0.0,0.0,0.0,0.0,0.0,0.0,0.0,0.0,0.0,0.0,0.0,0.0,0.0,0.0,0.0,0.0,0.0,0.0,0.0,0.0,0.0,0.0,0.0,0.0,0.0,0.0,0.0,0.0,0.0,0.0,0.0,0.0,0.0,0.0,0.0,0.0,0.0,0.0,0.0,0.0,0.0,0.0,0.0,0.0,0.0,0.0,0.0,0.0,0.0,0.0,0.0,0.0,0.0,0.0,0.0,0.0,0.0,0.0,0.0,0.0,0.0,0.0,0.0,0.0,0.0,0.0,0.0,0.0,0.0,0.0,0.0,0.0,0.0,0.0,0.0,0.0,0.0,1.7908,2.0205,2.2197,2.3778,2.1945,2.0748,0.0,0.0,0.0,0.0,0.0,0.0,0.0,0.0,0.0,0.0,0.0,0.0,0.0,0.0,0.0,0.0,0.0,0.0,0.0,0.0,0.0,0.0,0.0,0.0,0.0,0.0,0.0,0.0,0.0,0.0,0.0,0.0,0.0,0.0,0.0,0.0,0.0,0.0,0.0,0.0,0.0,0.0,0.0,0.0,0.0,0.0,0.0,0.0,0.0,0.0,0.0,0.0,0.0,0.0,0.0,0.0,0.0,0.0,0.0,0.0,0.0,0.0,0.0,0.0,0.0,0.0,0.0,0.0,0.0,0.0,0.0,0.0,0.0,0.0,0.0,0.0,0.0,0.0,0.0,0.0,0.0,0.0,0.0,0.0,0.0,0.0,0.0,0.0,0.0,0.0,0.0,0.0,0.0,0.0,0.0,0.0,0.0,0.0,0.0,0.0,0.0,0.0,0.0,0.0,0.0,0.0,0.0,0.0,0.0,1.8607,2.1605,2.3489,2.3887,2.1737,2.007,0.0,0.0,0.0,0.0,0.0,0.0,0.0,0.0,0.0,0.0,0.0,0.0,0.0,0.0,0.0,0.0,0.0,0.0,0.0,0.0,0.0,0.0,0.0,0.0,0.0,0.0,0.0,0.0,0.0,0.0,0.0,0.0,0.0,0.0,0.0,0.0,0.0,0.0,0.0,0.0,0.0,0.0,0.0,0.0,0.0,0.0,0.0,0.0,0.0,0.0,0.0,0.0,0.0,0.0,0.0,0.0,0.0,0.0,0.0,0.0,0.0,0.0,0.0,0.0,0.0,0.0,0.0,0.0,0.0,0.0,0.0,0.0,0.0,0.0,0.0,0.0,0.0,0.0,0.0,0.0,0.0,0.0,0.0,0.0,0.0,0.0,0.0,0.0,0.0,0.0,0.0,0.0,0.0,0.0,0.0,0.0,0.0,0.0,0.0,0.0,0.0,0.0,0.0,0.0,0.0,0.0,0.0,0.0,1.8096,2.2692,2.5035,2.5149,2.3129,2.2913,2.0635,0.0,0.0,0.0,0.0,0.0,0.0,0.0,0.0,0.0,0.0,0.0,0.0,0.0,0.0,0.0,0.0,0.0,0.0,0.0,0.0,0.0,0.0,0.0,0.0,0.0,0.0,0.0,0.0,0.0,0.0,0.0,0.0,0.0,0.0,0.0,0.0,0.0,0.0,0.0,0.0,0.0,0.0,0.0,0.0,0.0,0.0,0.0,0.0,0.0,0.0,0.0,0.0,0.0,0.0,0.0,0.0,0.0,0.0,0.0,0.0,0.0,0.0,0.0,0.0,0.0,0.0,0.0,0.0,0.0,0.0,0.0,0.0,0.0,0.0,0.0,0.0,0.0,0.0,0.0,0.0,0.0,0.0,0.0,0.0,0.0,0.0,0.0,0.0,0.0,0.0,0.0,0.0,0.0,0.0,0.0,0.0,0.0,0.0,0.0,0.0,0.0,0.0,0.0,0.0,0.0,0.0,0.0,0.0,0.0,2.1041,2.4425,2.5452,2.3892,2.2475,2.0726,0.0,0.0,0.0,0.0,0.0,0.0,0.0,0.0,0.0,0.0,0.0,0.0,0.0,0.0,0.0,0.0,0.0,0.0,0.0,0.0,0.0,0.0,0.0,0.0,0.0,0.0,0.0,0.0,0.0,0.0,0.0,0.0,0.0,0.0,0.0,0.0,0.0,0.0,0.0,0.0,0.0,0.0,0.0,0.0,0.0,0.0,0.0,0.0,0.0,0.0,0.0,0.0,0.0,0.0,0.0,0.0,0.0,0.0,0.0,0.0,0.0,0.0,0.0,0.0,0.0,0.0,0.0,0.0,0.0,0.0,0.0,0.0,0.0,0.0,0.0,0.0,0.0,0.0,0.0,0.0,0.0,0.0,0.0,0.0,0.0,0.0,0.0,0.0,0.0,0.0,0.0,0.0,0.0,0.0,0.0,0.0,0.0,0.0,0.0,0.0,0.0,0.0,0.0,0.0,0.0,0.0,0.0,0.0,0.0,2.3041,2.6098,2.7205,2.6014,2.3535,2.1482,1.9963,0.0,0.0,0.0,0.0,0.0,0.0,0.0,0.0,0.0,0.0,0.0,0.0,0.0,0.0,0.0,0.0,0.0,0.0,0.0,0.0,0.0,0.0,0.0,0.0,0.0,0.0,0.0,0.0,0.0,0.0,0.0,0.0,0.0,0.0,0.0,0.0,0.0,0.0,0.0,0.0,0.0,0.0,0.0,0.0,0.0,0.0,0.0,0.0,0.0,0.0,0.0,0.0,0.0,0.0,0.0,0.0,0.0,0.0,0.0,0.0,0.0,0.0,0.0,0.0,0.0,0.0,0.0,0.0,0.0,0.0,0.0,0.0,0.0,0.0,0.0,0.0,0.0,0.0,0.0,0.0,0.0,0.0,0.0,0.0,0.0,0.0,0.0,0.0,0.0,0.0,0.0,0.0,0.0,0.0,0.0,0.0,0.0,0.0,0.0,0.0,0.0,0.0,0.0,0.0,0.0,0.0,0.0,0.0,2.774,2.9663,3.0145,2.9096,2.5809,2.2923,0.0,0.0,0.0,0.0,0.0,0.0,0.0,0.0,0.0,0.0,0.0,0.0,0.0,0.0,0.0,0.0,0.0,0.0,0.0,0.0,0.0,0.0,0.0,0.0,0.0,0.0,0.0,0.0,0.0,0.0,0.0,0.0,0.0,0.0,0.0,0.0,0.0,0.0,0.0,0.0,0.0,0.0,0.0,0.0,0.0,0.0,0.0,0.0,0.0,0.0,0.0,0.0,0.0,0.0,0.0,0.0,0.0,0.0,0.0,0.0,0.0,0.0,0.0,0.0,0.0,0.0,0.0,0.0,0.0,0.0,0.0,0.0,0.0,0.0,0.0,0.0,0.0,0.0,0.0,0.0,0.0,0.0,0.0,0.0,0.0,0.0,0.0,0.0,0.0,0.0,0.0,0.0,0.0,0.0,0.0,0.0,0.0,0.0,0.0,0.0,0.0,0.0,0.0,0.0,0.0,0.0,0.0,0.0,0.0,2.9732,3.1806,3.2045,3.0394,2.7466,2.4949,0.0,0.0,0.0,0.0,0.0,0.0,0.0,0.0,0.0,0.0,0.0,0.0,0.0,0.0,0.0,0.0,0.0,0.0,0.0,0.0,0.0,0.0,0.0,0.0,0.0,0.0,0.0,0.0,0.0,0.0,0.0,0.0,0.0,0.0,0.0,0.0,0.0,0.0,0.0,0.0,0.0,0.0,0.0,0.0,0.0,0.0,0.0,0.0,0.0,0.0,0.0,0.0,0.0,0.0,0.0,0.0,0.0,0.0,0.0,0.0,0.0,0.0,0.0,0.0,0.0,0.0,0.0,0.0,0.0,0.0,0.0,0.0,0.0,0.0,0.0,0.0,0.0,0.0,0.0,0.0,0.0,0.0,0.0,0.0,0.0,0.0,0.0,0.0,0.0,0.0,0.0,0.0,0.0,0.0,0.0,0.0,0.0,0.0,0.0,0.0,0.0,0.0,0.0,0.0,0.0,0.0,0.0,0.0,2.773,3.1587,3.3036,3.3394,3.2684,2.9697,2.7097,0.0,0.0,0.0,0.0,0.0,0.0,0.0,0.0,0.0,0.0,0.0,0.0,0.0,0.0,0.0,0.0,0.0,0.0,0.0,0.0,0.0,0.0,0.0,0.0,0.0,0.0,0.0,0.0,0.0,0.0,0.0,0.0,0.0,0.0,0.0,0.0,0.0,0.0,0.0,0.0,0.0,0.0,0.0,0.0,0.0,0.0,0.0,0.0,0.0,0.0,0.0,0.0,0.0,0.0,0.0,0.0,0.0,0.0,0.0,0.0,0.0,0.0,0.0,0.0,0.0,0.0,0.0,0.0,0.0,0.0,0.0,0.0,0.0,0.0,0.0,0.0,0.0,0.0,0.0,0.0,0.0,0.0,0.0,0.0,0.0,0.0,0.0,0.0,0.0,0.0,0.0,0.0,0.0,0.0,0.0,0.0,0.0,0.0,0.0,0.0,0.0,0.0,0.0,0.0,0.0,0.0,0.0,0.0,2.9254,3.2996,3.3617,3.4247,3.5003,3.1985,2.9086,0.0,0.0,0.0,0.0,0.0,0.0,0.0,0.0,0.0,0.0,0.0,0.0,0.0,0.0,0.0,0.0,0.0,0.0,0.0,0.0,0.0,0.0,0.0,0.0,0.0,0.0,0.0,0.0,0.0,0.0,0.0,0.0,0.0,0.0,0.0,0.0,0.0,0.0,0.0,0.0,0.0,0.0,0.0,0.0,0.0,0.0,0.0,0.0,0.0,0.0,0.0,0.0,0.0,0.0,0.0,0.0,0.0,0.0,0.0,0.0,0.0,0.0,0.0,0.0,0.0,0.0,0.0,0.0,0.0,0.0,0.0,0.0,0.0,0.0,0.0,0.0,0.0,0.0,0.0,0.0,0.0,0.0,0.0,0.0,0.0,0.0,0.0,0.0,0.0,0.0,0.0,0.0,0.0,0.0,0.0,0.0,0.0,0.0,0.0,0.0,0.0,0.0,0.0,0.0,0.0,0.0,0.0,0.0,2.9648,3.2983,3.3825,3.4552,3.5309,3.2393,2.974,0.0,0.0,0.0,0.0,0.0,0.0,0.0,0.0,0.0,0.0,0.0,0.0,0.0,0.0,0.0,0.0,0.0,0.0,0.0,0.0,0.0,0.0,0.0,0.0,0.0,0.0,0.0,0.0,0.0,0.0,0.0,0.0,0.0,0.0,0.0,0.0,0.0,0.0,0.0,0.0,0.0,0.0,0.0,0.0,0.0,0.0,0.0,0.0,2.454,0.0,0.0,0.0,0.0,0.0,0.0,0.0,0.0,0.0,0.0,0.0,0.0,0.0,0.0,0.0,0.0,0.0,0.0,0.0,0.0,0.0,0.0,0.0,0.0,0.0,0.0,0.0,0.0,0.0,0.0,0.0,0.0,0.0,0.0,0.0,0.0,0.0,0.0,0.0,0.0,0.0,0.0,0.0,0.0,0.0,0.0,0.0,0.0,0.0,0.0,0.0,0.0,0.0,0.0,0.0,0.0,0.0,0.0,0.0,2.8637,3.1902,3.3031,3.3858,3.442,3.3497,3.1361,0.0,0.0,0.0,0.0,0.0,0.0,0.0,0.0,0.0,0.0,0.0,0.0,0.0,0.0,0.0,0.0,0.0,0.0,0.0,0.0,0.0,0.0,0.0,0.0,0.0,0.0,0.0,0.0,0.0,0.0,0.0,0.0,0.0,0.0,0.0,0.0,0.0,0.0,0.0,0.0,0.0,0.0,0.0,0.0,0.0,0.0,0.0,0.0,0.0,0.0,0.0,0.0,0.0,0.0,0.0,0.0,0.0,0.0,0.0,0.0,0.0,0.0,0.0,0.0,0.0,0.0,0.0,0.0,0.0,0.0,0.0,0.0,0.0,0.0,0.0,0.0,0.0,0.0,0.0,0.0,0.0,0.0,0.0,0.0,0.0,0.0,0.0,0.0,0.0,0.0,0.0,0.0,0.0,0.0,0.0,0.0,0.0,0.0,0.0,0.0,0.0,0.0,0.0,0.0,0.0,0.0,0.0,2.4562,2.7631,3.1084,3.231,3.3218,3.3986,3.4633,3.2814,2.8165,0.0,0.0,0.0,0.0,0.0,0.0,0.0,0.0,0.0,0.0,0.0,0.0,0.0,0.0,0.0,0.0,0.0,0.0,0.0,0.0,0.0,0.0,0.0,0.0,0.0,0.0,0.0,0.0,0.0,0.0,0.0,0.0,0.0,0.0,0.0,0.0,0.0,0.0,2.1366,2.3983,0.0,0.0,0.0,0.0,0.0,0.0,0.0,0.0,2.4969,0.0,0.0,0.0,0.0,0.0,0.0,0.0,0.0,0.0,0.0,0.0,0.0,0.0,0.0,0.0,0.0,0.0,0.0,0.0,0.0,0.0,0.0,0.0,0.0,0.0,0.0,0.0,0.0,0.0,0.0,0.0,0.0,0.0,0.0,0.0,0.0,0.0,0.0,0.0,0.0,0.0,0.0,0.0,0.0,0.0,0.0,0.0,0.0,0.0,0.0,0.0,0.0,0.0,0.0,0.0,0.0,2.373,2.5781,2.8822,3.3015,3.3513,3.4523,3.6081,3.4997,3.2289,2.806,0.0,0.0,0.0,0.0,0.0,0.0,0.0,0.0,0.0,0.0,0.0,0.0,0.0,0.0,0.0,0.0,0.0,0.0,0.0,0.0,0.0,0.0,0.0,0.0,0.0,0.0,0.0,0.0,0.0,0.0,0.0,0.0,0.0,0.0,0.0,0.0,0.0,0.0,0.0,2.6434,2.6976,0.0,0.0,0.0,0.0,0.0,0.0,0.0,0.0,2.6231,0.0,0.0,0.0,0.0,0.0,0.0,0.0,0.0,0.0,0.0,0.0,0.0,0.0,0.0,0.0,0.0,0.0,0.0,0.0,0.0,0.0,0.0,0.0,0.0,0.0,0.0,0.0,0.0,0.0,0.0,0.0,0.0,0.0,0.0,0.0,0.0,0.0,0.0,0.0,0.0,0.0,0.0,0.0,0.0,0.0,0.0,0.0,0.0,0.0,0.0,0.0,0.0,0.0,0.0,0.0,2.2547,2.6023,2.9253,3.231,3.364,3.4792,3.5692,3.5027,3.2429,0.0,0.0,0.0,0.0,0.0,0.0,0.0,0.0,0.0,0.0,0.0,0.0,0.0,0.0,0.0,0.0,0.0,0.0,0.0,0.0,0.0,0.0,0.0,0.0,0.0,0.0,0.0,0.0,0.0,0.0,0.0,0.0,0.0,0.0,0.0,0.0,0.0,0.0,0.0,0.0,2.8349,2.9486,3.0454,0.0,0.0,0.0,0.0,0.0,0.0,2.7179,2.614,0.0,0.0,0.0,0.0,0.0,0.0,0.0,0.0,0.0,0.0,0.0,0.0,0.0,0.0,0.0,0.0,0.0,0.0,0.0,0.0,0.0,0.0,0.0,0.0,0.0,0.0,0.0,0.0,0.0,0.0,0.0,0.0,0.0,0.0,0.0,0.0,0.0,0.0,0.0,0.0,0.0,0.0,0.0,0.0,0.0,0.0,0.0,0.0,0.0,0.0,0.0,0.0,0.0,0.0,0.0,2.1372,2.5832,2.9343,3.1723,3.3727,3.4913,3.526,3.4998,3.2469,0.0,0.0,0.0,0.0,0.0,0.0,0.0,0.0,0.0,0.0,0.0,0.0,0.0,0.0,0.0,0.0,0.0,0.0,0.0,0.0,0.0,0.0,0.0,0.0,0.0,0.0,0.0,0.0,0.0,0.0,0.0,0.0,0.0,0.0,0.0,0.0,0.0,0.0,0.0,0.0,0.0,3.1526,3.227,3.1164,0.0,0.0,0.0,0.0,2.9424,2.8672,0.0,0.0,0.0,0.0,0.0,0.0,0.0,0.0,0.0,0.0,0.0,0.0,0.0,0.0,0.0,0.0,0.0,0.0,0.0,0.0,0.0,0.0,0.0,0.0,0.0,0.0,0.0,0.0,0.0,0.0,0.0,0.0,0.0,0.0,0.0,0.0,0.0,0.0,0.0,0.0,0.0,0.0,0.0,0.0,0.0,0.0,0.0,0.0,0.0,0.0,0.0,0.0,0.0,0.0,0.0,0.0,2.2288,2.5389,2.9093,3.3279,3.4403,3.5531,3.6844,3.5031,3.1719,0.0,0.0,0.0,0.0,0.0,0.0,0.0,0.0,0.0,0.0,0.0,0.0,0.0,0.0,0.0,0.0,0.0,0.0,0.0,0.0,0.0,0.0,0.0,0.0,0.0,0.0,0.0,0.0,0.0,0.0,0.0,0.0,0.0,0.0,0.0,0.0,0.0,0.0,0.0,0.0,0.0,3.1216,3.0746,3.0594,3.0337,0.0,0.0,3.2556,3.4075,3.4873,0.0,0.0,0.0,0.0,0.0,0.0,0.0,0.0,0.0,0.0,0.0,0.0,0.0,0.0,0.0,0.0,0.0,0.0,0.0,0.0,0.0,0.0,0.0,0.0,0.0,0.0,0.0,0.0,0.0,0.0,0.0,0.0,0.0,0.0,0.0,0.0,0.0,0.0,0.0,0.0,0.0,0.0,0.0,0.0,0.0,0.0,0.0,0.0,0.0,0.0,0.0,0.0,0.0,0.0,0.0,2.0625,2.291,2.6922,3.0752,3.4084,3.4651,3.5817,3.7614,3.5228,3.1562,0.0,0.0,0.0,0.0,0.0,0.0,0.0,0.0,0.0,0.0,0.0,0.0,0.0,0.0,0.0,0.0,0.0,0.0,0.0,0.0,0.0,0.0,0.0,0.0,0.0,0.0,0.0,0.0,0.0,0.0,0.0,0.0,0.0,0.0,0.0,0.0,0.0,0.0,0.0,0.0,0.0,0.0,3.2715,3.2791,0.0,0.0,0.0,3.3727,3.3932,0.0,0.0,0.0,0.0,0.0,0.0,0.0,0.0,0.0,0.0,0.0,0.0,0.0,0.0,0.0,0.0,0.0,0.0,0.0,0.0,0.0,0.0,0.0,0.0,0.0,0.0,0.0,0.0,0.0,0.0,0.0,0.0,0.0,0.0,0.0,0.0,0.0,0.0,0.0,0.0,0.0,0.0,0.0,0.0,0.0,0.0,0.0,0.0,0.0,0.0,0.0,0.0,0.0,0.0,0.0,0.0,0.0,2.334,2.8081,3.187,3.4441,3.4823,3.5999,3.7891,3.573,0.0,0.0,0.0,0.0,0.0,0.0,0.0,0.0,0.0,0.0,0.0,0.0,0.0,0.0,0.0,0.0,0.0,0.0,0.0,0.0,0.0,0.0,0.0,0.0,0.0,0.0,0.0,1.4523,0.0,0.0,0.0,0.0,0.0,0.0,0.0,0.0,0.0,0.0,0.0,0.0,0.0,0.0,3.2934,3.4437,3.5091,3.5791,0.0,0.0,3.5399,3.5391,3.6495,3.6206,0.0,0.0,0.0,0.0,0.0,0.0,0.0,0.0,0.0,0.0,0.0,0.0,0.0,0.0,0.0,0.0,0.0,0.0,0.0,0.0,0.0,0.0,0.0,0.0,0.0,0.0,0.0,0.0,0.0,0.0,0.0,0.0,0.0,0.0,0.0,0.0,0.0,0.0,0.0,0.0,0.0,0.0,0.0,0.0,0.0,0.0,0.0,0.0,0.0,0.0,0.0,0.0,0.0,0.0,2.207,2.3828,2.8061,3.1646,3.4333,3.4997,3.6137,3.7916,3.681,3.3413,0.0,0.0,0.0,0.0,0.0,0.0,0.0,0.0,0.0,0.0,0.0,0.0,0.0,0.0,0.0,0.0,0.0,0.0,0.0,0.0,0.0,0.0,0.0,0.0,0.0,0.0,0.0,0.0,0.0,0.0,0.0,0.0,0.0,0.0,0.0,0.0,0.0,0.0,0.0,0.0,0.0,3.2869,3.4464,3.6677,3.8571,0.0,3.8966,3.8979,4.138,4.1463,3.9656,3.4755,0.0,0.0,0.0,0.0,0.0,0.0,0.0,0.0,0.0,0.0,0.0,0.0,0.0,0.0,0.0,0.0,0.0,0.0,0.0,0.0,0.0,0.0,0.0,0.0,0.0,0.0,0.0,0.0,0.0,0.0,0.0,0.0,0.0,0.0,0.0,0.0,0.0,0.0,0.0,0.0,0.0,0.0,0.0,0.0,0.0,0.0,0.0,0.0,0.0,0.0,0.0,0.0,0.0,2.2871,2.459,2.9101,3.2875,3.5647,3.5379,3.641,3.8993,3.7312,3.4324,0.0,0.0,0.0,0.0,0.0,0.0,0.0,0.0,0.0,0.0,0.0,0.0,0.0,0.0,0.0,0.0,0.0,0.0,0.0,0.0,0.0,0.0,0.0,0.0,0.0,0.0,0.0,0.0,2.2473,2.2926,2.124,0.0,0.0,0.0,0.0,0.0,0.0,0.0,0.0,0.0,0.0,3.452,3.6968,3.8388,0.0,0.0,3.9921,3.983,4.0882,4.0543,3.9252,3.6499,3.4815,0.0,0.0,0.0,0.0,0.0,0.0,0.0,0.0,0.0,0.0,0.0,0.0,0.0,0.0,0.0,0.0,0.0,0.0,0.0,0.0,0.0,0.0,0.0,0.0,0.0,0.0,0.0,0.0,0.0,0.0,0.0,0.0,0.0,0.0,0.0,0.0,0.0,0.0,0.0,0.0,0.0,0.0,0.0,0.0,0.0,0.0,0.0,0.0,0.0,0.0,0.0,0.0,2.3555,2.5273,3.0198,3.401,3.6515,3.6297,3.7411,3.9915,3.8316,3.5805,0.0,0.0,0.0,0.0,0.0,0.0,0.0,0.0,0.0,0.0,0.0,0.0,0.0,0.0,0.0,0.0,0.0,0.0,0.0,0.0,0.0,0.0,0.0,0.0,0.0,0.0,0.0,0.0,2.4092,2.385,2.1639,0.0,0.0,0.0,0.0,0.0,0.0,0.0,0.0,0.0,0.0,3.6465,3.8685,3.9545,4.0091,4.0597,3.9962,3.9684,4.0497,4.0034,3.9215,3.8241,0.0,0.0,0.0,0.0,0.0,0.0,0.0,0.0,0.0,0.0,0.0,0.0,0.0,0.0,0.0,0.0,0.0,0.0,0.0,0.0,0.0,0.0,0.0,0.0,0.0,0.0,0.0,1.3516,0.0,0.0,1.2993,0.0,0.0,0.0,0.0,0.0,0.0,0.0,0.0,0.0,0.0,0.0,0.0,0.0,0.0,0.0,0.0,0.0,0.0,0.0,0.0,0.0,0.0,2.4004,2.5742,3.1197,3.4778,3.633,3.7791,3.9323,4.0769,4.0042,3.804,3.4675,0.0,0.0,0.0,0.0,0.0,0.0,0.0,0.0,0.0,0.0,0.0,0.0,0.0,0.0,0.0,0.0,0.0,0.0,0.0,0.0,0.0,0.0,0.0,0.0,0.0,0.0,1.951,2.0985,2.1943,0.0,0.0,0.0,0.0,0.0,0.0,0.0,0.0,0.0,3.1273,3.567,3.867,3.9191,3.9929,4.0433,4.0682,3.9168,3.881,4.1281,4.0916,4.0259,0.0,0.0,0.0,0.0,0.0,0.0,0.0,0.0,0.0,0.0,0.0,0.0,0.0,0.0,0.0,0.0,0.0,0.0,0.0,0.0,0.0,0.0,0.0,0.0,0.0,0.0,0.0,1.7578,1.6882,0.0,0.0,0.0,0.0,0.0,0.0,0.0,0.0,0.0,0.0,0.0,2.702,2.8353,0.0,0.0,0.0,0.0,0.0,0.0,0.0,0.0,0.0,0.0,0.0,0.0,2.4434,2.6339,3.1966,3.5749,3.7259,3.8274,3.9673,4.1365,4.0856,3.8666,3.4806,0.0,0.0,0.0,0.0,0.0,0.0,0.0,0.0,0.0,0.0,0.0,0.0,0.0,0.0,0.0,0.0,0.0,0.0,0.0,0.0,0.0,0.0,0.0,0.0,0.0,2.2467,0.0,0.0,0.0,0.0,0.0,0.0,0.0,0.0,0.0,0.0,0.0,3.1288,3.45,3.6449,3.806,3.9465,3.9885,4.0912,0.0,0.0,0.0,0.0,0.0,0.0,0.0,0.0,0.0,0.0,0.0,0.0,0.0,0.0,4.1534,3.5166,3.4706,3.5729,3.702,0.0,0.0,0.0,0.0,0.0,0.0,0.0,0.0,0.0,0.0,0.0,0.0,0.0,0.0,2.0956,2.0177,2.0059,0.0,0.0,0.0,0.0,0.0,0.0,0.0,0.0,2.749,2.9619,3.0739,3.2498,3.3079,3.2592,3.1775,2.834,0.0,0.0,0.0,0.0,0.0,0.0,0.0,0.0,2.5531,2.8244,3.3397,3.6764,3.8223,3.9326,4.0506,4.1768,4.1414,3.9807,3.6918,3.4591,3.1786,0.0,0.0,0.0,0.0,0.0,0.0,0.0,0.0,0.0,0.0,0.0,0.0,0.0,0.0,0.0,0.0,0.0,0.0,0.0,0.0,0.0,0.0,0.0,2.3986,0.0,0.0,0.0,0.0,0.0,0.0,0.0,0.0,0.0,2.8678,3.1575,3.4674,3.7346,3.8583,3.9328,3.9548,0.0,0.0,0.0,0.0,0.0,0.0,0.0,4.1948,4.3309,4.284,4.303,4.5471,4.7607,4.8578,4.7472,0.0,0.0,4.1687,4.0847,4.1638,4.292,4.3831,4.4482,4.4838,4.5917,4.69,0.0,0.0,0.0,0.0,2.1385,0.0,0.0,0.0,2.4609,2.4095,0.0,2.373,0.0,0.0,0.0,0.0,2.1522,2.429,0.0,0.0,3.1999,3.4503,3.5212,3.5474,3.614,3.7091,3.5602,3.3236,3.0224,2.7373,0.0,0.0,0.0,0.0,0.0,0.0,2.7302,3.1379,3.53,3.791,3.9157,4.0755,4.172,4.2086,4.1849,4.1444,4.0798,3.7072,3.4595,3.372,2.6258,0.0,0.0,0.0,0.0,0.0,0.0,0.0,0.0,0.0,0.0,0.0,0.0,0.0,0.0,0.0,0.0,0.0,0.0,0.0,0.0,2.4582,0.0,0.0,0.0,0.0,0.0,0.0,0.0,0.0,0.0,0.0,3.2537,3.5049,3.767,3.9555,0.0,0.0,0.0,0.0,4.1824,4.1066,3.9968,4.0181,4.2545,4.4297,4.5864,4.7426,0.0,0.0,5.1664,5.2002,5.1773,4.9994,5.2359,5.3994,5.2076,4.9919,4.9092,5.0393,5.0193,5.0158,5.0994,5.2203,5.3482,2.4959,0.0,0.0,0.0,0.0,2.5488,2.668,2.8535,2.8535,2.8066,2.7246,2.707,0.0,0.0,0.0,0.0,0.0,0.0,2.7676,2.9659,3.2987,3.5266,3.6734,3.8654,3.9254,3.8596,3.8146,3.6545,3.3959,3.3007,2.8799,2.1486,0.0,0.0,0.0,0.0,2.8913,3.1996,3.5494,3.791,3.9157,4.0571,4.1573,4.211,4.1995,4.1818,4.1494,3.9918,3.7564,3.4318,3.1113,0.0,0.0,0.0,0.0,0.0,0.0,0.0,0.0,0.0,0.0,0.0,0.0,0.0,0.0,0.0,0.0,0.0,0.0,0.0,2.3828,2.664,2.7544,0.0,0.0,0.0,0.0,0.0,0.0,0.0,0.0,0.0,3.8553,3.8292,3.8424,0.0,0.0,3.9113,3.7924,4.0337,4.2731,4.4001,4.524,0.0,4.9058,4.8297,4.8055,4.9884,5.2457,5.3917,5.3165,5.4454,5.5704,5.5747,5.6265,5.6726,5.7383,5.6128,5.5114,5.5445,5.5857,5.6269,5.6611,5.7352,5.7921,2.8818,2.7177,2.6517,2.713,2.8535,2.8555,2.9668,3.1465,3.1484,3.1094,3.0449,3.0371,2.9043,2.6816,2.6035,0.0,0.0,0.0,2.9609,3.1544,3.3889,3.5892,3.7648,3.9158,3.989,3.9753,3.9213,3.7916,3.5914,3.5728,3.2292,2.5908,0.0,2.5615,2.5391,2.7637,3.0515,3.3876,3.6356,3.8499,4.0247,4.1229,4.1832,4.2176,4.2038,4.1801,4.165,4.0981,3.9454,3.6848,3.4402,3.146,0.0,0.0,0.0,0.0,0.0,0.0,0.0,0.0,0.0,0.0,0.0,2.0941,1.853,0.0,0.0,0.0,2.5335,2.6414,2.8398,3.0105,0.0,0.0,0.0,0.0,0.0,0.0,0.0,3.6376,3.8996,4.114,4.216,4.1382,4.0941,4.1576,4.1479,4.0988,3.9998,0.0,4.4693,4.5985,4.7247,4.8866,5.1053,5.0541,5.0649,5.2997,5.446,5.5472,5.5471,5.6584,5.7634,5.814,5.8323,5.8625,5.9666,5.9251,5.8584,5.817,5.8488,5.8866,5.898,5.9337,5.9611,3.1626,3.1705,2.9222,2.9275,3.1015,3.1094,3.1973,3.3398,3.3398,3.3223,3.293,3.3301,3.2168,2.9978,2.875,0.0,3.0586,3.1035,3.207,3.3579,3.4899,3.6473,3.8051,3.799,3.8847,4.0487,3.9103,3.7784,3.6573,3.6117,3.449,3.168,3.0469,2.9785,2.9629,2.9802,3.2166,3.6669,3.7566,3.9349,4.1979,4.2307,4.2482,4.2457,4.1995,4.1646,4.1483,4.0877,4.0442,4.0185,3.6535,3.4205,3.3545,0.0,0.0,0.0,0.0,0.0,0.0,0.0,0.0,0.0,0.0,0.0,0.0,0.0,0.0,2.9038,3.1964,0.0,3.5382,3.4299,0.0,0.0,0.0,3.4365,3.6711,3.8821,4.0288,4.0768,0.0,0.0,4.3939,4.4021,4.4462,4.558,4.6031,4.5699,4.4114,4.569,4.7249,4.7042,4.7339,4.8151,5.0275,5.1481,5.3104,5.5572,5.6493,5.6642,5.7387,5.7651,5.7807,5.7915,5.8709,5.9379,5.9543,6.0,6.028,5.9308,5.9124,5.9138,5.9365,5.9445,5.9598,3.205,3.2301,3.1664,3.1821,3.2459,3.2708,3.3047,3.3398,3.3418,3.3555,3.3769,3.3867,3.375,3.3457,3.3164,3.3242,3.3652,3.4121,3.4355,3.4479,3.6075,3.7317,3.8138,3.8366,3.8557,3.8728,3.7657,3.6465,3.521,3.5046,3.4325,3.3008,3.2656,3.168,3.0156,3.1367,3.38,3.7254,3.7555,3.9251,4.2484,4.2686,4.2804,4.2982,4.2684,4.1981,4.0846,4.128,4.0983,3.9581,3.9116,3.8271,3.6898,3.0882,0.0,0.0,0.0,0.0,0.0,0.0,0.0,0.0,0.0,2.6666,2.2594,0.0,2.8373,0.0,3.6383,3.7889,3.5708,3.626,0.0,0.0,3.706,3.7794,4.1641,4.2787,4.3023,4.2498,4.3704,4.4753,4.5068,4.5119,4.6017,4.8276,4.6595,4.4787,4.4119,4.6206,4.7822,4.7763,4.9493,5.1131,5.1487,5.2729,5.4171,5.535,5.5581,5.5601,5.5899,5.5899,5.6115,5.6783,5.7165,5.7824,5.912,5.9531,6.0044,6.0788,6.0661,6.0274,6.0315,6.0605,6.0843,3.2685,3.2799,3.2794,3.2983,3.3295,3.3637,3.3875,3.3984,3.3984,3.4141,3.4355,3.4355,3.4473,3.4687,3.4687,3.4687,3.4726,3.5176,3.5254,3.5086,3.5964,3.7078,3.8101,3.7459,3.7628,3.8352,3.7258,3.6403,3.5907,3.5664,3.5332,3.4863,3.4668,3.3789,3.2285,3.2422,3.374,3.6221,3.794,4.0167,4.2899,4.2914,4.2281,4.114,4.1188,4.0188,3.802,3.8815,3.8608,3.7019,3.7344,3.7179,3.6226,3.199,2.9114,0.0,0.0,0.0,0.0,0.0,0.0,0.0,0.0,0.0,0.0,0.0,3.1788,3.3746,3.7914,3.9546,3.7236,3.8291,3.9626,4.0955,4.0503,4.1417,4.461,4.5134,4.4989,4.454,4.5175,4.5676,4.5831,4.6295,4.7146,4.8745,4.778,4.682,4.6666,4.7928,4.8808,4.8816,5.0807,5.2802,5.3536,5.448,5.5299,5.5867,5.6047,5.6047,5.6047,5.6047,5.6221,5.6718,5.7217,5.7775,5.8782,5.9329,5.9859,6.0541,6.0939,6.1197,6.1716,6.2047,6.2173,3.3235,3.3198,3.3047,3.3281,3.3823,3.4165,3.4487,3.4687,3.4687,3.4746,3.4785,3.4844,3.4863,3.4863,3.4863,3.4863,3.4902,3.5351,3.5547,3.5566,3.5547,3.6482,3.814,3.6395,3.6682,3.865,3.741,3.6934,3.7285,3.6934,3.6699,3.6582,3.6211,3.5586,3.4668,3.3223,3.3354,3.5102,3.8586,4.1191,4.288,4.2597,4.1084,3.8592,3.8994,3.7911,3.5072,3.5764,3.5566,3.4274,3.4285,3.4449,3.4603,3.2405,3.0704,0.0,2.7439,0.0,0.0,0.0,0.0,0.0,0.0,0.0,0.0,3.5755,3.583,3.465,3.8291,4.0375,3.9522,4.0275,4.1658,4.3649,4.3885,4.4573,4.6108,4.6267,4.6215,4.611,4.6057,4.6137,4.6165,4.7081,4.7675,4.8252,4.8937,4.9408,4.9754,4.9725,4.9823,5.0194,5.1463,5.3195,5.4955,5.5846,5.6286,5.6795,5.6944,5.7094,5.6982,5.7034,5.7064,5.7116,5.7668,5.8358,5.8519,5.9135,5.9638,5.9992,6.0677,6.1529,6.253,6.302,6.3272,3.3291,3.3185,3.2564,3.3061,3.4302,3.4708,3.4804,3.4707,3.4687,3.4902,3.5273,3.5625,3.5762,3.5762,3.5781,3.5781,3.5801,3.623,3.6494,3.6426,3.6426,3.7262,3.8588,3.7173,3.7302,3.873,3.7728,3.7226,3.7305,3.7207,3.6816,3.6152,3.6055,3.5586,3.4726,0.0,0.0,0.0,3.9349,4.0685,4.0968,3.9791,3.8853,3.8254,3.8697,0.0,3.6055,3.6734,3.6383,3.4732,3.5265,0.0,0.0,0.0,0.0,0.0,0.0,0.0,0.0,0.0,0.0,0.0,3.601,3.6257,3.5508,3.8316,3.9597,3.8165,4.0377,4.2011,4.2183,4.2384,4.3081,4.4325,4.4513,4.5022,4.611,4.6294,4.5952,4.5074,4.4993,4.5178,4.5599,4.5841,4.6786,4.8636,4.933,4.9775,5.0475,5.0299,5.0306,5.0926,5.2078,5.304,5.3757,5.5202,5.6235,5.6376,5.6795,5.7019,5.6898,5.7027,5.7019,5.6921,5.7094,5.7665,5.8227,5.85,5.9097,6.0326,6.0764,6.1058,6.1593,6.2551,6.3229,3.4539,3.4648,3.3854,3.422,0.0,3.5473,3.5749,3.5976,3.5976,3.6113,3.6348,3.6562,3.6641,3.666,3.6641,3.6641,3.668,3.7324,3.75,3.7305,3.7519,3.7881,3.8356,3.7448,3.7468,3.8356,3.7881,3.7715,3.791,3.7715,3.7383,3.6973,3.6758,3.6426,3.6064,3.724,3.813,3.8719,4.0598,4.1954,4.2563,4.1361,3.9911,3.8423,3.827,0.0,0.0,0.0,0.0,0.0,0.0,0.0,0.0,3.5235,0.0,3.5746,3.4204,3.384,3.5155,3.5902,3.7416,4.0084,4.0877,4.0576,3.8919,4.0877,4.1907,4.1404,4.2389,4.3187,4.3714,4.379,4.4017,4.4556,4.4668,4.4866,4.534,4.5451,4.523,4.481,4.4668,4.4771,4.5053,4.5559,4.6333,4.7702,4.876,4.9646,5.04,5.0554,5.0829,5.1926,5.2249,5.3127,5.4524,5.5486,5.6534,5.6989,5.7451,5.7595,5.7684,5.7547,5.7493,5.763,5.7791,5.8082,5.8557,5.8715,5.8962,5.9808,6.0383,6.0764,6.1033,6.2295,6.3329,3.5723,3.5962,3.5103,3.5224,3.601,3.6157,3.6732,3.75,3.7363,0.0,0.0,3.7305,3.7305,3.7305,3.7305,3.7305,3.7344,3.8027,3.8203,3.7949,3.8223,3.8242,3.8027,3.7598,3.7617,3.8027,3.8047,3.8223,3.8555,3.8223,3.8047,3.8008,3.7695,3.7539,3.7661,4.0048,4.101,4.0386,4.1808,4.3184,4.429,4.296,4.0955,3.8398,3.7626,3.6026,3.3501,3.3725,3.3955,3.4069,3.4077,3.4678,3.5843,3.6153,3.6786,3.7824,3.8236,3.9235,4.1164,4.1508,4.2407,4.4477,4.4618,4.4041,4.274,4.3011,4.3382,4.3744,4.3883,4.4059,4.4394,4.456,4.4618,4.4618,4.4618,4.4593,4.4593,4.4618,4.4626,4.4618,4.4626,4.4669,4.4802,4.5553,4.6264,4.6682,4.802,4.9471,5.0155,5.0766,5.1456,5.2415,5.2574,5.3232,5.4977,5.6035,5.6627,5.7244,5.7887,5.8372,5.8512,5.8379,5.8467,5.8855,5.8965,5.9185,5.9404,5.9512,5.9458,5.9458,6.0152,6.0757,6.0914,6.2085,6.3211,3.5537,3.5155,3.4413,3.4505,3.5242,3.5936,3.7017,3.832,3.7617,3.7305,3.7305,3.7305,3.7305,3.7305,3.7305,3.7305,3.7305,3.7422,3.7637,3.791,3.7617,3.7832,3.8437,3.8047,3.8066,3.8457,3.8496,3.8516,3.8555,3.8516,3.8496,3.8476,3.8418,3.8379,3.8616,4.0967,4.2236,4.2133,4.2167,4.228,4.2477,3.9801,3.8201,3.7775,3.6757,3.6043,3.5586,3.5736,3.5898,3.5949,3.6077,3.6941,3.8484,3.8687,3.9424,4.0973,4.1442,4.179,4.2161,4.2877,4.3727,4.4502,4.4618,4.4518,4.4317,4.4342,4.4186,4.382,4.417,4.4311,4.3943,4.4319,4.4636,4.4669,4.4644,4.4618,4.4669,4.4694,4.4694,4.4694,4.4618,4.4869,4.5321,4.5574,4.6221,4.7198,4.7943,4.863,5.0212,5.1344,5.1915,5.2141,5.2807,5.3245,5.3658,5.5079,5.6074,5.5808,5.7433,5.8456,5.8399,5.8978,5.9528,5.9903,5.9984,6.0294,6.0633,6.0835,6.0715,6.0685,6.0902,6.0987,6.1042,6.1798,6.2498,3.5782,3.5342,3.4726,3.4843,3.5449,3.6681,3.7849,3.8906,3.8769,3.8437,3.8008,3.7988,3.7988,3.7988,3.7988,3.7988,3.8008,3.8223,3.8301,3.8281,3.832,3.8418,3.8574,3.8594,3.873,3.8926,3.918,3.9297,3.9277,3.9297,3.9297,3.9277,3.9043,3.8809,3.8739,4.0606,4.1862,4.2543,4.3982,4.4734,4.4711,4.1993,4.0519,4.0519,3.8283,3.7051,3.7051,3.6926,3.7563,3.912,3.883,3.9597,4.1713,4.1607,4.1684,4.2312,4.3065,4.3602,4.3812,4.5,4.5845,4.6063,4.603,4.5974,4.5999,4.5087,4.4653,4.4659,4.4625,4.4749,4.5047,4.5047,4.5166,4.5463,4.5522,4.5547,4.5547,4.5547,4.5547,4.5547,4.5547,4.5748,4.6326,4.6376,4.6698,4.7663,4.8188,4.9239,5.1047,5.1789,5.2129,5.1957,5.2677,5.326,5.328,5.4809,5.5863,5.5884,5.7189,5.8088,5.8262,5.8986,5.9451,5.9884,6.017,6.0455,6.0767,6.0992,6.1048,6.1104,6.1104,6.1104,6.116,6.1408,6.2089,3.5861,3.5432,3.5131,3.536,3.5992,3.7521,3.8667,3.9382,3.9807,3.9707,3.918,3.8867,3.8769,3.8867,3.8769,3.8769,3.8906,3.9219,3.918,3.8926,3.9199,3.918,3.8945,3.9219,3.9355,3.9394,3.9726,3.9883,3.9883,3.9883,3.9883,3.9844,3.9434,3.9043,3.8784,4.0022,4.1084,4.2074,4.4595,4.6271,4.6764,4.423,4.2892,4.2661,3.976,3.8086,3.8047,3.7869,3.8807,4.0951,4.0947,4.1684,4.3512,4.3636,4.3425,4.3281,4.4118,4.4904,4.5396,4.6518,4.7269,4.737,4.7246,4.7182,4.7143,4.615,4.5413,4.556,4.5399,4.55,4.6091,4.6043,4.5982,4.6495,4.6617,4.6677,4.6677,4.6677,4.6652,4.6677,4.6677,4.6853,4.7179,4.7244,4.7431,4.7856,4.8712,4.9905,5.1218,5.1715,5.1801,5.2072,5.2685,5.3383,5.366,5.4653,5.5534,5.5929,5.7053,5.7888,5.8379,5.8782,5.9508,6.018,6.0383,6.0788,6.0986,6.13,6.153,6.1646,6.1732,6.1642,6.1672,6.1672,6.2067,3.5415,3.5078,3.506,3.5653,3.6769,3.8046,3.9032,3.9836,4.0296,4.0664,4.0781,3.9687,3.9414,3.9687,3.9355,3.9394,3.9746,3.9824,3.9805,3.9766,3.9805,3.9805,3.9746,3.9805,3.9844,3.9824,3.9902,3.998,3.9961,3.9941,3.9902,3.9844,3.9434,3.9199,3.9249,3.9915,4.0433,4.0555,4.2074,4.4114,4.6136,4.3885,4.2565,4.2495,3.9941,3.8516,3.8588,3.9017,3.9414,3.9844,4.1491,4.2371,4.2527,4.3539,4.4258,4.4258,4.4654,4.5283,4.6181,4.6421,4.6788,4.7307,4.737,4.7483,4.7708,4.7682,4.7134,4.639,4.6662,4.6797,4.6504,4.6795,4.7059,4.7197,4.747,4.7757,4.7707,4.7757,4.7757,4.7757,4.7631,4.7782,4.7807,4.7883,4.7908,4.8058,4.8793,4.9532,4.9993,5.0657,5.1438,5.213,5.299,5.3585,5.3839,5.4233,5.4883,5.511,5.6762,5.7938,5.8516,5.9648,6.1021,6.0909,6.1262,6.1527,6.2025,6.2436,6.2463,6.2543,6.266,6.281,6.2869,6.278,6.2954,3.5563,3.5076,3.5534,3.6246,3.7246,3.8239,3.9174,3.9909,4.0896,4.1363,4.15,4.0919,4.0703,4.0644,4.0449,4.0351,4.0273,4.0527,4.0508,4.0293,4.0273,4.0273,4.0254,4.0273,4.0273,4.0293,4.0527,4.0644,4.0644,4.0644,4.0527,4.0273,4.0078,3.9863,3.9629,3.9954,4.0372,4.1085,4.1648,4.2805,4.4118,4.2864,4.1985,4.2042,4.0352,3.9219,3.9038,3.9188,3.9622,4.0268,4.1279,4.2138,4.2883,4.3638,4.4005,4.4094,4.4635,4.5399,4.6299,4.6586,4.6848,4.7198,4.74,4.7459,4.7268,4.7905,4.7868,4.6743,4.6685,4.6904,4.7156,4.703,4.7055,4.7558,4.7845,4.7933,4.7908,4.7933,4.7908,4.7908,4.7908,4.8058,4.8385,4.8711,4.8887,4.8912,4.9267,4.9594,5.0245,5.0679,5.1599,5.2924,5.3661,5.3963,5.4257,5.491,5.522,5.553,5.6842,5.8222,5.8541,5.9877,6.1224,6.1344,6.1434,6.1732,6.2116,6.2498,6.2673,6.2963,6.3137,6.3137,6.3137,6.3137,6.2979,3.5881,3.5456,3.61,3.6797,3.7504,3.8414,3.9393,4.0311,4.1318,4.1886,4.2125,4.214,4.2088,4.1855,4.1523,4.1172,4.0957,4.1328,4.1289,4.0918,4.0976,4.0996,4.0879,4.0879,4.082,4.0762,4.1016,4.1152,4.1172,4.1172,4.0996,4.0723,4.0586,4.0371,4.0098,3.9961,4.0334,4.1062,4.1137,4.1549,4.2278,4.1694,4.1465,4.1744,4.0614,3.9726,3.9414,3.9258,3.9558,4.0288,4.1137,4.1999,4.2963,4.387,4.4354,4.4444,4.5033,4.5832,4.6728,4.6835,4.6969,4.7332,4.7496,4.7402,4.7206,4.7832,4.7961,4.7092,4.6689,4.6987,4.7665,4.7474,4.7537,4.8108,4.8297,4.836,4.8385,4.836,4.841,4.836,4.8485,4.851,4.8937,4.9314,4.9515,4.9515,4.954,4.9783,5.0461,5.0664,5.1257,5.309,5.3281,5.3648,5.4585,5.5304,5.5701,5.6011,5.704,5.8251,5.8365,5.9815,6.1073,6.1044,6.1255,6.1494,6.185,6.2234,6.2615,6.2963,6.3137,6.3137,6.3137,6.3137,6.3137,3.616,3.623,3.6603,3.7054,3.749,3.8722,3.9892,4.0995,4.1474,4.2214,4.285,4.3016,4.3181,4.3418,4.2324,4.1777,4.1797,4.2187,4.2148,4.1797,4.2109,4.2109,4.1758,4.1738,4.1523,4.1113,4.1133,4.1172,4.1172,4.1172,4.1172,4.1113,4.0742,4.0527,4.0449,4.0156,3.9997,4.0207,4.0207,4.0344,4.0659,4.0621,4.0936,4.1461,4.0504,3.9922,3.9824,3.9453,3.9273,3.9328,4.1221,4.2263,4.2333,4.4413,4.5683,4.5797,4.609,4.6752,4.7424,4.6961,4.7025,4.7897,4.7609,4.7141,4.734,4.7606,4.7648,4.7383,4.7112,4.7353,4.788,4.824,4.8655,4.8849,4.9246,4.935,4.9464,4.9339,4.9515,4.9439,4.9414,4.9414,4.9515,4.9565,4.9665,4.9665,4.9615,4.973,4.9895,4.9884,5.0601,5.16,5.204,5.228,5.4762,5.5522,5.5522,5.6066,5.7154,5.8394,5.8677,5.9194,6.0126,6.0771,6.0863,6.1104,6.1494,6.1969,6.241,6.2759,6.3021,6.3079,6.3137,6.3137,6.3137,3.6709,3.7054,3.7667,3.7998,3.8276,3.9495,4.0281,4.0722,4.1379,4.1899,4.2281,4.2818,4.3151,4.3278,4.316,4.2871,4.2676,4.3047,4.3027,4.2656,4.2773,4.2617,4.2207,4.1933,4.1582,4.123,4.1172,4.1172,4.1172,4.1172,4.1172,4.1152,4.1016,4.0937,4.0898,4.0801,4.0703,4.0703,4.0703,4.0781,4.0898,4.0937,4.1071,4.1317,4.0934,4.0586,4.0312,4.0137,3.9805,3.9238,4.0686,4.1611,4.2138,4.4274,4.5848,4.6331,4.6491,4.6998,4.7695,4.7648,4.7601,4.8041,4.8287,4.7841,4.7333,4.771,4.7724,4.6772,4.7499,4.8045,4.7772,4.7823,4.8026,4.8592,4.8853,4.9162,4.9461,4.959,4.959,4.964,4.9866,4.9992,4.9816,4.9891,5.0117,5.0117,5.0117,5.0268,5.0569,5.067,5.1089,5.2142,5.2595,5.315,5.4243,5.5149,5.5699,5.6629,5.7698,5.9025,5.9686,5.9855,6.0643,6.1351,6.1235,6.1123,6.1695,6.2173,6.247,6.2646,6.288,6.3378,6.3137,6.3258,6.3199,3.7206,3.7641,3.815,3.8662,3.9114,3.9886,4.0445,4.0759,4.1267,4.1621,4.2031,4.2626,4.3119,4.3414,4.3651,4.3784,4.3691,4.373,4.3476,4.3105,4.3203,4.2969,4.2461,4.2129,4.1719,4.1289,4.1328,4.1426,4.1543,4.1445,4.1367,4.1387,4.125,4.1172,4.1172,4.1172,4.1172,4.1172,4.1172,4.1172,4.1172,4.1172,4.1172,4.1172,4.1172,4.1055,4.0742,4.0605,4.0273,3.9857,4.0586,4.1597,4.2818,4.466,4.608,4.661,4.7002,4.7513,4.8214,4.8121,4.8074,4.8401,4.8537,4.8207,4.7326,4.7987,4.7593,4.6882,4.741,4.826,4.7711,4.7339,4.7666,4.8844,4.9241,4.9438,5.0077,5.0167,5.0167,5.0243,5.0494,5.0494,5.0268,5.0494,5.067,5.0695,5.0695,5.0937,5.1611,5.1538,5.1848,5.2939,5.2987,5.3472,5.4353,5.5082,5.5888,5.6854,5.8151,5.9489,6.0671,6.075,6.1102,6.1755,6.1968,6.1736,6.1895,6.2377,6.2587,6.2736,6.3446,6.4096,6.3827,6.3558,6.3528,3.7578,3.7915,3.7986,3.8776,3.9699,3.9981,4.0414,4.1079,4.1218,4.1626,4.2188,4.2396,4.3082,4.3898,4.3695,4.411,4.4441,4.394,4.3492,4.332,4.3574,4.3281,4.2558,4.248,4.2031,4.1348,4.1621,4.2012,4.2285,4.1973,4.1797,4.1699,4.1387,4.123,4.1172,4.1172,4.1172,4.1172,4.1172,4.1172,4.1172,4.1172,4.1172,4.1172,4.1172,4.1152,4.1133,4.0762,4.0527,4.0486,4.1133,4.246,4.3954,4.5596,4.668,4.6957,4.7584,4.8401,4.9106,4.8613,4.8636,4.9106,4.8659,4.8307,4.8074,4.8096,4.7841,4.733,4.7609,4.7888,4.7563,4.7563,4.8256,5.0167,5.0221,5.0447,5.0922,5.1222,5.1247,5.1172,5.1222,5.1272,5.1247,5.1247,5.1272,5.1272,5.1272,5.1722,5.251,5.2124,5.2387,5.3535,5.3682,5.3581,5.438,5.5211,5.6088,5.705,5.8515,5.9851,6.1284,6.1791,6.1997,6.2567,6.2452,6.2221,6.2409,6.2927,6.3379,6.365,6.4338,6.4635,6.4455,6.4186,6.3917,3.7193,3.7597,3.8453,3.9366,4.0325,4.1123,4.1708,4.1886,4.1904,4.2063,4.2309,4.2627,4.2978,4.3224,4.3282,4.3526,4.4006,4.3568,4.3715,4.4233,4.4258,4.3848,4.332,4.3008,4.2598,4.2129,4.2168,4.2285,4.2402,4.2305,4.2109,4.1816,4.168,4.1445,4.1211,4.1172,4.1172,4.1172,4.1172,4.1172,4.1172,4.1172,4.1172,4.1172,4.1172,4.1172,4.1152,4.1035,4.084,4.0547,4.0695,4.1807,4.381,4.5225,4.67,4.8309,4.8683,4.9295,5.0053,5.0006,4.9863,5.0148,4.9982,4.9438,4.8709,4.8591,4.8076,4.7375,4.7655,4.8075,4.8051,4.8496,4.8991,4.9201,4.9402,4.9952,5.0677,5.1055,5.1272,5.1322,5.1599,5.1674,5.1473,5.1548,5.185,5.185,5.185,5.2329,5.3413,5.2995,5.3105,5.456,5.408,5.3898,5.4715,5.5622,5.6568,5.774,5.9164,6.0778,6.2073,6.2812,6.3019,6.314,6.2996,6.2972,6.3163,6.3411,6.393,6.4148,6.4424,6.4665,6.4845,6.4635,6.4218,3.748,3.8542,3.9289,4.0228,4.1178,4.2001,4.2271,4.2271,4.2271,4.2362,4.2541,4.2741,4.3131,4.3261,4.324,4.3396,4.3614,4.3197,4.3623,4.4547,4.435,4.3906,4.3457,4.3027,4.2832,4.2695,4.2676,4.2754,4.2891,4.2734,4.2539,4.2305,4.2129,4.1914,4.166,4.1641,4.1641,4.1641,4.1641,4.1641,4.1601,4.1484,4.1406,4.1387,4.125,4.1172,4.1172,4.1172,4.1055,4.0858,4.0988,4.2147,4.4001,4.5307,4.6897,4.8615,4.9298,4.9629,5.0151,5.0127,5.0246,5.0246,5.0246,4.9914,4.9251,4.9038,4.859,4.8001,4.8283,4.8611,4.861,4.8939,4.9179,4.913,4.9686,5.0214,5.0968,5.1537,5.1858,5.2026,5.2226,5.2201,5.2101,5.2126,5.2402,5.2427,5.2427,5.3131,5.4138,5.3784,5.4355,5.4885,5.4949,5.4935,5.5186,5.6035,5.7074,5.8456,5.9921,6.1725,6.3364,6.3654,6.3901,6.4052,6.3994,6.3965,6.4125,6.4226,6.4539,6.4585,6.4744,6.5199,6.5472,6.4606,6.4159,3.8441,4.0277,4.0367,4.0989,4.2111,4.2362,4.2436,4.2381,4.2399,4.2582,4.2817,4.2913,4.3254,4.3825,4.3347,4.3249,4.3379,4.2821,4.2988,4.3633,4.3683,4.3507,4.3359,4.2949,4.2891,4.3066,4.3105,4.3301,4.3516,4.3262,4.3086,4.2949,4.2617,4.2422,4.2305,4.2383,4.2324,4.2285,4.2344,4.2324,4.2324,4.2031,4.1797,4.1758,4.1445,4.123,4.1172,4.1172,4.1172,4.1268,4.1682,4.2673,4.4473,4.572,4.6974,4.8732,4.9273,4.9415,4.9509,4.9437,4.9437,4.958,4.9293,4.9437,4.9295,4.9105,4.8889,4.865,4.9008,4.9175,4.891,4.9029,4.9342,5.008,5.0596,5.146,5.2604,5.276,5.266,5.271,5.2904,5.2879,5.2754,5.2829,5.2854,5.2854,5.2854,5.3716,5.4593,5.4505,5.4782,5.497,5.5223,5.5264,5.529,5.5811,5.6949,5.9126,6.055,6.2089,6.388,6.4329,6.452,6.4671,6.4793,6.4851,6.4822,6.4809,6.5032,6.5287,6.5601,6.6122,6.5796,6.502,6.4276,3.7805,3.9484,4.0037,4.0916,4.1891,4.2718,4.3169,4.3169,4.3151,4.2846,4.2596,4.3096,4.3059,4.2739,4.2357,4.2243,4.2326,4.1591,4.1348,4.1944,4.2848,4.3555,4.3882,4.3574,4.3398,4.3496,4.3496,4.3594,4.3691,4.3574,4.3379,4.3086,4.2988,4.2754,4.248,4.248,4.2422,4.2422,4.2441,4.2461,4.2441,4.2344,4.209,4.1797,4.1699,4.1484,4.123,4.1172,4.1172,4.1172,4.1384,4.2647,4.4753,4.5422,4.6675,4.8701,4.932,4.9509,4.9293,4.8694,4.8621,4.9198,4.8018,4.7507,4.8957,4.8259,4.8113,4.8377,4.8667,4.8667,4.8691,4.9029,4.9652,5.0411,5.1047,5.1841,5.256,5.2861,5.2861,5.2861,5.2861,5.2861,5.2861,5.2861,5.2861,5.2861,5.2998,5.3384,5.4376,5.4132,5.3945,5.4773,5.5121,5.5193,5.5365,5.5792,5.7077,5.9601,6.1028,6.2008,6.3663,6.4752,6.4816,6.4938,6.4909,6.4938,6.4938,6.4944,6.5348,6.563,6.5886,6.605,6.6088,6.5613,6.4778,3.839,3.9635,4.0079,4.094,4.1828,4.2687,4.3156,4.3463,4.3481,4.2994,4.2474,4.2671,4.2653,4.2152,4.1581,4.1488,4.1572,4.0565,4.057,4.1439,4.2471,4.3496,4.409,4.3926,4.3691,4.3691,4.3691,4.3691,4.3691,4.3691,4.3555,4.3398,4.334,4.3203,4.3027,4.2969,4.2969,4.2988,4.2969,4.2969,4.2969,4.2773,4.2598,4.2324,4.2187,4.1914,4.1719,4.1543,4.1367,4.123,4.1327,4.2216,4.4289,4.4891,4.6159,4.8308,4.8766,4.9029,4.8957,4.8354,4.8354,4.8572,4.7141,4.7237,4.8086,4.7603,4.7237,4.8232,4.8377,4.8377,4.8546,4.9101,4.9771,5.0482,5.1047,5.1467,5.1911,5.1841,5.2119,5.2283,5.2421,5.256,5.2861,5.2861,5.2861,5.2861,5.2861,5.3521,5.4174,5.3478,5.3287,5.4319,5.4905,5.4976,5.534,5.5792,5.7318,5.9793,6.2136,6.3,6.3684,6.4996,6.4996,6.4996,6.4996,6.4996,6.4996,6.506,6.5251,6.5504,6.5694,6.5735,6.5749,6.5781,6.4976,3.9462,4.0203,4.0066,4.0769,4.169,4.1958,4.2458,4.3282,4.3463,4.2762,4.1905,4.2064,4.1922,4.1674,4.0772,4.0701,4.0665,3.986,4.055,4.144,4.2329,4.2951,4.4136,4.3632,4.3565,4.3628,4.3691,4.3691,4.3691,4.3691,4.3691,4.3633,4.3652,4.3691,4.3555,4.3613,4.3672,4.3594,4.3555,4.3535,4.3496,4.3281,4.3066,4.2891,4.2519,4.2363,4.2246,4.2051,4.1719,4.1348,4.123,4.1985,4.34,4.431,4.5565,4.6994,4.7991,4.8523,4.84,4.8232,4.8086,4.7941,4.6891,4.6891,4.7502,4.7038,4.6817,4.8305,4.8377,4.845,4.8667,4.915,4.9723,5.0269,5.0482,5.0482,5.0411,5.0482,5.0906,5.1632,5.1841,5.2119,5.2629,5.2861,5.2861,5.2861,5.2929,5.3247,5.3657,5.3341,5.3493,5.421,5.4664,5.4783,5.5265,5.5792,5.774,6.0,6.2868,6.4296,6.4296,6.4996,6.4996,6.4996,6.4996,6.4996,6.4996,6.506,6.5187,6.5314,6.5475,6.5371,6.5264,6.5287,6.4777,3.8542,3.9164,3.8387,3.887,4.0088,4.0437,4.1302,4.2492,4.3175,4.1942,4.0437,4.1373,4.0808,3.8778,3.96,3.9878,3.9861,3.9218,3.9856,4.1823,4.0813,4.1866,4.3178,4.3014,4.3087,4.3463,4.3691,4.3691,4.3711,4.3691,4.3691,4.3691,4.3691,4.3691,4.3691,4.3691,4.3691,4.3691,4.3691,4.3691,4.3691,4.3613,4.3398,4.3125,4.2695,4.248,4.2422,4.2344,4.2246,4.2031,4.166,4.1872,4.3024,4.4105,4.5287,4.65,4.7699,4.8328,4.8232,4.7648,4.7061,4.7038,4.5683,4.4708,4.667,4.6055,4.6426,4.7772,4.8377,4.8595,4.9078,4.9365,4.958,4.9795,4.9795,4.9509,4.9221,4.9866,5.0765,5.1492,5.1771,5.205,5.2792,5.2861,5.2861,5.2861,5.2929,5.3067,5.3042,5.3042,5.3399,5.3945,5.4347,5.4557,5.5131,5.5998,5.8049,6.0,6.2735,6.4932,6.4932,6.4996,6.4996,6.4996,6.4996,6.4996,6.4996,6.4996,6.5124,6.5158,6.5285,6.5236,6.5153,6.5027,6.4843,3.8493,3.8615,3.8097,3.818,3.8661,3.9475,4.0192,4.0825,4.1834,4.1161,3.9738,4.0561,3.9949,3.8523,3.8804,3.9132,3.9478,3.9199,3.9665,4.0812,4.0647,4.1336,4.2051,4.2339,4.2423,4.3004,4.3048,4.3297,4.3546,4.3691,4.3691,4.3691,4.3691,4.3691,4.3691,4.3691,4.3691,4.3691,4.3691,4.3691,4.3691,4.3691,4.3633,4.3398,4.3144,4.3027,4.3047,4.2832,4.2754,4.2578,4.2109,4.1876,4.2497,4.3392,4.4558,4.5683,4.6891,4.7868,4.7941,4.7868,4.7502,4.7377,4.5704,4.6055,4.667,4.6352,4.6574,4.7868,4.845,4.8667,4.9365,4.9101,4.915,4.9365,4.915,4.8812,4.8667,4.915,5.008,5.086,5.1187,5.1841,5.2421,5.2792,5.2861,5.2861,5.2861,5.2998,5.2929,5.2998,5.2929,5.3319,5.3847,5.4306,5.4925,5.6218,5.8287,6.0139,6.2175,6.3944,6.4839,6.4903,6.4996,6.4996,6.4996,6.4996,6.4996,6.4996,6.4996,6.506,6.5158,6.5222,6.5192,6.5042,6.492,3.8683,3.8254,3.8066,3.7804,3.7795,3.8784,3.9164,3.9228,4.0316,4.0386,3.9461,3.9496,3.9444,3.8907,3.8563,3.8804,3.9149,3.9406,3.9526,4.0084,4.0389,4.0768,4.103,4.1092,4.1383,4.2086,4.2402,4.2882,4.3546,4.3691,4.3691,4.3691,4.3691,4.3691,4.3691,4.3691,4.3691,4.3691,4.3691,4.3691,4.3691,4.3691,4.3672,4.3633,4.3613,4.3574,4.3516,4.334,4.3164,4.3144,4.2754,4.2383,4.2388,4.3123,4.3912,4.5244,4.6928,4.8254,4.896,4.8891,4.8699,4.8388,4.758,4.7091,4.7365,4.7195,4.7445,4.789,4.845,4.8595,4.915,4.8884,4.8812,4.9005,4.874,4.845,4.8377,4.8377,4.9221,5.034,5.1117,5.1841,5.2421,5.2861,5.2861,5.2861,5.2861,5.2861,5.2861,5.2861,5.2861,5.2986,5.3557,5.4336,5.5005,5.6156,5.8289,6.0139,6.1975,6.33,6.4554,6.4903,6.4996,6.4996,6.4996,6.4996,6.4996,6.4996,6.4996,6.4996,6.506,6.5124,6.5124,6.4996,6.4938,3.8323,3.8237,3.7016,3.7135,3.8029,3.7936,3.8453,3.9548,4.0333,3.9652,3.8191,3.9045,3.851,3.7598,3.8031,3.8375,3.8598,3.8838,3.9251,3.9754,3.9839,3.9839,4.0289,4.02,4.0171,4.1163,4.1984,4.2882,4.3526,4.3691,4.3691,4.3691,4.3691,4.3691,4.3691,4.3691,4.3691,4.3691,4.3691,4.3691,4.3691,4.3691,4.3691,4.3691,4.3691,4.3691,4.3691,4.3633,4.3594,4.3555,4.3203,4.2969,4.3238,4.4741,4.5911,4.6626,4.8239,4.9434,5.0219,5.0437,4.9273,4.8071,4.811,4.7631,4.7056,4.7105,4.7891,4.8178,4.8377,4.845,4.8523,4.845,4.8473,4.8546,4.8664,4.8519,4.8592,4.8809,4.9268,5.0553,5.1282,5.1841,5.2421,5.2861,5.2861,5.2861,5.2861,5.2861,5.2861,5.2861,5.2861,5.313,5.3406,5.4285,5.5211,5.6425,5.8123,6.0004,6.1746,6.2981,6.4081,6.4775,6.4996,6.4758,6.4816,6.4996,6.4996,6.4996,6.4996,6.4996,6.4996,6.4996,6.4996,6.4996,6.4996,3.8323,3.8237,3.755,3.7188,3.7308,3.7718,3.7888,3.7992,3.9046,3.8942,3.8372,3.858,3.8425,3.7653,3.7894,3.8323,3.8357,3.8821,3.9322,3.9807,4.0382,4.0138,4.0362,4.0238,4.0692,4.1339,4.1965,4.2882,4.3628,4.3691,4.3691,4.3691,4.3691,4.3691,4.3691,4.3691,4.3691,4.3691,4.3691,4.3691,4.3691,4.3691,4.3691,4.3691,4.3691,4.3691,4.3691,4.3691,4.3691,4.3652,4.3496,4.3418,4.3954,4.5146,4.6613,4.697,4.811,4.957,5.0713,5.0936,5.0146,4.9449,4.987,4.968,4.8734,4.8782,4.8758,4.8465,4.84,4.8377,4.845,4.84,4.8588,4.8941,4.906,4.9279,4.9619,4.998,5.0461,5.0978,5.1047,5.1632,5.2629,5.2861,5.2861,5.2861,5.2861,5.2861,5.2861,5.2861,5.2861,5.308,5.3331,5.3959,5.4787,5.5873,5.7538,5.9583,6.1273,6.2557,6.3801,6.4467,6.4457,6.4127,6.4399,6.4967,6.4996,6.4996,6.4996,6.4996,6.4996,6.4996,6.4996,6.4996,6.4996,3.8477,3.8323,3.8323,3.7619,3.6929,3.7808,3.7722,3.7016,3.7911,3.8357,3.8323,3.834,3.834,3.8323,3.8237,3.8323,3.8357,3.8994,3.9288,3.9843,4.0909,4.1032,4.0609,4.1247,4.1873,4.1181,4.1965,4.2799,4.3526,4.3691,4.3691,4.3691,4.3691,4.3691,4.3691,4.3691,4.3691,4.3691,4.3691,4.3691,4.3691,4.3691,4.3691,4.3691,4.3691,4.3691,4.3691,4.3691,4.3691,4.3691,4.3672,4.3672,4.3939,4.4965,4.6073,4.6571,4.6833,4.8758,5.0492,5.1236,5.1105,5.0555,5.1213,5.1217,5.0662,4.9869,4.9627,4.8872,4.8707,4.873,4.8826,4.8707,4.9179,4.9723,5.001,5.0183,5.0624,5.0938,5.1199,5.1289,5.1049,5.1586,5.2679,5.2861,5.2861,5.2861,5.2861,5.2861,5.2861,5.2861,5.2886,5.303,5.3256,5.3683,5.4285,5.4838,5.67,5.8775,6.0334,6.169,6.3028,6.4259,6.4121,6.4098,6.4486,6.4996,6.4996,6.4996,6.4996,6.4996,6.4996,6.4996,6.4996,6.4996,6.4996,3.8977,3.8323,3.8323,3.8152,3.8066,3.8237,3.8237,3.8066,3.8237,3.8323,3.8323,3.8323,3.8323,3.8323,3.8323,3.8323,3.8357,3.8632,3.9132,3.9843,4.0262,4.0279,3.9877,4.0654,4.1367,4.1266,4.1965,4.2799,4.3546,4.3691,4.3691,4.3691,4.3691,4.3691,4.3691,4.3691,4.3691,4.3691,4.3691,4.3691,4.3691,4.3691,4.3691,4.3691,4.3691,4.3691,4.3691,4.3691,4.3691,4.3691,4.3691,4.3691,4.3774,4.3774,4.4883,4.6602,4.8645,5.0925,5.2178,5.2008,5.1681,5.143,5.2032,5.174,5.1071,5.0779,5.0557,4.9677,4.9534,4.9414,4.9391,4.9511,5.0033,5.0631,5.1063,5.1048,5.1272,5.2091,5.2303,5.2266,5.2168,5.2297,5.2892,5.2911,5.2861,5.2861,5.2861,5.2861,5.2861,5.2861,5.2861,5.298,5.313,5.3507,5.411,5.4612,5.6085,5.814,5.9747,6.1056,6.2183,6.3429,6.4451,6.4578,6.4816,6.4967,6.4996,6.4996,6.4996,6.4996,6.4996,6.4996,6.4996,6.4996,6.4996,3.9565,3.8323,3.8323,3.8323,3.8323,3.8323,3.8323,3.8323,3.8323,3.8323,3.8323,3.8323,3.8323,3.8323,3.8323,3.8323,3.8375,3.8787,3.9461,4.007,4.0227,4.0332,4.0558,4.1242,4.1615,4.1471,4.2383,4.3214,4.3628,4.3691,4.3691,4.3691,4.3691,4.3691,4.3691,4.3691,4.3691,4.3691,4.3691,4.3691,4.3691,4.3691,4.3691,4.3691,4.3691,4.3691,4.3691,4.3691,4.3691,4.3691,4.3691,4.3691,4.3691,4.3856,4.4494,4.6163,4.7048,4.8934,5.1139,5.1339,5.1493,5.2207,5.2717,5.2557,5.1657,5.1601,5.1228,4.977,4.9723,4.9747,4.977,4.9723,5.0751,5.1571,5.2175,5.2548,5.2647,5.3107,5.3515,5.3381,5.3267,5.3303,5.3262,5.3036,5.2961,5.2861,5.2861,5.2861,5.2861,5.2861,5.2861,5.2861,5.308,5.3306,5.3984,5.4658,5.5924,5.7817,5.9648,6.0811,6.1358,6.2442,6.3836,6.4428,6.4399,6.4578,6.4909,6.4996,6.4996,6.4996,6.4996,6.4996,6.4996,6.4996,6.4996,3.9704,3.834,3.8323,3.8323,3.8323,3.8323,3.8323,3.8323,3.8323,3.8323,3.8323,3.8323,3.8323,3.8323,3.8323,3.8323,3.834,3.8977,3.9739,4.035,4.0648,4.0682,4.0991,4.1721,4.1955,4.1378,4.2882,4.3546,4.3711,4.3691,4.3691,4.3691,4.3691,4.3691,4.3691,4.3691,4.3691,4.3691,4.3691,4.3691,4.3691,4.3691,4.3691,4.3691,4.3691,4.3691,4.3691,4.3691,4.3691,4.3691,4.3691,4.3691,4.3691,4.3774,4.4186,4.523,4.5535,4.6828,4.8956,5.0076,5.1108,5.236,5.3295,5.3227,5.2941,5.275,5.2339,5.0725,5.0581,5.0534,5.039,5.0607,5.1595,5.2636,5.3394,5.3986,5.4327,5.4228,5.4101,5.3821,5.3807,5.4019,5.3858,5.3406,5.3155,5.2911,5.2861,5.2861,5.2861,5.2861,5.2861,5.2861,5.3005,5.3155,5.3607,5.4497,5.5861,5.7466,5.9275,6.0348,6.0799,6.2276,6.4057,6.4312,6.404,6.4549,6.4996,6.4996,6.4996,6.4996,6.4996,6.4996,6.4996,6.4996,6.4996,3.9132,3.8323,3.8323,3.8323,3.8323,3.8323,3.8323,3.8323,3.8323,3.8323,3.8323,3.8323,3.8323,3.8323,3.8323,3.8323,3.8323,3.8357,3.8994,3.9565,3.9722,4.0276,4.093,4.1714,4.2275,4.2375,4.3214,4.3609,4.3691,4.3691,4.3691,4.3691,4.3691,4.3691,4.3691,4.3691,4.3691,4.3691,4.3691,4.3691,4.3774,4.3774,4.3856,4.3856,4.3774,4.3691,4.3691,4.3774,4.3691,4.3691,4.3691,4.3691,4.3691,4.3691,4.4021,4.4186,4.4268,4.5616,4.7629,4.9135,5.0565,5.213,5.3195,5.3624,5.3504,5.3651,5.3115,5.2193,5.1734,5.1902,5.2122,5.261,5.2583,5.3416,5.3981,5.418,5.45,5.4743,5.4518,5.4238,5.4327,5.4666,5.4436,5.3984,5.3457,5.3256,5.2886,5.2861,5.2861,5.2861,5.2861,5.2861,5.2861,5.303,5.3155,5.4157,5.5446,5.7092,5.8977,5.9586,5.99,6.1827,6.4127,6.4011,6.3832,6.4457,6.4938,6.4758,6.4665,6.4938,6.4996,6.4996,6.4996,6.4996,6.506,3.9115,3.834,3.8323,3.8323,3.8323,3.8323,3.8323,3.8323,3.8323,3.8323,3.8323,3.8323,3.8323,3.8323,3.8323,3.8323,3.8323,3.8323,3.8821,3.9115,3.9322,3.9753,4.0629,4.1409,4.1779,4.2504,4.3297,4.3691,4.3691,4.3691,4.3691,4.3691,4.3691,4.3691,4.3691,4.3691,4.3691,4.3691,4.3691,4.3691,4.3856,4.4514,4.4842,4.4822,4.4822,4.4822,4.476,4.4021,4.3856,4.3691,4.3691,4.3691,4.3691,4.3691,4.3691,4.3691,4.3774,4.5148,4.7069,4.8345,4.9607,5.213,5.3295,5.3822,5.3822,5.3822,5.3333,5.2774,5.2332,5.2455,5.2533,5.2458,5.2601,5.3755,5.4348,5.4474,5.4623,5.477,5.5014,5.469,5.5029,5.5516,5.5089,5.4587,5.4034,5.3532,5.3206,5.2861,5.2861,5.2861,5.2861,5.2861,5.2861,5.308,5.3231,5.4024,5.4966,5.6763,5.8626,5.9466,6.0237,6.1959,6.3711,6.3561,6.3504,6.389,6.4191,6.422,6.4428,6.4816,6.4967,6.4996,6.4996,6.4996,6.5124,3.8821,3.834,3.8323,3.8323,3.8323,3.8323,3.8323,3.8323,3.8323,3.8323,3.8323,3.8323,3.8323,3.8323,3.8323,3.8323,3.8323,3.834,3.8666,3.8787,3.8856,3.9456,4.0431,4.1244,4.1751,4.2633,4.3297,4.3691,4.3691,4.3691,4.3691,4.3691,4.3691,4.3691,4.3691,4.3691,4.3691,4.3691,4.3691,4.3691,4.3856,4.4842,4.5556,4.5474,4.5474,4.5474,4.5148,4.4432,4.3774,4.3691,4.3691,4.3691,4.3691,4.3691,4.3691,4.3774,4.4268,4.5311,4.6989,4.882,4.9942,5.2283,5.3143,5.3596,5.3747,5.3822,5.348,5.3115,5.272,5.2522,5.2822,5.2917,5.2914,5.3873,5.4496,5.472,5.4572,5.4721,5.5066,5.5188,5.5531,5.5699,5.5516,5.4938,5.4034,5.3507,5.313,5.2861,5.2861,5.2861,5.2861,5.2861,5.2861,5.313,5.3381,5.3973,5.4708,5.673,5.8461,6.0022,6.1198,6.2729,6.3233,6.294,6.3032,6.3296,6.3532,6.3804,6.4277,6.4816,6.4938,6.4996,6.4996,6.506,6.5158,3.834,3.8323,3.8323,3.8323,3.8323,3.8323,3.8323,3.8323,3.8323,3.8323,3.8323,3.8323,3.8323,3.8323,3.8323,3.8323,3.8323,3.8323,3.8375,3.8375,3.846,3.9384,4.0318,4.106,4.1714,4.3214,4.3691,4.3691,4.3691,4.3691,4.3691,4.3691,4.3691,4.3691,4.3691,4.3691,4.3691,4.3691,4.3691,4.3691,4.4186,4.523,4.5799,4.5961,4.6204,4.6366,4.5393,4.4678,4.4021,4.3691,4.3691,4.3691,4.3691,4.3691,4.3774,4.3939,4.4904,4.6123,4.7629,5.0254,5.1693,5.2383,5.2992,5.337,5.3672,5.3723,5.3798,5.3456,5.3453,5.335,5.3549,5.3624,5.3549,5.3798,5.4421,5.452,5.4421,5.4421,5.4719,5.4794,5.5337,5.5679,5.5622,5.5214,5.4135,5.3482,5.308,5.2861,5.2861,5.2861,5.2861,5.2861,5.2861,5.2936,5.3231,5.3532,5.4493,5.6529,5.844,6.014,6.1771,6.3158,6.3227,6.2584,6.2348,6.2555,6.2968,6.3475,6.3861,6.4248,6.4816,6.4996,6.4996,6.5124,6.5285,3.8323,3.8323,3.8323,3.8323,3.8323,3.8323,3.8323,3.8323,3.8323,3.8323,3.8323,3.8323,3.8323,3.8323,3.8323,3.8323,3.8323,3.8323,3.8323,3.8323,3.8323,3.9007,3.9943,4.0873,4.1714,4.2716,4.3297,4.3691,4.3691,4.3691,4.3691,4.3691,4.3691,4.3691,4.3691,4.3691,4.3691,4.3691,4.3793,4.4103,4.4985,4.6123,4.6828,4.6828,4.7411,4.709,4.5718,4.4904,4.435,4.3774,4.3691,4.3691,4.3691,4.3691,4.4021,4.4596,4.5637,4.6688,4.8446,5.0611,5.1639,5.223,5.2764,5.3219,5.337,5.3672,5.3747,5.3747,5.3596,5.3521,5.3672,5.3422,5.3446,5.3672,5.4047,5.3822,5.3747,5.3972,5.4122,5.4197,5.4421,5.5138,5.5399,5.5146,5.4315,5.3632,5.3231,5.298,5.2929,5.2861,5.2861,5.2861,5.2861,5.2861,5.3055,5.3331,5.4834,5.71,5.8927,6.054,6.2043,6.3651,6.352,6.3089,6.2377,6.1816,6.232,6.2761,6.3147,6.3625,6.4133,6.4636,6.4787,6.5071,6.5475,3.8323,3.8323,3.8323,3.8323,3.8323,3.8323,3.8323,3.8323,3.8323,3.8323,3.8323,3.8323,3.8323,3.8323,3.8323,3.8323,3.8323,3.8323,3.8323,3.8323,3.8323,3.8922,3.9774,4.0536,4.1546,4.2402,4.3214,4.3691,4.3691,4.3691,4.3691,4.3691,4.3691,4.3691,4.3691,4.3691,4.3691,4.3691,4.3774,4.4021,4.5067,4.6204,4.7229,4.7251,4.7571,4.773,4.6123,4.5148,4.4596,4.3939,4.3691,4.3691,4.3691,4.3856,4.4103,4.476,4.6123,4.7491,4.9729,5.0789,5.1562,5.1793,5.2535,5.2992,5.3219,5.3596,5.3747,5.3747,5.3521,5.337,5.337,5.3143,5.3219,5.3521,5.337,5.3143,5.3219,5.337,5.3521,5.3521,5.3849,5.4525,5.5154,5.4827,5.4423,5.3869,5.3432,5.3181,5.2955,5.2929,5.2861,5.2861,5.2861,5.2861,5.2911,5.313,5.497,5.761,5.916,6.0507,6.2855,6.4393,6.3977,6.3475,6.2555,6.1936,6.1788,6.2114,6.2675,6.2968,6.3239,6.3804,6.4399,6.4716,6.5099,3.8323,3.8323,3.8323,3.8323,3.8323,3.8323,3.8323,3.8323,3.8323,3.8323,3.8323,3.8323,3.8323,3.8323,3.8323,3.8323,3.8323,3.8323,3.8323,3.8323,3.8323,3.8922,3.9519,4.0367,4.1042,4.2132,4.2965,4.338,4.3628,4.3711,4.3711,4.3691,4.3691,4.3691,4.3691,4.3691,4.3691,4.3691,4.3691,4.4021,4.4904,4.6447,4.6748,4.6849,4.7251,4.6989,4.5718,4.4678,4.4186,4.3774,4.3691,4.3691,4.3691,4.3691,4.3711,4.4596,4.6527,4.8763,5.0611,5.1354,5.1354,5.1562,5.2177,5.2688,5.3068,5.3446,5.3672,5.3747,5.3672,5.3219,5.2916,5.2916,5.2916,5.284,5.2688,5.2612,5.2612,5.2688,5.284,5.2992,5.3446,5.4128,5.4866,5.4857,5.4555,5.419,5.3683,5.3281,5.308,5.2861,5.2861,5.2861,5.2861,5.2861,5.3005,5.3055,5.455,5.6997,5.8557,6.01,6.2628,6.4607,6.4248,6.3625,6.2584,6.1936,6.1109,6.1434,6.232,6.2498,6.22,6.2675,6.3147,6.3661,6.4005,3.8323,3.8323,3.8323,3.8323,3.8323,3.8323,3.8323,3.8323,3.8323,3.8323,3.8323,3.8323,3.8323,3.8323,3.8323,3.8323,3.8323,3.8323,3.8323,3.8323,3.8323,3.8494,3.9007,3.9689,4.0198,4.1042,4.1882,4.2985,4.2985,4.3297,4.3711,4.3691,4.3691,4.3691,4.3691,4.3691,4.3691,4.3691,4.3691,4.4103,4.4985,4.6587,4.6426,4.6366,4.7571,4.6989,4.4985,4.4842,4.4432,4.3856,4.3691,4.3691,4.3691,4.3793,4.4103,4.6426,4.8107,4.9729,5.1021,5.1431,5.1431,5.1508,5.1947,5.2307,5.2764,5.3143,5.3446,5.3596,5.3747,5.337,5.2992,5.2916,5.2688,5.2459,5.2307,5.2307,5.223,5.2154,5.2307,5.2535,5.2992,5.3999,5.4721,5.4938,5.4661,5.4369,5.3959,5.3532,5.3181,5.303,5.2861,5.2861,5.2861,5.2861,5.2861,5.298,5.4464,5.6147,5.7983,5.9945,6.2352,6.3861,6.4098,6.3654,6.2584,6.1229,5.9877,6.0552,6.1491,6.108,6.0847,6.1405,6.1942,6.2418,6.3062,3.8323,3.8323,3.8323,3.8323,3.8323,3.8323,3.8323,3.8323,3.8323,3.8323,3.8323,3.8323,3.8323,3.8323,3.8323,3.8323,3.8323,3.8323,3.8494,3.8837,3.8494,3.8666,3.9007,3.9433,3.9943,4.062,4.1546,4.2735,4.2902,4.3297,4.3691,4.3691,4.3691,4.3691,4.3691,4.3691,4.3691,4.3691,4.3774,4.4186,4.523,4.6506,4.6285,4.5799,4.747,4.6426,4.435,4.474,4.435,4.3774,4.3691,4.3691,4.3691,4.3793,4.4904,4.6909,4.8049,4.9573,5.0944,5.1354,5.1431,5.1431,5.1639,5.1947,5.2459,5.284,5.3219,5.347,5.3596,5.3572,5.3219,5.2916,5.2535,5.2177,5.21,5.2,5.187,5.1793,5.187,5.21,5.284,5.3897,5.4498,5.4721,5.4863,5.4749,5.4436,5.3909,5.3457,5.3105,5.298,5.2861,5.2861,5.2861,5.2861,5.3186,5.4728,5.6359,5.8091,6.0076,6.231,6.3567,6.4069,6.3504,6.2526,6.1137,5.9786,5.9905,6.0404,6.0087,5.9974,6.0325,6.0864,6.127,6.1997,3.8323,3.8323,3.8323,3.8323,3.8323,3.8323,3.8323,3.8323,3.8323,3.8323,3.8323,3.8323,3.8323,3.8323,3.8323,3.8323,3.8323,3.8323,3.8597,3.9536,3.8922,3.8837,3.9178,3.9774,4.0113,4.0958,4.19,4.2735,4.3463,4.3691,4.3691,4.3691,4.3691,4.3691,4.3691,4.3691,4.3691,4.3691,4.3691,4.3939,4.4432,4.5556,4.6366,4.4658,4.5556,4.6285,4.4432,4.3774,4.3691,4.3691,4.3691,4.3691,4.3691,4.3774,4.523,4.6748,4.7789,4.9337,5.0766,5.1508,5.1431,5.1431,5.1431,5.1639,5.21,5.2535,5.2863,5.3143,5.3219,5.3068,5.2764,5.2535,5.223,5.1947,5.1716,5.1639,5.1639,5.1639,5.187,5.21,5.2612,5.3672,5.4719,5.4942,5.5014,5.5124,5.4963,5.4411,5.3884,5.3406,5.3105,5.2911,5.2861,5.2861,5.2861,5.3442,5.4977,5.6583,5.8226,6.0273,6.2437,6.3504,6.4191,6.3325,6.2406,6.1314,6.0313,6.0256,6.0087,5.9866,5.9753,5.9606,5.991,6.0332,6.0811,3.8323,3.8323,3.8323,3.8323,3.8323,3.8323,3.8323,3.8323,3.8323,3.8323,3.8323,3.8323,3.8323,3.8323,3.8323,3.8323,3.8323,3.8323,3.8409,3.8922,3.8922,3.8922,3.9007,3.9774,4.0282,4.062,4.1462,4.2902,4.3546,4.3691,4.3691,4.3691,4.3691,4.3691,4.3691,4.3691,4.3691,4.3691,4.3939,4.3939,4.4268,4.4842,4.5311,4.4678,4.523,4.5474,4.4186,4.3691,4.3691,4.3691,4.3691,4.3691,4.3691,4.3691,4.5067,4.7069,4.7868,4.9236,5.0688,5.1585,5.1562,5.1431,5.1431,5.1431,5.1662,5.21,5.2383,5.2612,5.2764,5.2535,5.2307,5.2154,5.2024,5.1639,5.1431,5.1431,5.1431,5.1562,5.1793,5.223,5.2612,5.3521,5.457,5.5066,5.5138,5.5206,5.5343,5.4963,5.4386,5.3884,5.3331,5.3155,5.2886,5.2861,5.2861,5.3305,5.4679,5.6369,5.7958,6.0199,6.2628,6.3648,6.4428,6.3325,6.232,6.1342,6.0665,6.0404,6.0178,5.9872,5.9578,5.9454,5.9516,5.9848,6.0124,3.8323,3.8323,3.8323,3.8323,3.8323,3.8323,3.8323,3.8323,3.8323,3.8323,3.8323,3.8323,3.8323,3.8323,3.8323,3.8323,3.8323,3.8323,3.8666,3.9007,3.8922,3.9007,3.9348,3.9689,4.0113,4.0451,4.2049,4.3297,4.3609,4.3691,4.3691,4.3691,4.3691,4.3691,4.3691,4.3691,4.3691,4.3691,4.4103,4.4514,4.4678,4.5556,4.5718,4.5311,4.5393,4.5311,4.4268,4.3691,4.3691,4.3691,4.3691,4.3691,4.3691,4.3691,4.5067,4.6849,4.8049,4.8921,5.0688,5.1562,5.1639,5.1508,5.1431,5.1431,5.1431,5.1793,5.1947,5.223,5.2612,5.2535,5.223,5.2024,5.187,5.1562,5.1431,5.1431,5.1508,5.1639,5.2,5.2383,5.2916,5.3596,5.4496,5.5016,5.5213,5.5626,5.5691,5.544,5.4888,5.4361,5.3808,5.3331,5.3181,5.2911,5.2861,5.333,5.4057,5.5846,5.7744,6.0579,6.3086,6.415,6.4578,6.3267,6.2257,6.1696,6.1109,6.058,6.0336,6.0062,5.9668,5.9329,5.9392,5.9516,5.9792,3.8323,3.8323,3.8323,3.8323,3.8323,3.8323,3.8323,3.8323,3.8323,3.8323,3.8323,3.8323,3.8323,3.8323,3.8323,3.8323,3.8323,3.8323,3.8837,3.9007,3.8837,3.8922,3.9007,3.9178,4.0113,4.136,4.2799,4.338,4.3691,4.3691,4.3691,4.3691,4.3691,4.3691,4.3691,4.3691,4.3691,4.4021,4.4596,4.5474,4.6204,4.6828,4.6426,4.6426,4.6447,4.5941,4.4514,4.3691,4.3691,4.3691,4.3691,4.3691,4.3939,4.4103,4.5556,4.7069,4.8187,4.9472,5.0844,5.1485,5.1485,5.1431,5.1431,5.1431,5.1431,5.1508,5.1639,5.187,5.223,5.2307,5.2024,5.187,5.1639,5.1508,5.1431,5.1431,5.1562,5.1716,5.2154,5.2612,5.3143,5.3747,5.4421,5.4892,5.5361,5.5776,5.5942,5.5691,5.5365,5.4863,5.4336,5.3833,5.3507,5.3281,5.3005,5.3211,5.3706,5.5585,5.7705,6.0885,6.3486,6.4381,6.437,6.2911,6.2022,6.1873,6.1166,6.0432,6.0251,6.0238,5.9696,5.9267,5.9516,5.964,5.9763,3.8323,3.8323,3.8323,3.8323,3.8323,3.8323,3.8323,3.8323,3.8323,3.8323,3.8323,3.8323,3.8323,3.8323,3.8323,3.8323,3.8323,3.8323,3.8323,3.8409,3.8922,3.8922,3.9093,3.9689,4.1042,4.2049,4.2965,4.3526,4.3691,4.3691,4.3691,4.3691,4.3691,4.3691,4.3691,4.3691,4.3774,4.4103,4.5067,4.6123,4.6989,4.7229,4.6667,4.6264,4.5799,4.5005,4.4103,4.3774,4.3691,4.3691,4.3691,4.3774,4.4103,4.4658,4.6022,4.7549,4.8662,4.9886,5.0999,5.1562,5.1562,5.1431,5.1431,5.1431,5.1431,5.1431,5.1485,5.1485,5.1716,5.1716,5.1562,5.1562,5.1431,5.1431,5.1431,5.1408,5.1562,5.1793,5.2154,5.2612,5.3068,5.3822,5.4744,5.5115,5.5337,5.5778,5.6143,5.5917,5.5842,5.5365,5.4813,5.431,5.3808,5.3381,5.303,5.2955,5.3612,5.5517,5.7799,6.1062,6.3422,6.4567,6.4191,6.294,6.2584,6.2555,6.1668,6.0608,6.0529,6.0455,5.9714,5.9295,5.9578,5.9858,6.0043]}]]